GFSGL_sfc_thetae_000.txt.gz
Theta_e
361 365 364 362 363 365 364 364 363 358 354 350 350 344 344 343 344 344 343 340 339 339 339 340 341 344 337 334 333 333 331 330 325 327 330 335 337 338 337 339 338 337 335
363 366 362 362 362 362 363 362 358 354 351 349 346 344 344 343 343 343 340 338 338 337 338 340 341 338 342 342 336 339 335 335 330 330 333 331 336 337 337 338 335 334 334
360 360 360 360 360 361 358 352 353 349 346 342 342 344 345 345 343 344 343 341 339 338 339 340 340 340 339 337 337 333 332 332 333 328 328 331 331 331 333 336 337 336 332
357 359 360 359 359 359 356 343 342 343 343 340 343 341 342 344 344 343 342 342 339 337 340 341 341 341 340 339 336 339 337 333 334 328 328 326 328 332 331 326 325 328 327
358 357 359 362 359 355 350 343 341 341 343 336 337 336 339 343 339 343 341 339 339 339 341 342 343 342 337 336 334 338 337 332 328 326 325 325 323 323 327 327 325 326 328
359 358 361 362 356 348 348 346 347 345 342 338 337 337 338 338 331 330 337 339 340 341 341 343 344 340 338 332 330 330 331 332 329 325 324 324 330 330 329 326 325 323 320
358 359 361 358 352 347 347 346 345 343 343 341 340 340 338 341 327 327 331 338 339 342 343 343 339 335 336 339 332 328 327 325 325 331 329 329 330 330 330 328 326 324 322
358 358 358 355 349 349 347 346 345 342 339 341 341 340 339 340 327 325 330 340 343 344 342 338 337 334 334 337 337 334 333 333 335 332 331 330 330 329 327 325 325 324 324
355 356 353 352 347 345 345 344 345 343 341 342 343 342 341 342 320 321 329 339 340 340 337 336 334 334 328 322 330 330 332 332 326 321 319 317 316 316 318 321 320 318 317
354 355 351 350 348 345 346 346 345 345 342 339 340 342 335 343 320 317 325 336 337 334 334 332 323 327 317 316 327 329 327 328 328 326 326 323 321 324 319 323 320 315 316
356 354 350 351 351 350 349 346 345 343 341 343 341 343 340 335 339 316 316 336 332 330 331 337 334 316 313 311 311 327 323 321 322 323 322 319 320 322 321 322 323 317 313
356 350 349 350 348 349 347 343 342 342 342 340 343 342 341 343 322 316 313 317 326 333 337 334 324 309 308 309 312 311 310 310 320 320 318 315 317 317 317 317 320 319 317
350 347 348 348 347 347 345 340 338 340 338 339 339 337 336 340 334 313 311 311 316 331 334 314 308 306 305 306 310 310 308 318 319 316 314 314 315 316 317 319 319 323 324
349 347 345 347 345 344 343 341 342 340 337 341 338 336 332 334 334 330 324 321 313 320 312 320 316 312 308 311 315 313 318 319 316 313 313 314 314 313 312 311 308 309 315
346 344 344 343 342 344 336 326 341 331 325 335 334 331 332 334 332 321 320 329 329 317 321 324 322 322 320 320 320 319 318 316 313 313 312 311 310 309 307 308 307 312 314
341 341 341 341 343 341 336 331 301 302 301 300 299 315 327 307 301 299 297 297 300 301 315 319 319 319 318 318 317 314 314 310 312 310 309 309 307 306 305 305 308 311 312
344 344 341 336 338 338 337 333 328 310 297 296 296 297 301 301 296 295 295 295 295 299 317 319 317 317 316 315 313 311 310 310 311 308 307 307 306 305 304 305 306 309 312
343 323 338 337 336 335 334 333 333 330 327 322 301 304 295 294 294 294 295 298 311 309 318 318 316 315 313 312 311 310 309 308 307 306 305 305 305 304 304 304 305 308 310
335 334 335 333 332 329 332 331 331 330 328 327 314 305 299 294 294 295 296 318 319 318 317 315 314 313 312 312 311 309 307 304 302 304 304 304 304 304 304 305 305 303 306
333 323 326 332 332 332 332 330 330 328 328 327 323 322 316 310 317 318 318 319 317 316 316 314 313 313 313 312 309 306 303 303 304 304 304 304 304 304 303 304 304 305 310
332 332 326 331 330 329 328 327 326 326 325 324 324 322 310 321 320 319 319 317 316 316 315 314 314 312 311 308 305 303 302 304 304 304 303 303 303 303 304 304 304 305 306
331 329 327 323 324 326 327 330 328 326 324 324 323 317 302 319 320 320 320 317 317 316 315 314 312 310 308 305 303 302 303 303 304 303 302 302 303 303 303 303 303 304 304
327 325 326 329 328 321 327 327 326 325 324 323 323 322 319 320 320 319 318 318 316 315 314 312 310 307 306 303 301 302 303 305 304 303 302 302 302 302 303 303 302 303 303
328 328 327 326 326 323 323 323 324 315 322 321 321 320 320 318 320 318 315 315 315 314 314 311 309 307 303 300 301 302 303 304 302 303 302 302 302 302 303 302 302 303 303
326 325 325 325 323 322 322 322 321 320 319 320 319 318 318 319 319 316 315 316 315 314 312 310 308 305 302 300 298 298 288 285 294 287 301 303 303 304 302 302 302 302 303
322 321 322 321 320 319 318 318 318 317 316 316 317 317 316 317 317 316 315 315 314 313 312 310 308 305 302 300 300 289 283 284 291 284 296 302 302 303 301 302 301 301 302

GFSGL_sfc_thetae_003.txt.gz
Theta_e
369 369 370 367 369 370 368 368 367 364 362 358 357 354 350 349 347 348 347 344 346 346 345 342 344 349 337 334 334 333 331 330 325 330 332 337 344 343 340 341 339 341 336
368 371 370 371 369 367 368 369 368 365 362 358 356 352 348 347 346 346 342 341 341 339 339 344 342 338 348 349 336 345 340 340 330 333 335 332 338 343 344 343 336 333 335
364 364 367 366 368 367 368 368 367 366 360 354 354 351 347 346 347 347 346 343 341 340 339 343 342 345 347 340 343 338 336 339 336 329 328 331 332 333 335 341 341 337 333
357 359 365 367 367 366 368 367 363 362 357 352 351 348 347 346 345 344 343 342 343 342 342 343 343 344 344 345 343 345 342 337 335 330 328 328 330 329 333 328 328 330 329
361 359 365 370 368 367 367 366 362 358 354 350 348 346 345 342 342 345 343 343 345 342 341 341 344 345 339 338 342 334 341 335 332 330 328 328 327 327 327 330 327 328 327
364 363 368 371 368 366 365 362 356 356 352 349 343 342 341 338 331 333 341 340 343 343 341 342 343 341 338 333 333 332 331 331 332 329 326 327 330 331 332 331 329 323 319
367 368 372 372 366 360 360 357 354 352 352 348 342 343 341 343 328 328 332 339 339 342 344 342 342 338 337 338 334 329 329 328 327 332 330 331 330 331 333 330 329 325 322
368 368 371 369 361 355 353 352 352 353 351 348 344 346 344 343 326 326 331 338 338 341 342 342 343 342 341 335 337 334 334 338 337 332 333 334 333 332 328 326 326 326 325
362 367 369 365 358 353 349 350 353 351 353 346 343 344 344 344 322 322 330 339 338 342 343 343 343 338 331 325 329 328 333 335 331 327 323 319 317 317 319 321 318 316 315
362 365 368 363 357 351 350 350 352 354 350 343 342 343 338 346 319 318 327 336 333 335 347 344 327 330 320 320 332 331 331 332 331 330 330 324 321 324 318 323 322 317 315
359 360 361 358 354 351 352 353 351 350 346 341 340 345 348 343 339 316 316 337 333 336 335 337 333 317 316 313 313 328 327 322 328 324 322 323 325 324 320 324 328 318 313
362 360 356 353 351 351 353 349 347 346 345 344 345 345 344 345 326 316 314 316 327 336 333 333 339 315 314 312 313 315 312 312 320 319 320 320 319 317 318 320 324 321 319
362 355 352 353 352 353 352 349 345 346 342 341 341 338 339 342 348 316 314 313 315 329 335 316 313 311 309 308 309 312 311 317 318 319 318 317 315 316 322 319 322 323 321
353 350 350 349 349 349 349 344 341 339 339 340 339 340 340 345 336 337 332 327 317 324 316 322 319 316 311 313 316 314 318 319 319 317 314 315 315 313 312 311 308 307 306
348 347 350 349 348 347 341 335 344 345 333 339 339 339 338 334 335 325 322 330 332 323 327 328 324 323 323 322 321 322 320 319 317 315 313 312 310 310 309 308 306 306 306
348 348 347 346 347 343 335 328 302 305 302 302 300 317 326 307 301 300 299 301 303 306 322 322 321 321 319 319 319 319 318 315 315 313 311 310 308 307 306 306 307 306 307
348 348 346 341 343 342 341 339 334 312 299 297 297 300 303 303 297 296 296 297 299 302 318 319 319 319 319 318 316 315 313 313 315 310 308 308 307 306 305 305 305 306 307
348 328 343 343 339 339 338 336 333 331 328 325 302 305 296 296 295 295 296 300 312 309 317 318 318 318 316 314 313 312 312 310 309 307 306 306 306 305 304 304 305 306 306
343 339 340 338 337 333 335 333 332 332 330 327 317 309 302 295 295 296 297 319 320 320 319 318 317 316 315 314 313 312 311 308 304 303 305 305 305 304 304 304 304 302 303
338 328 332 335 333 332 332 330 329 329 327 326 326 323 316 310 315 316 317 320 320 320 319 318 317 316 315 314 313 310 307 305 305 305 305 305 305 304 303 303 304 304 305
333 333 327 334 331 331 330 328 327 326 325 325 325 322 310 319 322 322 321 321 320 319 319 318 317 317 315 314 311 307 304 303 304 304 304 304 304 303 304 304 304 304 304
332 332 332 330 329 327 327 328 328 326 324 324 321 317 304 323 322 321 322 322 320 320 320 319 317 315 313 310 307 304 302 303 304 304 303 303 304 304 304 304 304 304 304
330 329 328 327 327 322 326 327 326 325 324 325 323 324 323 323 321 321 321 321 321 319 319 317 315 312 311 309 305 303 302 303 305 304 303 303 303 304 303 304 303 303 303
328 328 326 327 327 326 325 323 324 316 322 322 322 323 322 320 320 321 319 320 319 317 317 316 313 311 310 306 303 302 303 304 304 303 304 303 303 303 304 304 303 303 303
329 326 325 325 324 324 322 322 322 322 320 320 320 321 321 320 317 318 318 318 317 316 315 315 312 310 308 305 303 301 290 288 295 287 300 303 304 305 304 303 303 303 303
325 324 324 325 322 322 321 320 320 320 319 319 318 318 319 318 318 318 318 316 315 314 314 314 312 311 308 305 302 289 283 287 292 285 296 300 303 304 303 302 302 302 302

GFSGL_sfc_thetae_006.txt.gz
Theta_e
368 367 368 367 367 366 367 366 361 363 357 357 354 354 353 351 351 348 346 344 344 344 344 343 342 346 342 339 341 337 333 333 328 330 333 335 335 335 336 338 340 337 337
366 367 366 367 368 366 364 366 363 364 360 356 356 354 353 347 349 346 343 340 344 342 343 343 341 340 343 341 341 338 338 337 332 329 333 333 334 337 337 336 336 334 332
365 364 364 365 365 365 365 363 364 363 360 358 355 353 349 346 347 345 344 343 343 342 341 341 341 341 341 342 340 339 337 336 333 330 328 332 331 331 330 332 331 336 337
361 362 362 363 364 363 365 364 363 363 360 359 355 353 349 346 345 344 344 344 343 342 345 344 344 341 341 341 339 339 339 336 332 328 328 328 330 331 332 327 326 331 331
358 361 361 365 364 364 364 364 364 364 363 362 355 352 348 344 343 344 344 343 343 343 340 344 343 344 340 340 339 337 338 334 329 326 323 324 325 327 325 327 325 326 326
355 356 361 364 365 364 363 364 364 365 362 359 351 348 344 341 335 336 343 342 343 342 338 343 345 339 337 333 333 333 337 333 328 324 323 322 324 327 328 326 325 322 319
355 357 359 363 365 364 364 364 364 362 359 354 349 344 340 343 328 330 336 342 340 342 339 342 339 338 338 339 333 330 330 329 329 327 324 325 326 328 327 325 324 322 319
361 359 361 365 364 364 363 363 363 358 354 353 348 342 340 342 327 327 332 336 339 342 340 341 335 339 341 340 337 337 332 332 332 331 329 328 330 332 329 325 322 320 321
358 363 364 369 366 364 362 360 358 353 352 350 347 342 342 343 323 323 327 334 336 336 340 340 339 342 335 325 333 330 330 333 332 325 328 325 321 318 320 322 317 315 314
361 364 369 369 365 359 357 354 351 353 352 352 345 345 337 345 321 319 326 335 335 337 340 340 328 333 325 321 330 331 330 331 332 331 329 324 320 322 319 320 319 315 315
367 367 370 368 363 357 352 351 351 352 354 348 341 341 342 343 338 316 317 337 336 335 334 336 338 320 317 316 316 328 324 318 324 325 325 322 323 324 323 325 324 321 313
366 367 367 361 353 351 350 351 351 349 345 343 343 341 348 348 329 315 315 319 331 336 335 338 327 313 315 316 313 313 313 314 320 320 319 318 320 319 319 319 319 319 318
363 363 360 355 351 351 352 346 344 348 344 342 341 344 343 344 337 318 313 313 315 325 336 319 314 310 315 310 312 313 313 317 317 316 317 319 316 317 319 317 319 318 316
360 356 353 351 352 354 351 349 346 344 343 341 344 342 344 342 340 333 327 323 317 322 317 318 318 318 317 317 318 312 316 319 319 319 316 317 318 315 312 313 310 308 305
352 350 347 347 348 347 331 330 343 324 325 346 348 343 340 339 338 330 330 334 332 325 325 327 322 323 322 320 319 321 320 320 319 320 317 315 311 311 310 311 308 305 304
348 347 347 345 345 338 330 323 301 303 300 301 303 322 320 308 305 303 301 302 304 311 326 330 326 324 322 319 318 318 319 319 319 316 314 311 309 309 308 307 307 307 305
348 348 343 341 343 340 337 333 323 309 300 298 298 300 307 302 299 298 297 298 302 312 327 325 321 323 323 322 320 318 316 318 316 314 313 311 309 308 306 306 306 306 306
350 329 346 344 345 344 343 340 337 328 324 319 300 304 296 296 295 296 298 305 314 312 321 320 321 323 322 320 318 317 316 315 312 311 308 307 307 307 306 305 305 305 304
346 345 343 343 345 340 340 336 337 331 331 320 313 306 299 296 296 298 299 322 321 320 318 318 321 321 321 320 319 318 315 312 308 306 306 306 308 305 305 304 304 302 303
345 333 336 335 335 337 335 334 332 331 324 322 321 317 313 310 314 315 317 319 321 321 324 321 321 321 320 319 318 316 313 310 308 308 308 307 307 306 303 303 303 303 303
337 337 329 333 334 333 332 330 330 329 329 328 324 320 309 320 321 321 322 322 323 324 325 324 322 322 321 319 317 313 309 306 306 307 306 306 306 304 305 305 303 303 303
333 334 335 332 330 332 332 332 330 327 325 326 325 315 303 323 324 325 323 320 324 324 318 322 321 321 317 316 312 309 307 304 306 307 306 304 305 304 305 303 303 303 303
328 330 331 325 326 323 327 327 326 326 325 325 322 318 317 323 325 321 322 323 322 319 317 317 320 318 316 314 309 307 303 304 306 305 304 304 303 304 304 304 303 302 301
331 326 325 328 321 327 323 325 326 316 322 324 324 324 320 321 321 320 321 321 320 319 320 316 313 315 314 311 309 306 304 305 304 302 302 301 301 303 304 304 303 302 302
323 327 325 324 325 321 323 322 322 322 321 323 322 323 323 323 322 320 320 319 318 318 318 318 315 316 314 311 307 297 288 289 295 289 299 302 301 303 304 302 302 301 303
328 326 321 323 322 320 321 321 320 318 318 322 322 322 323 322 321 320 320 320 319 318 317 316 314 315 313 309 304 289 284 287 293 287 294 298 299 303 304 302 303 301 302

GFSGL_sfc_thetae_009.txt.gz
Theta_e
360 360 359 359 357 355 355 354 352 351 349 349 349 350 347 343 342 339 334 334 336 330 332 330 332 332 330 329 331 328 327 326 319 322 323 327 325 326 329 330 333 333 332
361 360 360 360 359 357 354 355 354 351 350 350 350 347 347 344 342 341 336 336 333 333 332 330 329 332 331 330 333 331 329 327 323 320 325 325 326 326 327 329 333 335 330
361 360 360 359 360 359 356 358 358 352 352 348 346 346 345 344 342 341 337 334 335 334 334 334 333 331 330 331 334 333 331 330 326 323 322 326 328 327 326 325 326 326 331
361 360 358 358 359 360 359 356 357 357 352 348 347 347 346 344 341 340 338 334 335 335 334 336 334 332 332 332 332 331 331 330 327 326 322 323 325 327 327 323 320 323 324
358 358 357 359 359 360 359 359 355 355 354 352 347 347 345 342 341 338 338 335 335 334 334 337 336 338 338 334 333 332 332 330 327 323 319 318 320 319 322 321 321 321 322
355 356 357 357 358 358 358 358 357 355 354 353 349 347 343 342 335 335 338 337 335 334 335 337 334 339 337 333 333 334 334 329 322 320 319 318 318 322 321 320 319 317 315
352 355 355 355 356 356 357 356 356 355 356 354 349 346 342 339 330 332 336 336 335 335 337 336 335 337 335 333 330 330 329 330 328 324 320 318 318 321 321 318 316 316 314
348 352 354 355 355 357 356 355 357 357 355 351 347 343 340 338 326 327 331 336 335 335 337 336 333 331 334 330 331 328 330 328 327 327 324 325 323 325 323 321 318 314 314
345 347 352 353 355 357 356 355 357 356 351 349 345 339 337 337 324 321 326 331 333 333 334 334 331 331 330 325 328 326 325 325 328 325 325 325 322 320 321 316 313 309 308
343 347 351 353 355 357 356 355 352 350 347 347 343 338 333 337 322 321 324 331 329 329 330 333 328 329 325 322 325 322 321 323 319 320 320 320 318 317 319 315 316 312 308
345 354 356 359 358 356 351 348 346 345 347 346 343 338 337 337 329 317 317 330 328 329 327 328 329 322 318 318 319 322 320 312 314 313 314 315 314 315 318 319 320 316 311
359 362 360 355 353 349 345 346 345 345 342 338 337 336 337 338 324 315 316 319 327 328 327 326 317 314 314 318 314 311 311 312 311 311 310 310 311 309 311 310 311 313 312
360 357 351 349 348 345 343 343 343 339 337 337 335 333 334 336 331 317 313 314 316 322 325 321 312 312 314 311 313 312 313 308 308 308 308 310 308 311 308 306 306 304 303
354 349 346 345 344 345 343 341 340 339 338 334 334 334 333 333 327 321 316 316 318 318 317 315 314 313 311 313 312 310 308 309 310 309 309 308 308 304 303 303 301 300 297
347 345 344 345 344 326 314 317 327 312 324 335 336 334 330 331 331 323 320 322 321 319 316 313 311 311 311 311 311 312 311 313 312 311 310 304 301 302 301 300 299 297 295
342 342 343 342 329 323 319 312 301 301 300 301 308 321 314 308 311 308 306 308 308 309 318 316 314 315 314 314 313 313 316 317 314 306 303 301 300 300 299 299 298 297 297
342 342 341 335 332 328 324 321 312 305 300 298 298 307 308 303 302 299 298 300 304 311 317 316 315 313 312 312 313 312 308 309 305 303 301 300 299 298 299 297 297 297 297
344 329 341 338 335 333 330 325 320 317 315 310 299 300 297 297 297 298 299 306 311 310 313 312 311 312 310 308 306 305 304 302 300 297 296 295 295 297 297 296 296 295 295
342 341 341 341 339 333 333 332 325 322 318 310 303 301 296 295 296 298 300 314 312 310 309 309 314 311 308 307 306 305 303 300 297 296 295 296 298 296 295 295 296 299 298
340 333 335 338 334 335 333 333 328 326 315 311 311 307 302 302 305 306 307 310 311 311 312 311 313 311 308 307 306 304 301 300 298 297 297 297 296 296 295 295 296 295 295
333 329 329 330 331 331 328 325 328 324 318 316 316 310 304 310 310 309 309 311 312 313 312 311 310 309 308 307 305 302 299 298 296 296 296 295 295 295 296 296 295 296 296
331 327 327 326 328 326 323 322 321 323 321 320 318 309 301 312 314 314 314 314 315 313 315 313 312 310 308 306 304 300 297 295 294 296 295 295 295 295 296 295 295 296 295
326 326 325 324 324 320 321 320 318 319 320 318 313 309 308 311 316 315 315 316 315 314 314 313 311 310 308 301 299 296 294 293 295 296 295 295 294 294 295 295 295 295 293
326 325 323 322 322 319 318 318 317 315 319 317 314 313 312 314 314 315 314 314 314 313 313 310 310 306 303 302 296 293 295 294 294 293 292 291 291 294 295 296 296 294 294
324 324 324 321 321 319 318 316 316 318 318 320 318 317 316 315 314 314 314 313 312 310 308 308 308 309 306 295 291 289 289 289 288 289 291 292 292 292 294 294 293 294 294
321 321 319 319 319 319 317 316 314 316 314 314 318 319 319 316 315 314 313 312 311 311 310 309 308 306 304 296 292 288 285 287 288 287 288 289 289 291 294 294 294 295 295

GFSGL_sfc_thetae_012.txt.gz
Theta_e
353 353 354 353 351 352 350 350 351 348 346 348 347 346 343 339 338 335 333 333 330 330 332 330 329 328 326 326 326 325 323 322 317 319 322 323 325 323 325 326 330 330 330
354 354 354 354 354 352 350 351 350 349 347 347 347 348 346 342 337 337 332 333 332 329 328 328 327 331 331 327 328 327 326 324 321 319 321 324 324 326 326 326 329 332 330
354 354 355 354 354 352 351 351 351 350 346 347 346 347 346 343 339 338 335 333 331 332 331 328 328 330 327 326 328 326 327 328 326 322 321 324 324 324 324 324 324 324 327
355 355 354 355 355 355 354 352 351 352 347 346 346 346 347 345 341 340 337 334 333 332 332 332 331 331 331 330 329 330 330 327 328 326 325 323 321 322 322 321 320 320 321
354 355 355 356 357 357 355 354 352 354 349 347 344 345 344 344 343 339 338 335 333 332 332 332 332 335 335 332 332 328 327 328 328 325 322 319 317 317 317 318 318 318 319
354 354 356 357 356 356 357 356 353 352 352 347 344 343 343 345 336 335 338 336 335 332 330 331 333 338 335 334 332 331 331 329 326 323 318 316 317 316 317 317 316 314 312
354 356 356 355 355 355 356 356 355 352 350 349 345 344 343 343 331 331 335 337 334 333 331 331 333 336 334 334 330 329 328 329 329 324 319 318 317 317 318 316 315 315 313
352 354 356 355 354 355 355 355 354 355 351 350 347 346 344 343 328 327 332 337 335 333 333 333 335 334 332 330 329 329 327 327 329 328 324 324 321 322 320 320 318 315 312
349 352 354 355 353 354 353 354 354 354 353 352 349 345 344 343 323 323 329 335 335 332 332 334 335 333 326 324 329 324 324 325 325 322 322 322 321 320 321 317 314 309 308
346 349 353 354 353 352 353 353 355 355 354 349 346 344 337 339 319 319 325 330 330 330 332 333 326 328 322 320 327 323 322 323 321 317 317 317 319 318 318 316 313 309 306
347 348 350 353 352 353 354 355 355 352 350 347 342 337 336 336 331 319 317 330 328 328 328 329 330 321 316 315 317 321 321 318 316 311 311 312 312 311 312 314 313 312 309
345 345 345 350 351 355 353 352 351 347 345 343 339 336 335 335 324 315 314 320 323 328 328 327 323 313 309 314 318 317 311 312 310 309 307 307 308 307 307 308 307 309 311
341 345 348 351 354 353 350 348 344 343 341 337 336 332 331 332 327 315 313 314 320 329 329 321 310 307 309 313 312 311 311 308 306 306 306 307 307 307 305 303 303 302 300
350 353 352 349 347 347 345 345 341 339 336 335 333 333 332 331 327 321 317 316 315 320 319 315 314 314 312 312 311 311 309 307 307 307 306 307 306 301 300 301 299 297 295
350 349 347 344 344 332 319 331 337 331 334 334 333 333 332 330 327 319 317 320 321 316 313 312 310 309 309 308 308 309 307 307 308 307 308 305 300 299 299 298 297 294 293
344 344 342 331 327 324 321 314 303 302 303 309 314 326 316 316 307 304 302 302 303 306 313 310 309 309 309 309 309 309 309 312 309 308 303 299 298 298 296 296 295 294 293
344 341 334 330 330 329 326 320 312 305 300 299 302 306 310 310 303 301 299 300 302 308 314 313 312 312 312 312 312 310 309 309 305 301 300 298 296 295 295 295 294 293 293
339 324 334 332 328 328 327 323 319 319 317 311 299 300 297 300 300 298 299 305 310 310 314 314 312 310 309 307 306 304 302 299 297 296 295 294 293 294 295 293 293 292 293
339 337 334 332 330 327 325 323 320 318 317 308 304 302 297 295 296 297 303 313 311 310 310 309 309 308 306 304 303 302 300 299 297 295 293 293 295 295 293 293 293 297 296
336 330 335 334 331 330 328 324 322 318 313 310 312 309 301 304 307 307 308 311 311 310 309 309 308 306 305 304 303 301 299 298 296 295 294 294 294 294 292 292 293 293 292
329 330 329 334 333 333 332 328 326 319 316 314 314 308 302 312 309 308 307 309 309 310 310 308 307 307 306 305 303 301 299 297 295 293 294 294 293 292 292 293 292 293 293
327 328 329 328 329 329 328 328 328 322 319 315 312 305 298 309 309 309 308 309 310 311 311 308 307 308 305 305 303 300 298 296 293 293 293 292 292 292 293 293 293 293 293
326 325 324 323 324 321 321 322 325 323 319 317 313 308 307 309 312 311 311 311 312 311 310 311 312 308 307 307 303 298 294 293 295 294 293 293 292 291 291 292 292 293 291
324 323 323 321 320 321 320 319 319 315 320 317 314 311 311 311 312 313 313 312 311 310 310 310 308 306 301 299 295 293 293 295 294 294 293 291 289 289 291 291 292 292 291
322 321 321 320 319 318 317 318 317 315 315 315 313 312 311 312 313 313 312 311 310 309 308 307 303 300 299 298 295 293 290 290 289 288 288 289 290 290 290 290 292 291 292
320 320 320 320 319 318 316 315 313 314 317 317 316 314 314 314 313 313 312 311 309 308 306 306 305 302 297 294 292 290 285 287 289 287 288 287 287 287 290 292 293 292 291

GFSGL_sfc_thetae_015.txt.gz
Theta_e
345 347 347 349 350 349 346 347 347 347 347 347 348 347 343 338 337 335 332 330 329 329 330 327 325 326 324 325 324 323 321 318 315 320 320 321 323 324 324 325 326 326 327
347 348 347 348 349 350 348 347 349 347 347 347 347 346 343 340 337 335 334 334 329 327 329 328 327 329 326 326 324 324 322 321 319 317 321 324 324 326 324 324 326 329 328
347 348 348 348 348 349 350 350 349 349 345 346 346 345 343 341 337 336 334 334 333 330 328 327 327 326 324 325 325 325 324 325 322 320 322 322 323 324 324 322 322 323 326
348 349 348 349 350 349 350 349 350 349 346 345 345 346 346 343 340 337 336 334 333 332 332 329 327 327 326 325 324 325 325 323 324 322 323 321 321 324 321 319 319 319 320
347 348 349 350 352 352 350 349 349 349 348 346 344 345 346 345 342 339 338 335 334 332 332 331 330 331 333 330 328 326 326 323 323 323 323 321 320 319 316 317 316 317 318
348 348 350 351 352 352 352 350 349 348 348 345 344 343 342 345 336 335 339 337 335 333 331 331 331 335 334 332 331 331 329 324 324 320 321 319 318 316 316 316 314 313 313
348 349 350 351 352 352 353 352 349 348 349 345 343 343 342 343 332 331 335 338 335 334 334 333 331 334 333 333 330 329 328 328 327 323 320 321 319 321 317 314 313 314 313
348 349 351 352 351 352 353 352 351 350 350 345 344 342 343 343 326 327 333 338 336 336 335 333 329 329 331 332 330 328 325 326 327 326 323 325 324 321 319 318 316 314 312
347 348 351 352 352 352 352 353 354 352 349 348 346 344 344 343 324 324 328 337 336 336 336 331 331 330 328 324 328 325 324 326 325 322 321 320 319 319 320 320 317 313 308
348 349 352 353 353 352 353 353 355 355 352 350 348 347 340 344 320 320 328 338 336 332 327 329 327 332 320 319 329 324 321 323 323 319 318 314 314 314 318 316 314 310 305
348 351 351 353 354 353 353 354 354 354 353 352 350 349 346 341 322 317 322 335 332 328 328 328 329 319 314 313 317 325 323 319 318 313 310 310 309 309 310 310 311 310 307
345 346 349 351 353 353 352 353 354 353 352 350 349 340 340 334 323 316 318 322 324 328 326 329 328 315 310 309 313 315 313 314 311 308 306 306 307 306 306 306 304 307 310
342 343 344 349 352 352 351 352 352 352 350 346 340 336 335 335 333 315 313 314 319 327 330 324 311 306 306 310 314 313 311 309 307 306 305 305 307 305 303 301 302 300 298
339 341 343 347 349 351 353 354 352 349 347 342 338 335 333 332 329 319 315 319 318 325 317 314 314 313 313 313 311 310 309 307 307 306 305 305 305 301 299 299 297 296 294
336 338 341 346 349 345 327 342 349 340 339 338 337 335 333 330 329 317 316 319 322 318 315 313 313 311 310 308 307 308 307 306 306 305 306 305 302 298 298 297 295 293 292
342 347 347 347 330 325 323 318 307 312 315 313 314 327 327 317 306 304 303 303 303 306 313 312 311 310 310 308 307 307 307 309 306 306 306 303 298 297 296 295 294 292 291
341 346 338 330 331 333 336 332 323 315 304 300 305 309 312 311 303 300 299 300 301 310 316 311 311 309 309 309 309 308 308 309 308 306 301 298 297 295 294 294 292 292 291
321 318 334 334 335 335 334 331 326 327 327 319 302 302 299 300 298 296 297 303 310 312 313 312 311 311 310 310 308 308 304 302 300 298 295 294 293 292 294 292 291 290 290
326 330 332 332 331 326 325 323 323 326 321 310 307 303 297 296 296 297 302 321 318 313 312 312 312 311 309 306 305 302 300 298 296 295 294 292 293 294 292 292 291 295 295
331 324 328 328 325 324 323 321 320 320 316 315 316 310 304 309 315 315 312 314 313 313 312 311 309 307 305 303 302 300 299 298 296 294 293 292 292 293 292 291 291 291 291
334 332 326 330 327 325 324 323 320 317 316 317 316 310 305 321 318 316 313 312 311 311 310 309 307 305 304 303 301 300 302 297 296 294 293 293 293 291 291 291 291 291 291
328 329 330 329 329 328 326 325 321 320 319 317 312 304 300 313 314 312 311 311 311 310 310 308 307 306 306 305 303 301 298 297 295 293 293 292 291 291 291 291 291 291 291
324 322 322 324 324 320 324 326 324 321 318 315 311 307 307 310 311 311 311 310 310 310 309 307 306 307 308 308 307 305 299 297 295 293 293 292 291 291 290 291 291 291 290
321 321 320 320 323 323 322 321 323 316 319 316 314 311 311 311 311 311 310 310 310 310 309 309 311 309 306 304 304 302 298 294 294 294 293 292 291 289 289 289 290 291 290
321 321 319 317 318 319 319 320 320 319 320 317 314 312 311 311 312 311 311 311 310 309 308 307 306 304 302 298 296 296 293 290 293 291 290 289 287 288 288 288 291 291 291
319 320 319 318 315 315 315 314 316 316 316 315 315 313 312 311 311 312 311 310 310 308 307 305 303 302 299 297 295 292 286 288 289 287 288 287 287 286 287 290 292 292 291

GFSGL_sfc_thetae_018.txt.gz
Theta_e
347 348 348 348 349 349 348 347 347 348 349 350 350 350 348 345 341 338 337 336 335 335 334 332 332 332 330 330 330 330 327 325 323 327 327 330 332 334 334 334 334 335 334
345 348 348 349 350 349 348 349 349 347 349 350 350 350 348 345 342 340 337 337 334 333 334 333 332 331 332 331 330 331 329 329 330 328 329 330 331 333 334 334 333 333 334
344 345 347 348 349 348 348 349 349 349 348 349 349 349 348 345 342 341 340 338 336 335 334 334 334 333 332 332 332 331 331 331 330 329 328 330 330 331 332 332 331 332 331
344 344 345 346 348 349 349 349 348 350 348 348 348 349 348 346 344 342 340 339 338 337 335 334 333 333 332 331 331 332 332 332 330 330 329 331 330 330 329 327 327 328 328
344 344 344 347 348 348 350 350 350 349 349 348 348 348 349 347 345 342 341 339 338 337 335 335 334 333 333 332 331 332 332 330 330 330 329 329 327 326 326 326 325 325 326
344 344 346 347 348 348 348 349 350 349 350 348 347 347 347 347 337 334 340 340 339 337 335 335 337 336 334 330 330 330 333 332 331 330 329 328 329 326 326 325 323 322 322
343 345 347 348 348 349 350 349 348 348 349 347 347 347 347 348 331 331 335 343 341 339 338 336 335 337 335 336 330 329 329 328 330 334 330 328 327 327 326 323 321 324 324
343 345 347 348 348 350 350 349 349 349 348 347 347 347 346 346 329 328 333 344 341 339 338 338 337 337 336 336 337 335 334 333 333 334 334 333 332 331 330 328 326 324 322
344 345 347 349 349 350 350 350 351 349 348 348 348 346 345 346 326 323 330 343 339 337 339 338 337 337 327 325 335 334 333 332 324 323 324 322 320 320 326 325 321 318 318
345 347 349 350 350 349 351 351 352 352 350 351 348 347 340 346 321 320 330 341 337 336 338 338 327 332 320 320 336 334 328 327 330 327 324 320 319 318 319 325 322 318 317
346 349 350 351 351 351 352 353 353 353 352 350 348 348 348 345 334 318 321 340 339 337 333 332 334 320 315 314 321 332 331 329 324 326 320 318 318 318 318 319 321 319 316
347 349 349 351 352 352 352 353 353 353 352 349 348 348 349 347 324 315 320 327 330 336 333 334 332 315 311 311 316 317 312 319 322 318 316 315 317 315 315 315 315 317 319
343 345 349 351 352 354 353 352 352 353 351 348 346 347 344 335 329 316 316 320 322 332 334 328 314 307 307 310 313 312 314 321 317 315 314 314 316 316 314 312 312 310 310
337 340 344 348 349 353 354 353 352 352 350 348 347 343 339 334 331 327 328 325 319 323 318 319 315 316 316 318 317 316 320 318 317 315 314 314 315 314 311 309 309 306 305
341 337 340 344 344 351 352 351 352 354 349 350 348 341 335 333 330 319 321 326 327 320 318 320 320 320 319 318 317 316 315 315 315 314 314 314 314 311 309 307 305 304 303
335 341 338 342 345 349 331 324 307 317 310 312 315 328 331 316 309 311 308 305 306 307 323 323 321 320 320 317 316 315 314 314 315 315 315 314 314 310 307 304 304 303 302
326 340 343 339 339 331 335 332 323 315 305 307 310 313 316 317 310 302 300 302 305 310 323 323 323 320 318 317 316 315 315 316 316 314 315 314 310 306 304 303 303 301 301
327 317 336 337 335 337 335 334 331 330 327 324 309 309 308 304 300 299 299 304 313 318 326 322 321 319 318 317 316 316 316 315 315 315 313 310 306 303 301 302 301 300 300
327 332 332 331 331 335 335 333 331 329 327 324 313 306 300 296 297 298 304 324 322 322 322 322 321 319 319 318 317 316 315 313 311 309 306 303 302 302 303 302 301 297 299
328 322 325 327 326 323 325 326 327 323 319 318 321 312 305 310 313 313 323 325 325 324 321 320 320 320 319 317 314 313 311 307 306 305 305 303 302 303 302 301 300 301 301
331 330 324 328 326 324 323 323 324 323 322 324 321 314 309 326 321 321 319 322 322 322 321 320 318 318 316 314 312 310 310 308 307 306 304 303 302 301 302 301 301 300 300
329 330 330 328 327 325 324 323 322 322 323 320 314 308 305 328 324 323 322 321 321 322 322 320 316 315 314 312 311 310 308 308 306 305 304 302 301 301 300 300 301 301 300
326 326 326 326 327 321 324 323 322 322 320 317 313 312 316 319 321 320 320 320 319 318 317 316 315 313 312 312 311 311 308 307 307 305 303 301 300 300 300 300 300 300 300
325 324 324 323 323 325 326 325 322 313 318 317 314 313 315 317 319 319 319 318 317 317 316 315 315 314 313 312 312 311 311 310 307 305 303 302 300 297 299 298 298 299 300
321 321 320 319 319 319 321 323 323 323 320 318 316 314 315 315 314 316 317 317 317 317 316 316 315 315 314 313 311 309 300 292 302 296 302 302 301 299 297 296 297 299 300
316 319 317 317 315 315 316 317 317 318 317 317 316 315 315 316 316 316 315 314 316 316 316 315 315 314 313 312 310 299 287 288 295 291 300 299 297 296 296 296 298 300 300

GFSGL_sfc_thetae_021.txt.gz
Theta_e
356 357 357 357 357 359 359 360 360 361 361 360 360 360 360 360 359 357 356 354 348 347 345 345 345 346 341 340 340 340 338 336 330 334 337 341 342 342 341 343 342 343 340
355 357 356 358 358 357 358 359 361 361 361 363 362 360 360 360 359 356 355 353 349 347 346 344 343 341 343 343 340 342 340 340 335 336 338 337 340 343 343 344 341 338 340
354 355 356 357 357 357 358 360 361 361 361 359 362 361 359 359 358 357 357 355 351 350 348 345 343 343 341 339 340 339 338 339 338 335 334 339 339 340 340 342 342 341 338
351 353 354 356 357 357 359 360 360 361 361 361 362 361 360 359 358 357 356 355 353 351 350 347 345 342 342 341 341 341 340 338 339 336 335 335 337 341 338 335 334 337 334
352 351 353 357 358 359 359 359 360 361 360 361 361 361 361 358 355 357 355 355 354 351 350 348 345 343 339 340 341 341 342 338 336 334 333 334 333 335 335 334 333 333 335
352 351 354 356 358 358 359 360 360 360 360 360 360 360 359 356 342 339 351 355 354 353 351 349 347 339 338 332 332 335 341 340 339 335 334 333 339 338 336 333 332 329 326
348 353 355 356 356 357 358 359 358 358 359 359 359 359 359 360 334 333 338 355 354 353 353 350 346 344 340 342 331 330 331 331 335 343 339 338 337 340 338 334 334 332 330
351 353 355 355 355 357 357 357 358 359 358 358 358 359 359 359 331 329 334 353 355 355 353 351 349 347 345 343 344 341 340 341 339 339 342 344 342 342 339 338 338 336 333
350 352 354 355 355 357 356 356 357 358 358 358 359 359 358 359 328 326 333 351 354 354 353 352 350 348 336 328 340 343 343 343 331 326 328 325 323 324 330 335 330 327 325
351 353 356 358 357 357 357 359 359 359 357 357 358 359 349 358 327 322 331 351 352 349 351 350 331 343 321 322 338 343 340 341 339 335 334 321 325 325 323 335 329 322 320
352 355 357 358 358 359 360 360 359 359 357 358 357 358 359 354 355 320 321 353 351 345 345 344 348 322 316 315 322 345 339 341 333 336 331 330 330 328 325 327 329 324 320
355 356 359 360 358 358 360 361 360 358 356 356 355 355 355 358 333 317 318 330 337 348 345 342 340 316 313 313 320 322 316 326 336 333 330 328 324 323 323 324 326 325 325
354 357 358 360 361 361 360 359 357 358 353 352 350 349 348 351 352 316 317 322 325 345 343 334 320 312 312 313 316 314 317 335 333 330 328 325 324 324 325 323 322 322 322
353 355 358 357 359 361 359 358 357 355 352 352 351 349 348 348 340 328 328 329 322 329 326 324 320 321 321 326 320 320 335 335 332 330 327 325 324 322 321 321 319 318 314
347 351 351 353 355 358 360 360 359 361 354 354 355 353 349 337 332 322 326 331 329 320 322 325 325 328 327 330 330 332 331 329 328 327 324 321 321 321 321 320 318 316 311
339 339 340 344 348 352 355 356 312 310 316 317 318 338 339 320 307 308 310 309 308 311 325 324 324 327 328 328 327 327 327 324 327 324 323 322 321 321 320 318 315 312 310
339 338 340 339 345 344 351 351 344 327 304 308 309 311 310 312 310 308 308 307 308 314 330 327 327 327 329 329 328 325 325 326 328 323 323 323 323 322 315 315 312 311 308
337 319 339 330 329 334 338 342 344 332 334 320 307 313 307 306 307 306 307 309 312 323 330 327 329 329 329 328 327 326 327 325 324 323 323 324 322 319 314 312 310 308 307
336 337 336 331 328 324 324 323 323 331 335 324 316 311 308 302 301 302 303 326 323 327 330 331 334 333 331 331 328 327 326 324 324 324 323 321 319 315 312 310 308 302 303
337 322 328 338 334 333 332 330 321 322 323 324 324 317 311 310 313 313 324 327 328 330 334 334 334 332 333 331 328 326 325 323 323 322 320 317 315 313 310 308 307 306 306
333 334 325 335 333 333 331 331 327 324 323 324 325 317 307 323 319 321 328 326 328 332 334 335 333 333 332 329 326 324 323 322 321 319 317 315 314 311 310 309 307 306 305
332 332 331 330 330 328 330 329 327 326 325 322 316 311 304 325 323 326 329 332 334 336 336 333 330 329 328 326 325 324 322 320 319 318 317 315 312 310 309 308 307 306 305
334 332 329 328 330 322 327 326 325 323 319 318 318 320 327 326 326 327 329 328 330 330 331 329 328 328 328 327 326 325 321 320 319 319 316 314 312 310 308 307 306 305 304
328 330 330 331 330 329 330 328 325 316 321 322 324 326 328 330 328 325 325 327 327 329 329 329 328 327 325 324 323 323 322 321 321 319 318 314 311 306 308 307 306 305 303
321 319 323 323 323 323 327 327 326 325 324 324 321 322 323 323 325 326 328 328 327 326 326 326 325 325 324 323 322 322 306 298 315 306 315 313 311 309 307 306 305 303 302
316 314 312 313 318 320 320 320 319 318 317 317 319 321 323 324 323 325 326 328 327 326 325 324 324 324 324 323 321 305 289 290 303 295 311 310 308 307 305 304 303 302 302

GFSGL_sfc_thetae_024.txt.gz
Theta_e
364 366 365 364 365 366 366 369 371 368 370 367 367 364 363 364 365 366 366 362 361 359 355 351 351 351 341 341 341 339 337 336 331 334 337 343 346 346 343 343 345 345 342
362 366 366 367 367 364 367 368 371 370 370 369 367 365 363 362 366 365 363 360 360 358 356 353 351 346 348 350 342 347 344 344 336 338 341 338 345 347 348 347 344 341 341
361 359 361 363 364 366 368 368 370 370 371 365 368 369 367 364 365 365 365 363 361 360 358 355 353 349 347 344 344 341 341 340 342 336 335 340 340 342 344 347 346 346 342
354 357 361 364 365 366 369 369 370 371 371 370 371 371 368 366 364 363 363 363 363 361 361 358 355 351 348 347 344 345 344 339 342 337 335 335 338 343 340 336 338 342 339
358 355 361 366 368 368 368 369 370 371 370 371 370 371 370 365 360 366 366 362 364 363 362 360 358 352 342 344 343 348 350 341 336 336 334 334 334 335 337 336 334 335 339
360 359 363 366 368 368 369 369 370 370 370 370 369 369 369 362 344 341 357 364 365 365 363 362 360 347 344 335 334 337 346 346 345 335 335 336 341 340 339 336 334 332 329
359 362 364 366 367 368 369 370 368 369 370 369 369 369 369 369 336 335 341 362 365 364 366 363 358 354 347 350 335 332 333 333 337 346 343 342 342 344 346 344 338 336 333
361 362 365 364 365 366 368 367 368 368 367 367 368 369 369 368 335 330 337 361 365 365 363 362 361 360 354 351 351 342 343 344 343 341 344 346 350 347 347 344 342 340 339
360 361 363 363 363 364 366 366 368 367 367 367 368 369 368 368 332 327 335 358 358 365 364 363 363 361 343 331 351 348 347 345 333 329 331 328 329 330 334 339 334 331 329
358 358 364 365 365 364 366 367 369 368 366 362 365 368 357 368 334 324 335 354 356 355 364 367 335 354 328 324 348 350 347 346 344 345 343 333 329 332 324 339 335 330 327
356 356 361 366 366 367 369 369 367 366 364 366 365 367 369 364 364 320 323 358 355 354 353 355 358 327 316 318 328 349 347 346 339 344 342 340 339 338 334 335 336 329 323
359 357 363 366 362 360 369 369 367 366 365 365 364 363 364 368 340 321 320 330 343 356 355 355 355 319 314 314 323 326 320 327 344 339 338 335 334 333 332 331 333 331 330
358 359 360 362 362 366 367 365 360 365 358 359 357 357 359 363 365 325 318 321 326 353 356 346 326 314 311 315 319 319 321 340 340 337 337 336 334 333 333 330 331 331 329
359 360 361 361 360 362 359 360 359 357 357 356 356 357 357 358 359 359 337 330 327 338 326 331 324 321 322 325 321 325 341 340 341 338 337 336 333 328 326 325 322 322 320
358 358 360 359 360 360 363 359 358 364 354 358 357 357 357 355 354 340 332 335 339 331 324 326 327 329 328 329 331 331 337 338 337 339 336 332 328 326 324 325 323 321 319
346 343 345 347 349 353 355 358 314 319 311 307 308 333 357 337 313 310 309 311 309 310 329 330 330 332 332 331 331 331 334 334 335 336 333 329 326 325 324 324 322 320 317
346 348 347 341 349 347 347 349 348 337 310 309 305 305 311 318 307 307 305 306 307 315 334 332 332 331 332 329 331 333 332 334 339 333 330 328 326 325 323 322 321 319 316
344 323 342 342 344 347 348 346 345 344 344 347 322 309 305 304 304 304 304 310 316 328 336 332 332 332 332 333 333 333 334 334 333 332 329 327 325 325 323 321 319 317 315
342 341 340 337 335 331 338 337 336 336 334 335 324 314 309 299 303 304 306 330 328 332 334 333 336 335 335 334 335 336 336 333 331 330 327 326 326 324 322 320 318 307 307
340 325 328 339 339 339 338 337 333 334 333 330 324 319 320 319 316 316 324 330 330 332 333 334 336 336 337 337 335 334 333 330 330 328 327 326 324 323 320 318 316 313 310
338 335 326 334 333 334 336 335 335 332 329 332 331 320 305 323 320 320 324 328 330 332 334 335 337 337 340 339 334 333 330 328 327 327 326 324 323 320 320 317 315 312 310
336 332 332 332 333 332 331 331 333 332 333 332 332 323 304 326 324 324 327 330 334 335 337 338 336 336 337 335 334 331 329 327 327 326 324 322 321 320 318 316 314 312 310
335 336 332 333 334 326 329 328 326 324 322 321 324 320 323 325 325 327 330 334 335 335 337 336 338 336 336 334 333 331 327 326 326 325 323 322 320 318 316 314 312 311 309
330 330 329 330 329 331 332 330 329 320 323 323 323 323 326 328 328 329 329 331 334 336 335 332 331 329 331 331 331 330 328 328 327 325 324 322 319 314 316 314 313 311 309
323 324 325 325 325 325 325 324 324 324 324 323 324 324 324 324 325 326 327 329 328 326 328 328 328 329 331 331 330 330 314 302 322 313 324 322 319 318 315 313 312 311 309
320 318 317 316 313 315 316 313 315 315 316 314 315 317 323 324 324 325 327 328 325 325 327 329 330 331 331 329 327 305 291 295 312 301 321 320 318 316 315 313 311 309 307

GFSGL_sfc_thetae_027.txt.gz
Theta_e
367 369 369 369 370 372 370 372 372 374 375 370 373 370 369 369 371 372 369 368 367 366 364 363 359 360 342 341 342 340 338 337 332 335 339 349 353 347 345 345 344 348 342
367 369 368 370 369 369 371 370 374 373 374 376 373 372 371 369 371 370 368 362 367 363 361 362 357 350 357 357 343 355 345 350 336 348 347 342 348 353 353 355 345 341 345
364 364 369 369 368 367 370 371 373 374 374 372 373 374 372 369 370 371 370 368 367 366 364 363 359 358 357 345 347 345 342 344 345 338 337 340 342 344 349 352 353 350 344
358 360 364 368 368 369 370 373 372 374 373 373 373 373 373 371 369 369 369 369 368 367 367 366 363 360 357 356 352 352 351 344 343 339 336 335 338 348 343 340 342 344 341
361 361 363 369 372 373 372 373 373 373 373 374 373 373 374 372 366 369 368 368 369 367 367 367 366 360 349 351 348 351 350 345 336 336 336 336 334 339 341 340 337 342 342
363 361 365 369 371 372 374 373 374 373 373 373 373 371 371 369 348 342 360 366 369 369 367 368 369 352 347 338 337 339 347 351 345 336 335 336 349 345 341 338 338 336 335
362 365 365 369 370 372 374 374 372 372 374 373 372 372 371 372 340 336 341 366 367 368 369 368 365 359 353 355 337 335 333 336 340 351 346 346 350 352 352 345 348 341 336
364 363 367 367 370 372 372 372 373 373 371 372 372 373 372 371 340 331 336 362 366 368 368 368 368 364 361 358 355 349 348 347 348 344 350 352 353 355 352 350 350 347 342
362 365 365 368 369 370 370 371 372 372 371 370 372 372 371 371 335 329 334 359 361 364 368 369 368 367 347 336 357 355 350 347 335 331 333 332 331 334 342 347 337 334 331
362 365 368 370 369 370 371 372 373 373 371 369 370 372 360 371 339 327 333 359 359 359 364 368 340 359 332 328 355 356 351 348 347 342 337 332 333 334 327 348 339 334 332
359 364 369 371 371 372 372 373 373 372 369 370 370 371 372 368 368 325 322 362 358 358 359 360 364 331 323 321 333 356 350 350 342 347 340 343 343 343 341 339 342 337 331
366 365 369 371 366 365 373 373 373 372 370 368 369 367 368 372 343 331 319 328 348 358 358 359 359 323 317 318 327 332 323 336 351 345 340 338 338 339 340 340 341 341 337
368 370 371 372 370 371 371 372 366 369 362 362 360 361 362 364 369 329 318 320 327 352 360 349 335 317 316 319 322 321 322 348 347 339 339 338 338 338 343 338 340 339 336
363 367 367 366 366 368 362 363 361 359 359 359 357 359 357 362 364 368 350 334 324 335 343 350 332 330 331 340 326 327 345 348 344 339 339 341 342 334 329 331 328 327 324
362 362 363 361 362 365 366 360 360 365 354 358 358 358 357 358 359 345 348 361 352 340 342 344 337 335 334 332 334 335 340 342 340 341 340 339 335 327 328 331 328 325 322
357 357 356 357 359 359 359 361 332 329 320 312 307 326 356 330 315 310 308 313 315 314 339 337 334 334 332 331 331 333 337 336 338 338 336 334 330 327 329 329 328 325 322
351 351 347 339 345 347 349 350 349 338 314 313 307 304 303 302 303 305 302 306 308 314 342 338 336 335 334 332 333 334 333 334 337 337 335 337 331 331 328 327 326 325 322
347 323 346 345 347 347 347 347 346 342 340 341 317 312 304 299 299 300 301 304 322 323 342 340 337 335 334 332 334 335 333 334 335 337 338 337 331 331 328 326 325 324 320
343 343 343 341 338 335 343 344 342 340 338 336 336 321 318 300 299 297 297 325 333 327 337 341 336 335 334 334 335 334 332 335 335 335 335 334 332 329 327 326 323 313 317
340 329 331 341 340 341 341 340 338 336 335 335 332 330 330 330 331 331 323 316 320 329 331 334 337 336 334 333 333 333 333 336 334 334 333 333 330 328 325 324 321 318 316
338 338 328 339 337 337 337 337 337 336 335 333 332 324 302 329 330 330 332 328 331 332 331 331 331 333 333 334 334 334 334 333 333 333 331 329 328 326 326 324 320 318 316
338 336 335 333 333 334 333 333 332 331 331 330 330 329 306 332 330 330 331 331 332 334 336 333 333 334 334 335 334 333 333 331 331 329 327 327 327 325 323 320 318 316 315
335 332 332 331 333 328 332 331 329 327 326 326 326 328 330 333 334 332 334 337 337 337 337 337 336 335 336 336 335 334 332 329 330 330 329 327 325 323 321 318 317 315 314
330 328 327 327 326 327 326 326 326 318 323 323 323 324 324 325 326 329 333 336 338 337 336 334 333 333 332 332 331 333 331 329 330 330 329 325 323 317 320 319 317 315 314
325 324 324 325 323 321 322 321 321 320 319 315 314 314 312 317 322 326 327 327 327 330 331 334 334 333 332 332 330 330 318 303 326 316 328 325 323 325 319 318 317 315 314
321 320 320 320 318 317 316 316 315 314 314 311 311 310 310 310 311 317 319 319 325 327 327 327 328 328 329 328 327 303 291 296 312 304 325 324 322 320 318 316 315 313 313

GFSGL_sfc_thetae_030.txt.gz
Theta_e
364 364 364 365 362 362 363 361 366 362 371 363 370 366 365 364 365 366 363 361 363 360 360 359 353 351 348 348 347 347 344 342 334 338 345 347 345 342 341 343 344 342 339
365 365 364 365 366 364 360 362 365 368 364 370 367 366 365 364 365 363 363 359 361 360 359 359 354 351 352 353 352 345 344 345 340 339 343 344 344 346 348 348 344 340 343
364 365 364 364 364 364 365 362 365 365 369 365 369 367 364 364 363 365 363 362 359 362 361 358 356 353 350 346 348 349 346 348 349 340 340 346 345 347 345 347 348 346 346
362 363 363 364 364 364 365 366 363 366 364 366 366 366 367 365 365 364 364 363 362 361 363 361 359 354 352 350 347 344 348 342 343 343 339 338 344 344 344 339 341 344 342
356 361 362 364 366 366 365 366 367 365 366 365 366 366 366 367 365 363 363 363 363 361 361 363 361 357 349 350 347 348 342 347 342 337 336 338 338 340 338 340 339 339 342
357 357 361 363 364 367 366 366 367 366 366 367 366 365 365 365 350 344 357 362 363 362 360 361 363 353 349 341 340 341 345 341 339 336 335 334 336 340 342 338 337 335 331
360 361 361 363 363 365 367 367 365 366 367 366 366 367 364 365 342 339 343 361 361 362 362 362 361 360 352 352 339 337 336 337 339 341 336 338 341 344 343 343 341 339 335
363 363 366 365 363 365 365 366 367 367 367 366 366 367 366 366 340 333 338 359 361 361 362 362 361 360 359 355 350 344 344 342 340 343 344 343 348 351 350 347 343 342 341
358 361 362 367 365 365 365 366 367 367 367 367 367 367 367 366 335 330 333 355 357 359 361 363 363 361 349 336 352 346 344 344 335 332 333 336 334 333 344 343 339 335 332
358 359 365 363 365 364 366 367 369 369 367 368 367 368 357 367 340 327 332 358 355 355 358 361 340 356 337 327 352 351 345 344 344 340 338 332 332 335 332 344 339 333 331
360 363 365 368 365 366 368 369 369 369 368 367 367 368 368 365 364 325 322 360 359 356 355 356 358 331 327 321 333 353 348 348 341 343 339 338 338 339 337 341 344 338 333
369 364 367 370 365 366 369 370 369 368 366 365 366 365 367 369 341 333 320 325 347 359 357 357 356 328 321 318 325 336 325 335 349 343 338 335 336 336 339 339 339 340 338
377 371 369 372 369 368 369 367 366 367 365 364 363 362 364 366 367 329 321 320 324 346 361 352 322 317 317 320 321 326 324 347 349 343 339 336 338 339 340 338 336 338 334
377 376 374 372 368 369 367 367 365 363 363 362 360 360 361 362 364 365 354 334 325 334 341 349 344 337 325 333 330 328 346 351 349 343 340 340 340 339 337 336 331 328 327
370 370 372 367 367 368 367 363 365 365 356 361 361 360 358 359 338 317 323 349 353 342 346 356 354 350 351 341 343 340 345 349 346 344 340 338 336 336 332 331 327 325 321
366 363 361 360 363 362 363 363 335 326 317 305 306 327 342 312 303 301 302 306 308 313 339 349 350 350 343 345 343 340 342 343 345 343 339 337 333 329 326 325 326 323 321
359 364 351 350 356 362 362 363 359 327 309 307 303 302 301 299 299 298 297 299 301 310 348 346 347 349 345 343 342 340 340 342 344 340 336 334 331 329 325 324 324 323 321
351 325 350 350 350 348 346 346 346 345 347 342 319 313 305 301 297 296 298 307 327 320 338 344 345 346 345 342 341 341 341 340 339 337 333 332 331 328 326 325 324 322 320
350 345 345 342 342 340 347 348 342 343 341 340 339 324 321 312 301 298 302 320 320 323 327 329 331 334 337 342 342 340 340 339 338 335 333 331 330 328 326 325 323 317 318
339 329 333 344 342 345 344 342 340 341 339 337 335 330 329 329 332 333 332 331 327 326 331 332 333 333 333 334 336 339 338 337 336 334 331 331 331 330 326 324 322 319 319
338 339 333 338 337 337 337 336 336 335 335 334 332 324 303 326 332 331 332 334 333 333 335 335 331 330 330 331 331 331 332 331 332 331 331 332 330 327 325 323 321 319 315
338 335 335 334 334 332 330 328 328 327 326 326 326 324 309 330 330 331 333 334 335 337 337 337 335 334 333 330 331 331 331 330 331 331 330 329 327 325 323 321 319 318 316
332 330 330 329 327 325 328 328 326 324 321 319 319 322 323 323 324 327 331 335 336 337 340 340 339 338 339 339 338 335 332 330 330 329 326 325 324 322 321 318 318 316 314
328 327 325 324 323 323 322 322 320 313 316 315 315 314 314 315 316 318 320 322 327 331 339 339 336 337 337 334 335 333 331 329 329 328 326 323 322 316 320 318 317 316 314
323 323 321 320 319 319 318 317 317 315 315 314 313 312 311 311 312 313 316 319 319 321 324 329 334 334 331 330 329 330 319 306 324 315 326 325 322 321 319 318 317 316 315
318 318 318 318 317 316 314 313 313 313 312 311 310 309 309 308 308 308 308 309 313 313 315 314 312 324 335 333 331 308 292 295 310 303 322 323 322 319 319 319 319 315 314

GFSGL_sfc_thetae_033.txt.gz
Theta_e
355 354 355 354 352 356 354 348 352 353 353 352 357 355 356 356 359 355 353 353 354 351 351 349 346 343 336 335 335 335 330 329 322 325 331 332 333 335 335 336 339 337 334
356 355 355 356 355 352 356 354 348 354 353 358 359 357 357 357 357 358 355 356 352 352 352 349 348 348 339 339 340 332 331 332 326 322 333 335 332 331 332 331 336 338 335
357 356 355 356 357 354 353 354 355 350 357 354 358 359 358 358 357 357 357 357 353 354 354 352 350 346 341 341 339 338 333 333 333 328 331 333 334 336 335 336 335 335 337
356 357 356 356 357 358 356 354 352 356 354 360 354 358 359 359 358 358 357 357 356 353 355 355 353 349 346 343 340 337 337 334 334 330 328 329 334 336 334 334 333 338 337
355 356 357 358 358 359 358 359 358 353 356 357 359 356 359 358 359 357 357 357 356 355 353 356 356 353 347 345 344 338 335 336 333 332 329 328 327 332 335 333 331 334 336
352 355 358 358 358 358 358 358 359 358 354 357 357 357 358 360 347 342 354 357 357 356 355 354 357 351 347 339 339 339 340 333 336 332 331 330 331 329 334 335 334 330 327
349 352 355 357 357 358 358 358 357 358 359 356 355 358 356 359 340 337 342 358 357 356 356 356 355 358 349 352 338 337 337 335 334 337 332 331 330 333 334 333 334 331 327
348 350 352 356 357 357 358 357 358 358 358 359 358 357 359 359 337 333 337 356 357 357 358 357 356 355 355 353 351 344 344 341 339 336 337 335 335 335 337 337 335 333 333
349 351 352 355 355 356 356 358 359 359 359 359 360 360 359 360 332 330 333 351 355 356 357 358 358 357 346 334 352 348 344 344 334 329 331 331 331 333 339 340 334 330 326
350 354 358 356 357 355 357 358 360 361 360 361 360 362 352 361 336 326 331 355 354 355 356 356 338 350 336 328 349 351 346 344 343 341 335 330 331 333 332 340 337 331 327
351 351 354 357 358 359 358 359 360 360 360 360 360 362 362 359 358 324 323 355 357 356 355 354 355 331 325 322 326 354 349 348 342 342 341 339 337 337 336 340 339 337 330
351 351 353 355 357 359 358 360 361 361 360 360 359 360 362 363 336 326 321 325 345 358 357 358 356 326 321 321 323 333 327 331 348 343 342 338 336 334 337 340 340 338 338
355 351 354 356 358 356 358 359 360 360 360 359 359 358 358 361 361 326 321 321 324 348 361 351 333 322 316 321 321 325 324 344 349 346 342 341 339 338 337 335 338 338 333
351 357 356 359 357 357 361 361 360 359 358 357 356 356 356 356 357 349 342 332 323 330 337 348 343 335 333 336 331 326 336 348 351 350 347 346 342 337 334 336 333 334 330
353 358 358 358 357 358 356 356 358 351 351 357 357 355 352 340 325 312 315 335 341 335 336 348 350 353 351 352 343 342 336 339 346 349 350 347 340 336 334 336 334 332 329
353 354 353 353 356 356 356 340 312 313 310 307 310 321 317 312 304 300 299 300 301 303 328 342 344 348 351 352 351 351 346 338 341 346 347 346 339 336 335 334 333 329 327
345 347 346 343 351 351 354 347 325 316 304 303 304 308 308 303 299 297 297 300 303 312 331 338 339 341 347 350 350 349 349 346 345 343 346 346 341 338 333 331 329 327 324
340 327 338 339 336 337 339 345 333 331 331 322 307 310 300 297 297 300 301 308 320 319 323 325 326 328 329 330 332 333 335 342 345 344 344 345 342 337 333 328 326 325 325
333 333 333 333 335 335 337 334 335 333 331 328 324 316 315 300 300 301 307 321 319 320 323 321 322 325 326 327 329 331 331 332 333 336 338 342 343 335 330 329 327 320 319
333 327 331 335 333 333 333 332 331 330 327 325 322 321 321 320 322 323 323 322 322 322 325 325 326 327 329 328 326 326 329 329 329 333 334 333 330 328 326 325 323 321 320
331 332 328 329 327 327 326 325 324 324 324 324 321 316 303 322 326 327 328 326 324 324 324 324 326 326 326 325 324 325 327 326 326 324 325 327 327 326 326 325 323 321 320
328 328 329 328 325 324 323 323 320 318 317 318 318 317 306 321 321 321 323 325 327 330 331 329 328 329 329 330 326 324 325 327 326 326 326 326 327 327 325 322 321 319 317
326 325 325 324 324 320 319 319 317 315 314 313 313 313 314 314 315 316 317 319 320 322 324 326 330 330 331 330 331 330 330 328 327 327 326 324 324 322 322 321 317 314 312
321 320 319 319 319 318 316 315 313 308 311 311 310 310 309 310 310 310 310 314 316 316 316 312 311 307 322 330 327 325 326 326 327 326 325 323 322 319 321 317 315 312 311
316 316 316 315 314 314 312 310 309 309 308 308 307 307 307 307 306 306 306 306 308 308 308 307 305 304 301 301 302 318 306 301 321 312 323 322 321 318 315 313 312 311 309
314 313 312 312 311 310 309 308 307 307 307 306 304 303 303 303 303 303 302 302 302 302 303 303 304 302 298 297 294 290 287 289 306 300 321 319 317 316 314 313 312 310 309

GFSGL_sfc_thetae_036.txt.gz
Theta_e
352 352 350 348 349 354 349 344 345 348 347 348 352 352 355 354 353 351 351 353 349 350 349 346 343 342 339 334 333 332 328 325 321 322 328 330 331 331 332 333 330 329 329
353 353 352 351 349 348 354 349 346 346 350 347 352 352 353 354 355 352 350 352 353 349 350 348 346 346 340 335 332 331 330 327 323 320 322 331 329 331 331 333 332 334 333
352 351 351 351 350 348 349 354 351 346 348 351 354 352 352 353 354 355 353 352 351 352 351 350 349 346 344 341 333 334 331 329 327 322 322 330 328 330 327 329 329 332 334
352 351 349 351 352 352 350 349 354 352 345 349 352 355 354 354 354 354 355 354 353 352 352 352 351 349 347 344 339 335 334 331 328 327 324 328 328 331 330 328 328 332 331
352 351 351 351 353 354 353 351 350 351 353 348 350 352 357 356 356 355 354 353 354 353 352 354 353 352 347 345 345 340 334 333 329 329 325 324 326 329 330 329 328 330 334
351 351 353 354 353 353 354 354 352 351 350 353 352 354 352 357 345 341 352 355 354 353 352 352 353 349 346 339 338 339 340 336 333 332 331 328 329 328 330 332 331 325 326
351 352 353 354 354 354 355 355 355 354 353 349 350 353 353 354 337 337 341 355 354 354 353 353 353 354 348 352 338 335 336 333 336 335 333 332 331 332 331 330 333 331 331
346 351 352 354 354 355 355 355 355 355 356 354 351 351 354 354 334 332 336 353 355 355 355 354 353 354 353 351 352 344 343 344 338 336 336 336 336 336 334 333 334 334 331
344 345 351 354 355 355 354 355 355 356 355 355 357 355 352 353 330 329 332 349 353 355 356 356 356 355 343 333 351 350 347 345 340 330 331 329 327 326 330 333 331 329 329
344 346 348 352 354 354 355 355 357 356 356 357 356 357 349 356 330 326 331 353 352 353 356 357 338 348 334 328 346 351 349 350 347 347 339 333 327 329 326 335 335 330 329
348 347 349 349 352 355 355 356 356 357 357 356 356 357 358 354 354 324 323 354 355 355 354 355 356 329 324 322 325 354 351 352 349 348 347 343 341 339 335 338 340 336 331
346 348 350 353 352 353 353 354 355 355 355 355 355 357 359 359 334 324 321 325 344 357 357 359 357 328 320 319 323 330 327 330 352 352 347 344 344 341 340 340 341 341 340
346 345 347 350 353 355 355 353 353 355 355 354 355 355 357 358 360 325 321 322 323 347 360 350 332 322 317 320 319 323 322 342 349 350 350 349 346 347 345 341 340 341 340
346 348 347 348 349 352 355 357 356 356 356 356 356 356 357 357 358 343 339 333 322 328 330 341 338 331 324 333 333 330 332 340 345 347 350 353 353 348 344 341 337 337 335
344 350 351 350 349 351 334 333 353 356 352 357 358 358 354 349 331 316 320 337 337 328 331 342 342 343 347 350 352 352 348 340 337 341 344 348 350 350 344 342 337 336 333
341 348 350 351 352 352 335 322 308 305 305 307 310 320 315 309 305 303 301 300 301 304 324 332 335 338 341 343 348 349 350 344 344 343 343 344 345 346 346 341 337 334 333
338 334 345 344 351 350 332 327 321 318 306 301 302 304 307 305 301 299 302 302 302 310 325 323 324 327 328 328 330 329 328 330 333 333 335 339 341 343 340 340 337 334 333
334 325 339 338 342 347 333 327 325 323 322 321 311 306 299 299 300 299 301 304 319 317 319 318 319 319 321 322 322 322 325 327 328 329 330 331 333 334 333 333 334 336 334
332 335 335 335 334 333 337 333 333 327 324 323 322 315 300 296 296 300 301 319 317 317 319 321 321 324 324 324 323 323 324 323 322 325 328 332 329 326 324 324 328 321 325
329 324 326 329 328 328 330 330 328 325 323 322 320 318 319 318 321 321 321 321 320 320 320 321 322 323 323 322 322 321 322 321 320 320 320 321 324 321 322 323 322 321 320
328 326 323 324 324 322 323 323 323 323 321 319 315 310 302 320 320 320 320 321 323 325 325 327 326 323 323 324 323 324 322 322 320 320 319 320 322 324 323 322 321 320 317
327 325 323 322 321 319 317 318 317 315 314 313 313 311 303 315 314 315 316 317 318 319 318 318 320 318 324 329 329 327 326 323 326 325 324 320 323 324 323 321 320 317 316
324 322 320 317 316 315 315 313 312 311 310 310 309 309 309 309 308 308 308 311 312 312 311 309 308 308 306 314 330 329 329 330 328 326 327 325 324 322 319 316 316 315 315
320 318 317 315 314 311 310 309 308 305 308 307 307 306 306 306 305 305 305 306 306 305 306 306 305 303 302 303 303 304 313 312 324 324 324 323 322 317 319 317 316 316 313
317 315 314 312 310 308 307 306 305 304 303 303 303 302 302 302 302 302 302 302 302 302 301 301 300 299 299 300 298 296 292 288 300 301 321 320 319 319 319 316 312 312 309
313 312 311 310 309 308 307 306 305 303 302 301 300 300 299 298 297 297 298 300 300 300 300 299 299 298 295 294 294 290 287 286 294 289 308 316 316 314 311 310 310 310 309

GFSGL_sfc_thetae_039.txt.gz
Theta_e
346 346 346 347 348 348 346 344 346 342 345 347 348 349 350 350 350 349 348 348 345 345 347 344 341 340 338 334 331 330 326 323 320 321 325 327 328 328 332 334 332 328 328
347 346 347 348 349 350 348 345 344 346 345 346 349 349 350 351 350 349 348 351 348 346 346 346 346 345 339 336 332 329 328 326 323 320 321 327 326 329 330 330 333 331 327
346 347 346 346 346 347 351 351 344 342 345 345 347 348 349 351 351 351 350 349 350 351 349 348 348 345 343 340 335 331 329 329 325 321 322 324 329 327 327 328 329 330 330
346 347 347 348 347 346 347 350 351 346 344 347 348 349 350 350 352 352 352 350 349 350 352 351 351 349 347 345 342 338 333 329 326 324 322 324 326 328 327 325 324 327 330
347 348 348 350 350 349 347 347 350 351 347 347 347 350 351 351 352 351 352 352 350 349 350 351 352 351 346 346 347 344 336 334 331 329 328 322 325 326 326 326 327 329 328
348 347 349 348 350 350 349 348 346 349 351 349 345 347 350 353 342 340 348 351 352 351 350 350 351 348 346 339 338 340 343 340 337 333 334 330 329 328 331 329 327 322 323
348 348 349 349 348 349 350 350 348 346 347 349 350 348 347 348 336 336 340 353 351 351 350 351 351 353 347 351 340 336 335 334 339 344 336 337 333 333 331 328 328 328 327
348 348 349 350 349 349 350 350 351 350 348 347 347 348 349 351 335 331 336 351 353 353 353 352 351 351 351 349 350 348 345 346 342 340 345 347 343 341 334 331 331 332 332
346 348 350 351 350 351 350 350 352 352 352 352 351 348 347 349 329 328 332 348 351 352 354 354 354 353 342 332 349 349 349 348 340 331 332 332 331 327 332 334 329 328 327
344 347 350 352 352 351 353 353 353 354 353 354 354 355 345 350 330 325 329 349 349 351 353 354 336 347 333 328 346 350 348 350 352 349 345 335 331 336 324 334 338 331 329
342 343 346 351 352 354 353 354 354 353 354 353 353 354 355 351 350 323 322 349 351 351 351 352 354 330 324 323 325 353 350 352 350 350 352 350 348 346 345 338 336 337 334
341 341 343 345 351 352 353 354 353 353 352 352 352 352 355 356 334 324 321 324 342 353 354 357 355 327 319 319 321 328 326 328 350 352 352 351 350 349 346 346 343 337 340
343 343 343 345 346 348 351 351 352 352 352 351 352 351 353 354 356 325 320 321 323 345 357 348 330 320 314 317 317 320 319 335 342 345 347 350 353 355 354 350 346 345 340
343 344 343 345 347 348 350 350 350 351 350 351 350 351 352 354 356 358 343 331 322 327 331 340 335 328 325 332 333 329 331 336 340 343 346 349 352 352 352 352 346 344 340
341 344 347 345 341 341 321 324 344 348 344 353 353 354 353 355 351 326 330 344 344 329 332 341 341 341 341 341 344 347 347 341 336 338 340 341 341 343 343 347 347 347 342
337 337 340 346 345 335 322 319 305 302 302 305 312 326 316 309 302 302 302 303 304 307 331 335 334 336 335 335 335 329 330 330 329 329 329 330 331 331 332 334 338 340 337
333 334 332 340 348 334 325 326 322 316 305 300 300 301 302 301 299 299 299 300 303 311 329 326 322 320 319 319 320 320 321 322 322 322 323 325 326 327 328 330 330 329 329
328 317 334 337 347 334 327 324 326 325 322 319 307 304 299 298 299 300 304 311 323 321 320 318 320 324 325 321 319 319 321 322 321 320 321 324 327 326 323 322 322 321 319
329 329 330 332 337 328 329 326 324 324 323 322 322 314 307 300 301 301 303 321 317 317 317 318 318 319 320 320 320 321 321 320 319 318 318 317 317 322 322 322 322 313 314
324 321 324 329 332 334 330 326 324 322 321 319 318 318 322 320 322 322 323 323 323 322 323 323 325 324 321 321 321 321 323 321 320 318 317 317 318 319 320 321 319 317 316
322 322 321 323 324 326 325 324 322 319 316 314 312 308 303 318 316 316 316 316 316 314 312 314 316 314 313 316 324 326 326 325 320 320 322 321 319 323 323 321 319 317 316
322 321 320 319 320 319 318 317 316 314 313 312 310 308 302 310 309 309 309 310 310 309 308 307 307 306 306 306 310 315 323 327 327 324 326 325 321 322 322 321 318 313 313
320 318 316 315 315 312 313 312 311 310 308 308 307 306 306 305 304 304 305 305 305 304 304 305 303 302 303 303 303 303 303 309 310 318 324 326 325 323 318 316 315 312 311
319 316 314 312 311 310 309 308 307 304 306 305 304 303 303 303 302 302 302 302 302 302 302 301 300 299 298 299 299 299 299 296 293 302 318 324 324 319 320 316 313 313 311
314 313 311 310 308 306 306 305 303 302 301 300 299 298 298 298 298 299 300 301 300 300 300 300 299 299 297 297 296 294 291 287 290 291 307 318 321 321 320 316 312 312 309
311 310 309 307 304 303 302 300 299 298 297 296 295 295 295 294 293 292 292 293 293 293 294 295 296 297 296 294 292 289 286 287 290 288 296 311 316 318 316 314 312 310 308

GFSGL_sfc_thetae_042.txt.gz
Theta_e
342 342 343 344 344 345 345 345 344 345 347 348 349 350 352 353 354 352 352 352 350 350 351 350 350 348 346 344 339 338 335 331 330 334 332 338 339 338 339 342 340 341 340
343 343 343 345 346 346 346 346 346 345 347 349 350 350 350 352 353 352 352 353 351 349 350 350 350 350 348 347 343 340 337 335 333 333 335 335 337 339 339 338 339 338 338
344 344 344 345 346 346 347 347 347 347 346 348 349 350 350 351 352 353 353 352 353 352 352 351 350 351 350 349 346 343 339 337 334 331 333 333 335 336 336 335 338 339 339
344 345 344 345 346 348 349 349 346 347 348 348 349 349 351 352 353 353 353 353 352 354 354 353 353 352 351 352 349 347 345 341 337 334 334 333 335 338 335 335 334 334 336
343 345 344 346 348 348 350 351 350 347 347 348 349 349 351 351 352 353 354 353 352 352 353 354 355 353 347 348 352 351 348 345 344 339 337 335 333 334 333 338 333 336 338
342 344 346 347 347 347 347 347 351 351 349 348 348 348 349 350 340 339 349 354 354 353 351 353 354 348 347 339 338 340 348 348 346 343 342 341 342 340 338 336 334 333 331
344 345 347 348 348 348 349 347 347 348 351 350 348 349 349 351 335 334 339 353 353 353 353 353 353 354 348 354 342 335 336 334 339 351 346 345 344 347 345 339 336 335 335
345 346 348 349 349 349 350 349 348 348 348 350 350 350 348 349 332 330 335 351 353 354 354 355 354 354 355 353 354 354 353 351 346 344 348 351 353 354 351 346 343 341 338
346 347 348 349 348 348 348 349 350 350 348 348 349 350 350 350 328 327 331 349 352 353 355 356 355 355 342 332 352 352 353 354 342 332 334 334 331 328 335 348 340 332 330
347 348 350 351 350 349 349 350 352 353 352 352 350 351 343 350 330 325 329 349 348 350 354 356 336 348 333 327 347 352 350 353 354 354 352 338 332 339 328 336 342 339 337
348 350 350 351 351 352 352 352 352 353 353 353 353 355 355 349 349 323 321 348 351 351 351 353 356 328 324 323 325 352 350 351 350 352 354 354 354 352 351 350 344 339 339
345 348 350 351 352 353 353 354 354 353 352 352 353 353 356 358 333 326 320 322 340 352 353 355 355 326 319 318 321 326 324 328 349 350 351 351 353 354 355 353 350 348 343
342 343 344 350 352 353 353 353 353 354 352 352 352 352 353 356 357 324 320 319 321 343 355 347 332 324 315 317 317 320 318 333 338 340 343 347 350 353 356 355 357 356 351
344 344 344 344 346 351 353 354 353 352 351 352 352 352 354 356 357 359 343 333 321 328 332 341 334 330 325 332 333 332 332 337 341 342 344 347 350 348 345 348 346 345 342
347 351 347 347 346 342 324 328 347 349 344 353 354 355 354 354 355 340 343 351 347 335 337 343 343 344 345 344 345 347 347 342 341 342 340 340 339 339 338 339 337 334 330
342 343 347 347 345 333 328 322 304 302 302 308 318 335 324 309 302 303 304 305 306 311 337 340 338 338 337 335 333 335 336 331 332 332 333 332 330 330 330 332 332 328 325
338 338 338 342 340 332 330 328 322 312 302 299 298 301 305 302 299 298 298 300 303 314 332 328 326 326 327 329 330 330 330 331 331 331 330 329 328 330 328 324 325 325 320
334 316 337 348 341 333 331 329 330 329 325 321 304 304 298 298 299 300 304 313 325 323 326 325 326 329 329 329 329 330 330 331 331 330 329 328 327 327 327 326 325 323 322
332 332 335 342 335 328 329 328 327 325 324 323 324 314 305 300 302 303 308 324 323 324 326 327 327 327 327 328 328 329 328 327 327 326 328 328 327 327 326 324 322 313 314
327 321 326 334 331 329 327 327 327 325 324 322 322 322 325 322 320 318 320 320 319 317 316 319 317 316 316 317 320 325 326 326 327 328 330 327 326 326 326 323 322 318 318
325 325 323 329 329 327 327 325 323 320 317 313 311 308 304 317 314 313 312 311 311 310 309 309 310 309 309 309 310 312 315 323 328 327 327 327 327 325 329 329 326 321 319
323 323 323 322 322 322 321 320 317 315 312 310 308 305 301 309 308 308 307 307 307 306 307 306 305 304 305 305 305 305 305 307 312 312 314 324 328 326 326 327 327 322 322
321 320 318 317 316 313 314 314 312 311 309 308 307 307 306 305 304 304 303 303 303 303 303 303 302 301 301 302 302 301 301 301 301 301 300 313 323 327 327 325 327 322 321
319 319 317 314 312 310 309 307 306 302 305 304 303 302 302 302 302 302 302 302 302 302 302 301 301 300 300 299 298 298 298 294 293 296 298 306 318 324 324 322 324 321 321
315 313 311 310 308 306 304 302 301 301 300 299 298 298 298 298 298 298 299 299 299 299 298 299 298 298 298 297 295 295 290 286 292 291 301 305 313 321 324 321 319 319 321
311 308 307 305 303 303 301 299 298 297 295 295 295 295 295 295 295 295 295 295 294 294 294 294 295 295 294 294 292 288 285 286 291 287 302 311 309 311 313 319 321 318 315

GFSGL_sfc_thetae_045.txt.gz
Theta_e
351 352 353 353 353 355 354 355 358 356 357 358 360 361 360 361 362 363 362 361 361 362 362 360 360 362 356 354 353 351 347 344 339 341 345 348 350 351 350 350 349 350 347
351 352 352 353 354 352 354 354 357 358 358 359 360 360 360 360 361 361 360 359 360 360 360 361 359 357 360 360 356 356 352 352 344 346 349 345 349 353 353 352 349 346 347
351 349 350 351 351 354 355 356 357 358 358 356 358 358 359 359 360 361 361 361 360 360 360 361 361 361 359 357 358 356 355 354 352 346 345 347 346 346 348 351 349 351 348
348 349 351 352 353 354 357 358 356 359 358 357 358 359 359 359 360 360 360 361 361 361 362 362 362 362 361 361 360 360 359 356 356 351 348 348 349 354 349 344 343 347 345
351 350 351 354 356 357 358 359 358 358 359 359 358 358 359 358 356 359 360 361 361 361 362 363 363 360 350 353 359 363 361 356 353 350 348 348 347 347 347 348 346 347 351
352 351 354 355 356 357 358 359 359 358 359 359 357 358 357 355 341 339 353 359 362 362 360 362 363 354 352 340 338 340 353 362 356 353 351 351 359 356 355 352 350 348 346
352 354 355 356 356 357 359 359 360 359 358 359 357 357 359 360 336 334 339 357 359 360 362 362 361 359 354 361 345 336 337 335 340 358 358 359 360 361 362 358 359 356 352
352 353 356 356 356 358 358 358 360 360 360 359 358 359 359 360 334 330 334 355 361 363 363 363 364 363 362 359 361 360 361 362 358 353 355 359 364 365 367 362 359 354 352
351 353 355 356 356 357 357 357 357 356 357 358 359 359 359 360 330 328 335 355 356 361 363 363 363 363 346 334 358 358 360 361 347 335 337 336 331 328 335 348 345 345 343
352 354 357 359 358 358 359 360 360 359 356 356 356 359 350 361 333 324 332 353 355 353 362 363 338 351 335 328 356 357 357 359 362 364 365 350 339 345 329 340 346 341 341
354 356 359 360 360 361 362 362 360 358 360 358 357 359 359 356 356 323 320 352 353 354 354 356 358 329 325 323 325 360 358 358 356 359 358 358 360 360 362 362 353 347 346
360 359 360 361 358 357 361 360 360 360 358 359 359 358 359 361 335 327 320 323 342 356 358 360 361 328 320 318 323 329 324 328 351 351 352 352 352 353 357 358 357 354 351
359 360 360 361 359 362 360 360 356 359 356 356 356 356 357 361 363 325 319 318 321 347 360 350 331 323 315 322 319 321 319 334 339 341 344 345 350 355 357 356 358 355 354
357 358 360 359 358 361 358 358 357 356 356 356 356 356 358 360 362 364 353 340 322 331 336 349 342 336 330 337 337 332 332 336 338 342 345 349 351 350 346 344 341 340 338
353 354 355 355 355 358 360 350 358 362 351 357 358 359 358 358 360 345 347 361 355 341 344 352 351 351 349 350 348 348 350 345 342 345 346 344 342 340 338 339 337 336 333
357 354 350 350 351 354 343 332 304 304 302 308 316 342 344 315 309 308 308 313 317 312 341 347 345 344 343 342 340 340 341 338 345 343 340 338 336 336 335 335 335 333 329
346 343 350 344 349 347 345 343 334 314 302 298 299 305 311 309 300 299 300 301 305 318 341 338 332 331 333 333 335 338 340 340 341 338 338 337 336 334 332 333 333 331 329
345 317 348 350 348 344 344 347 344 339 337 326 306 304 299 299 299 301 303 313 331 330 336 333 332 333 334 338 339 338 339 338 336 335 336 337 335 333 332 333 332 325 322
342 346 350 345 342 340 346 345 345 339 332 323 322 313 308 300 301 302 310 337 334 332 331 329 331 332 330 330 329 330 331 331 330 330 330 335 334 332 332 330 327 314 317
340 325 332 335 335 338 340 340 339 337 334 332 329 327 330 327 328 325 324 325 326 321 321 323 321 321 319 317 318 320 322 326 329 330 331 332 332 333 332 331 331 326 324
337 335 327 335 332 331 331 330 329 325 321 317 315 312 305 323 319 317 320 319 317 316 315 314 314 313 313 313 314 313 314 315 317 318 319 321 328 330 331 331 330 329 328
334 334 332 332 331 329 326 323 319 316 314 311 310 308 303 315 314 313 310 310 310 311 311 311 308 307 308 310 311 312 313 313 313 314 316 316 319 325 329 329 329 328 328
333 331 327 325 323 317 320 319 315 313 311 310 310 310 311 310 309 307 307 307 307 306 306 307 307 306 306 306 306 306 307 308 306 308 310 313 313 319 325 328 327 327 326
328 328 323 320 319 317 315 313 309 304 307 305 305 305 305 304 304 304 304 305 305 306 308 308 308 307 307 307 307 309 307 302 298 304 309 311 313 312 320 325 325 325 325
323 321 317 314 312 308 307 306 304 304 302 302 300 300 301 301 301 303 305 307 307 305 304 303 302 302 301 300 300 299 291 286 297 291 315 315 314 314 315 317 323 321 320
320 315 314 310 307 306 304 301 300 298 297 296 296 296 295 296 297 299 298 301 301 300 300 300 299 299 298 297 294 288 284 285 293 286 307 315 312 310 310 311 312 315 321

GFSGL_sfc_thetae_048.txt.gz
Theta_e
356 358 358 356 357 359 358 359 361 361 361 362 360 359 361 363 365 365 365 362 364 364 364 362 363 365 357 353 353 352 350 348 342 343 345 351 357 357 356 357 355 355 351
358 361 358 359 359 356 358 359 362 361 362 362 362 361 360 361 364 365 363 360 362 362 363 363 362 359 363 364 356 361 357 358 347 353 355 348 357 361 358 357 354 351 350
355 354 354 355 355 358 359 360 362 362 362 361 361 362 361 360 363 364 364 363 362 362 363 363 363 364 363 360 360 357 356 357 358 353 352 352 352 354 357 362 359 360 354
352 352 356 356 357 356 362 363 360 364 362 362 363 362 362 360 360 362 363 363 362 362 364 364 364 365 365 366 364 364 363 360 360 354 351 349 348 357 354 351 350 354 353
357 352 356 361 362 363 364 364 362 365 363 363 363 362 362 360 356 360 360 360 362 362 364 365 366 362 352 355 363 370 371 362 355 351 349 349 349 350 354 354 354 355 359
360 357 361 364 365 364 366 367 366 365 364 364 362 362 361 358 341 338 351 357 361 362 362 364 366 357 354 342 340 341 351 364 366 357 353 352 366 361 358 355 354 352 351
361 361 363 365 364 366 366 367 366 366 365 364 363 363 365 365 337 334 339 356 357 360 364 362 360 357 356 364 345 339 340 337 339 357 358 360 364 365 369 367 365 363 360
361 362 364 365 364 366 367 367 368 365 366 364 363 367 367 365 335 331 335 359 360 362 364 364 366 366 363 360 363 361 362 364 362 357 360 361 362 365 369 369 368 364 363
360 362 364 365 364 364 365 366 365 364 364 364 364 367 368 368 331 329 336 358 358 363 363 365 367 367 349 334 361 360 361 362 347 333 336 337 334 332 340 358 352 352 350
359 362 365 366 366 365 366 367 368 365 363 362 362 366 354 366 334 325 336 357 358 355 366 369 340 352 335 327 361 359 358 359 362 365 370 348 338 353 331 352 357 349 350
357 358 363 366 367 368 369 369 368 365 364 366 364 367 368 362 361 323 322 358 355 354 353 354 357 329 326 324 324 360 358 358 358 366 366 365 367 366 365 365 354 349 350
363 362 365 368 361 361 369 368 366 366 365 366 364 362 362 365 337 325 320 325 343 357 356 356 363 326 319 319 326 331 325 330 358 359 358 354 355 358 360 362 363 363 363
362 365 364 365 363 368 366 366 361 365 360 359 358 358 358 361 364 327 319 319 324 348 360 349 327 323 317 324 319 322 319 353 347 342 345 347 352 352 359 362 365 367 361
361 363 363 362 361 363 362 362 360 359 358 357 357 357 358 360 362 366 356 342 324 336 340 353 348 336 325 335 349 346 350 345 343 345 344 348 355 356 355 354 345 344 341
360 360 362 361 361 361 363 349 360 366 350 358 359 360 359 359 361 348 350 365 362 349 352 360 358 358 358 358 357 355 352 346 344 343 348 351 354 351 345 344 342 341 337
355 355 356 357 359 359 359 352 306 305 301 303 308 335 353 321 314 318 316 319 317 314 347 356 355 355 352 351 348 345 346 343 350 349 349 348 343 341 340 341 340 338 337
352 361 354 350 355 353 353 351 348 338 304 300 299 304 314 314 302 301 301 302 304 320 353 350 347 345 340 339 340 341 342 345 348 343 343 342 341 340 337 338 338 338 336
354 330 362 355 352 352 343 334 334 338 347 353 311 308 299 299 299 301 306 318 338 335 342 338 336 336 337 337 339 340 343 343 341 339 339 340 341 340 338 337 336 335 333
349 348 349 348 347 340 336 334 334 336 347 331 326 314 305 298 300 304 304 350 353 349 345 343 342 339 337 333 334 335 336 336 336 334 336 338 336 334 334 333 332 318 321
343 327 332 344 343 349 350 348 347 347 338 333 332 330 328 325 334 338 341 339 336 332 334 332 332 329 327 330 332 331 333 333 333 331 331 333 335 335 333 333 332 331 329
343 342 329 336 335 337 343 346 348 341 335 327 326 323 311 336 334 334 333 331 328 326 326 328 327 327 327 328 329 328 325 327 328 328 330 332 333 332 335 333 332 332 331
337 339 340 337 332 328 326 329 327 326 322 322 322 320 306 329 327 325 321 321 320 321 319 321 320 321 321 322 323 324 324 325 325 325 326 327 328 329 328 330 332 331 331
332 335 335 335 331 322 325 322 321 321 319 318 320 322 324 322 316 317 312 314 314 315 315 315 314 316 319 319 321 320 318 317 317 317 319 322 324 325 324 325 326 328 328
333 330 332 332 330 327 325 319 315 309 314 313 313 316 317 317 314 312 310 310 311 313 313 314 315 315 315 315 313 314 309 307 309 316 318 321 322 320 320 320 325 326 325
326 325 323 319 321 319 315 313 311 309 309 308 308 308 309 309 308 309 309 310 312 311 311 311 310 308 305 304 302 300 290 285 297 291 315 322 321 322 319 316 317 319 323
327 324 322 315 311 311 309 306 304 303 302 302 302 302 302 303 303 305 306 308 308 306 307 303 304 304 302 300 297 288 284 284 293 285 299 318 318 318 318 318 316 318 319

GFSGL_sfc_thetae_051.txt.gz
Theta_e
361 362 360 360 361 364 365 367 368 367 369 368 365 364 363 363 367 371 370 366 363 368 366 364 366 371 356 352 352 351 349 348 342 344 346 356 367 365 362 362 357 360 353
359 363 361 361 361 360 362 366 370 369 367 368 368 367 365 364 368 369 364 361 362 362 363 367 361 359 369 370 359 369 359 362 349 356 355 353 363 366 366 368 356 355 356
358 359 360 359 361 359 364 364 368 369 370 363 368 369 366 364 367 370 369 366 364 364 364 366 365 367 369 362 366 358 355 359 359 354 354 356 356 357 360 367 367 365 360
353 354 358 360 361 360 364 367 367 370 369 369 370 370 367 366 365 365 367 367 367 364 367 367 367 367 370 371 366 371 366 362 359 354 353 354 355 363 358 354 355 358 359
356 355 358 363 363 364 363 367 368 369 370 371 371 370 369 363 358 365 367 367 368 366 367 367 367 364 352 359 363 368 369 363 356 353 351 351 350 352 356 357 355 359 362
358 356 359 362 364 363 364 367 369 369 370 371 370 370 368 359 343 339 356 363 367 367 367 369 370 357 354 343 342 342 353 364 368 357 353 352 361 360 358 356 355 353 353
361 360 362 364 364 365 366 368 368 369 371 371 370 370 369 369 336 334 339 358 363 365 368 369 365 357 359 368 347 341 342 338 341 360 359 360 360 365 368 365 360 362 362
361 364 363 366 365 367 368 367 368 369 369 369 371 371 371 370 337 330 335 361 361 364 368 368 370 368 369 365 368 366 365 367 364 357 361 364 367 370 370 366 369 368 366
363 364 365 366 366 368 367 368 369 369 369 369 371 372 372 371 333 329 336 360 359 364 366 367 367 369 351 336 364 363 365 366 347 333 334 336 335 331 338 356 357 356 354
364 364 368 368 368 368 369 370 372 371 370 366 368 372 360 373 334 326 336 358 359 357 366 369 342 354 338 328 363 365 363 365 365 365 368 356 340 352 332 351 358 353 353
364 367 369 369 370 371 372 372 372 371 366 370 368 371 372 367 368 325 322 363 357 355 354 353 356 331 327 325 327 364 360 361 356 364 365 368 367 370 371 373 368 360 356
366 366 369 371 367 366 372 372 372 371 370 370 370 368 366 373 342 326 321 327 346 359 355 350 353 325 320 321 326 331 325 330 357 358 359 360 361 361 360 364 366 362 367
367 367 368 371 370 370 370 371 366 370 361 361 360 358 357 361 366 327 320 321 326 350 358 341 327 323 319 323 319 326 323 355 357 359 358 358 356 357 362 359 364 372 370
367 366 368 368 368 369 365 365 361 359 359 357 356 355 354 355 354 360 353 339 325 338 343 353 347 334 328 339 348 335 357 361 361 355 348 350 355 354 354 361 357 351 344
366 366 364 363 362 365 368 359 361 348 345 357 353 352 349 351 351 342 349 361 358 349 352 359 357 358 359 362 362 365 366 358 351 348 349 351 349 357 358 356 347 344 341
361 359 359 358 360 361 352 348 309 316 305 304 305 326 355 317 314 309 314 314 318 318 351 358 358 359 358 360 358 355 352 346 349 350 351 353 352 350 346 345 344 341 339
358 364 359 353 358 360 359 355 350 329 304 302 305 306 308 309 305 305 305 307 310 324 359 359 360 358 353 351 349 348 347 349 352 350 348 348 346 344 340 341 341 341 340
362 329 359 358 359 361 360 360 356 353 348 347 310 313 301 305 303 306 309 320 347 344 357 351 346 343 340 339 340 341 344 347 346 347 345 343 342 342 341 340 340 339 337
360 358 358 360 359 353 355 350 346 347 346 340 334 319 310 301 299 301 306 359 355 349 346 346 345 341 341 342 341 341 342 339 339 341 339 339 339 338 337 336 335 319 325
347 330 337 346 345 345 345 345 342 341 339 339 335 333 327 325 335 336 342 345 353 357 353 345 342 339 337 338 338 338 337 334 335 336 335 337 336 335 334 334 334 333 333
343 342 333 349 348 346 341 342 345 345 339 336 333 328 317 334 336 338 341 341 341 341 340 339 335 334 334 334 334 332 331 333 332 331 331 332 334 331 334 333 333 334 334
339 339 337 335 335 337 337 341 339 334 330 327 325 319 310 334 335 334 332 335 333 333 333 333 331 330 329 330 330 331 330 329 328 327 327 328 329 330 330 328 328 331 332
339 339 335 331 327 323 331 331 328 328 326 324 326 324 328 327 326 328 326 325 324 324 323 322 322 319 323 325 325 323 320 318 318 321 322 323 325 327 326 325 323 326 326
332 335 335 333 333 329 321 318 318 312 320 318 320 323 319 318 317 317 317 318 319 320 318 321 322 321 319 316 313 309 304 304 311 316 316 321 322 320 322 321 322 320 321
330 333 330 330 327 324 321 314 312 313 313 311 311 313 314 314 316 316 318 318 317 317 315 313 311 309 306 304 300 299 288 285 299 289 311 317 320 320 319 319 320 321 322
327 323 322 320 317 315 314 311 306 304 303 304 305 307 307 309 309 308 311 312 312 310 311 310 308 306 303 300 297 288 285 285 292 285 298 309 312 313 313 313 316 316 317

GFSGL_sfc_thetae_054.txt.gz
Theta_e
358 356 355 354 354 354 357 350 362 360 371 368 369 367 364 364 368 368 364 364 363 364 366 366 364 364 362 361 360 356 354 354 346 349 355 355 360 360 355 358 360 356 354
359 357 356 357 354 353 350 361 360 367 365 373 367 370 365 365 365 365 363 358 360 362 363 363 364 362 365 364 361 361 362 364 356 350 354 353 354 357 361 362 359 354 354
359 357 356 355 356 355 353 354 362 361 365 363 368 364 365 362 363 365 364 362 362 363 362 363 362 365 364 363 364 358 357 359 357 354 352 359 359 359 356 363 361 358 357
356 357 356 355 355 354 358 355 360 363 362 363 363 365 365 363 362 364 365 363 362 361 365 363 365 364 363 365 363 363 363 361 358 357 353 352 355 357 360 356 356 360 356
354 354 356 359 357 357 356 359 356 360 362 364 363 365 365 363 360 361 362 364 363 362 363 364 365 363 354 358 363 364 363 361 358 356 353 353 351 354 352 355 353 356 355
353 353 356 358 358 358 356 358 360 359 362 363 364 364 364 362 346 341 355 359 364 362 361 362 366 354 352 343 341 343 352 360 357 358 357 353 353 355 356 353 352 350 347
354 355 355 358 359 357 360 357 359 359 361 362 363 365 364 364 339 336 341 358 359 362 364 362 362 361 354 363 345 339 340 338 341 355 352 352 352 355 357 357 356 355 355
355 357 356 358 358 359 358 359 358 360 360 361 363 365 365 365 339 330 336 354 358 361 362 362 362 362 362 363 363 362 359 359 356 350 351 355 359 362 363 361 360 359 359
356 357 357 357 358 358 357 358 359 360 361 361 363 365 364 365 334 331 333 351 354 355 357 359 363 365 349 339 356 356 357 359 348 337 341 340 339 336 341 349 348 349 352
355 357 361 357 360 358 359 359 360 362 361 362 362 365 356 365 336 329 333 355 353 354 358 360 339 350 337 330 355 359 356 357 360 361 362 356 339 346 329 342 351 351 352
358 361 362 361 360 362 363 363 362 363 363 363 362 364 366 363 362 325 323 357 356 355 355 356 359 332 327 324 327 357 354 357 356 361 359 361 365 366 368 365 364 360 355
363 360 365 365 362 364 364 365 365 364 363 362 363 363 365 368 341 327 321 327 345 357 355 357 355 327 323 324 326 330 326 329 355 355 355 355 358 363 363 362 363 361 363
365 361 364 365 366 364 365 364 363 364 362 361 361 360 362 365 366 330 321 320 326 351 360 345 326 323 318 319 320 326 323 347 353 354 355 357 363 360 358 360 363 361 361
362 363 363 365 363 364 366 365 364 363 362 361 359 360 360 362 363 366 344 333 326 334 340 350 343 341 330 338 339 330 349 357 357 357 358 359 355 355 354 356 354 357 352
363 362 362 363 361 364 363 364 364 365 358 361 360 359 359 357 357 345 349 354 352 343 348 356 356 354 353 358 362 362 357 360 358 356 352 350 351 351 352 357 357 352 343
361 361 360 361 362 363 360 352 308 314 306 311 317 342 345 318 310 309 309 320 321 318 348 354 354 354 354 355 358 358 357 349 350 349 350 349 349 350 351 351 347 342 340
362 361 360 355 360 360 359 350 340 321 302 300 301 308 313 314 305 303 301 309 313 321 353 352 355 358 361 358 356 351 349 351 350 350 350 349 348 346 342 343 343 344 341
360 337 360 358 357 360 358 355 350 344 343 339 312 311 303 303 305 308 314 322 342 340 355 356 357 354 351 348 346 345 345 348 347 348 341 342 342 344 344 342 340 338 335
345 347 351 358 357 355 360 358 357 355 355 347 336 321 312 305 305 306 310 357 355 354 348 346 344 343 340 342 341 344 343 339 336 341 339 337 339 339 337 338 335 321 324
339 331 335 348 351 356 356 353 355 351 347 342 342 339 330 326 338 340 340 339 341 348 342 341 341 340 340 339 342 341 336 333 337 339 337 335 336 337 335 333 333 332 331
339 338 331 341 344 347 350 347 346 344 343 342 340 336 318 344 340 339 336 334 335 336 338 336 336 336 337 337 337 336 334 334 335 334 334 334 335 332 332 331 329 329 331
336 334 334 332 338 339 338 342 338 338 334 330 329 324 306 340 334 333 332 330 330 331 335 335 332 331 332 332 333 333 332 330 328 327 327 329 330 331 331 329 326 325 325
337 333 330 328 326 321 324 326 328 330 330 331 333 332 331 328 325 325 325 326 326 326 326 323 321 322 323 316 310 308 310 311 315 319 320 323 325 327 325 325 323 321 322
333 332 331 327 320 318 317 316 314 309 314 315 318 317 317 318 317 318 318 318 318 319 317 312 307 303 303 302 302 298 296 296 301 307 309 315 319 320 322 321 321 321 321
326 324 321 326 321 317 315 313 312 313 311 313 313 313 314 315 316 315 315 316 316 312 310 308 304 301 299 298 297 295 286 286 295 288 303 309 315 318 316 315 315 315 318
314 315 313 310 308 311 309 306 305 306 305 307 306 304 307 306 302 304 311 311 309 310 308 305 303 301 298 296 293 287 284 286 290 286 294 308 308 306 303 304 306 311 311

GFSGL_sfc_thetae_057.txt.gz
Theta_e
347 350 346 344 350 348 344 341 347 345 355 357 358 356 357 356 356 354 351 353 351 352 353 350 351 351 349 350 354 349 342 341 334 337 344 345 345 346 348 347 347 347 347
349 348 349 346 346 348 345 343 340 347 349 356 358 356 355 353 355 354 353 353 351 352 352 351 350 356 351 349 351 349 349 350 344 338 342 343 345 348 348 348 353 356 351
351 349 349 348 344 346 344 345 341 350 347 354 356 355 355 355 353 354 354 354 352 353 353 353 352 350 351 353 350 349 348 349 349 345 343 348 351 351 349 348 353 355 355
351 351 349 348 348 344 345 342 349 347 355 352 357 354 355 353 354 354 356 355 353 353 356 354 355 354 352 352 354 352 352 350 348 347 345 345 346 350 349 348 345 349 349
351 351 350 350 349 349 346 345 340 353 349 354 353 356 356 356 354 353 356 356 355 353 352 355 355 355 352 352 356 354 354 351 350 349 347 346 344 345 344 348 345 344 346
350 351 352 351 350 349 349 350 345 343 354 352 352 354 356 358 345 342 351 355 356 355 354 353 356 352 350 343 343 345 353 353 350 349 347 346 344 345 347 345 344 345 341
347 351 351 351 350 349 350 348 350 345 347 353 355 355 355 357 340 338 342 353 352 355 355 355 354 358 350 355 343 338 338 337 340 349 345 346 346 346 347 346 347 348 348
346 348 350 351 351 352 351 349 350 352 348 349 353 356 356 357 339 334 337 349 352 352 356 356 355 355 352 351 352 353 349 348 346 345 345 349 351 352 352 353 353 353 355
346 347 349 351 350 352 349 350 349 351 352 351 354 355 356 357 334 332 333 340 347 350 353 354 355 355 345 337 349 350 351 354 347 335 337 336 335 334 341 347 348 350 343
340 349 350 351 352 351 351 351 353 350 350 354 352 355 350 357 335 330 332 349 342 345 348 349 337 349 338 333 348 349 345 347 348 350 350 340 333 338 330 340 348 342 343
348 351 352 351 351 352 353 353 352 352 351 351 353 354 357 355 356 326 324 352 350 346 346 347 351 329 323 323 325 348 349 351 347 351 353 352 352 357 357 348 348 349 346
351 351 351 352 352 354 353 353 353 352 351 351 352 353 356 359 339 330 322 325 343 350 348 350 349 332 324 322 325 328 325 329 348 348 347 347 348 350 356 357 355 356 359
353 351 353 355 352 354 353 352 352 353 352 352 352 353 354 357 359 330 322 321 324 348 354 346 333 326 320 322 322 324 322 336 344 344 345 347 351 355 352 351 355 358 355
351 354 352 355 353 352 357 355 355 354 354 353 353 353 355 356 358 361 342 331 324 331 339 339 335 334 332 337 329 322 334 340 343 345 348 350 348 347 347 349 350 349 346
350 355 354 355 353 355 357 357 357 358 354 356 355 356 354 354 355 346 348 350 347 339 341 349 343 341 343 344 348 339 337 346 348 351 351 349 347 348 347 350 351 347 338
343 352 355 354 355 356 355 337 307 310 309 316 326 347 356 327 326 319 313 318 320 317 339 347 347 348 348 347 347 353 349 346 353 350 348 347 346 345 346 347 345 332 329
339 350 356 349 355 355 355 350 340 319 303 300 301 314 316 322 308 306 304 310 307 319 345 348 348 348 349 347 347 350 350 350 349 347 344 343 345 346 342 334 334 332 331
335 329 352 354 354 356 356 353 348 337 338 334 309 308 301 302 301 300 300 312 327 335 346 345 346 344 343 344 346 345 344 345 344 343 339 337 335 337 333 332 328 327 325
334 339 346 348 353 351 356 352 343 342 342 338 327 315 308 303 302 309 316 344 343 344 342 339 339 339 338 338 337 337 337 336 336 334 332 331 332 329 329 328 326 318 319
329 331 332 347 349 348 353 352 344 344 344 336 336 332 327 324 337 338 335 343 344 340 339 337 337 337 337 336 336 335 333 333 333 332 331 330 328 328 328 327 325 324 324
328 334 330 340 340 342 342 340 344 347 340 337 333 327 316 339 337 336 333 330 333 337 337 337 334 334 334 334 331 331 331 330 329 328 326 325 326 324 325 325 324 324 322
329 329 328 328 328 330 334 335 333 332 330 329 328 324 310 337 331 328 326 326 329 332 331 333 332 330 327 326 326 329 327 320 319 319 317 319 320 320 322 321 318 317 317
330 325 323 322 322 321 324 328 329 330 329 326 327 324 323 323 322 320 320 319 319 318 318 321 312 306 306 305 305 307 307 308 308 310 311 312 315 317 316 317 316 314 314
327 322 319 317 315 315 316 315 316 314 320 317 317 317 317 317 317 316 316 314 309 306 304 302 302 302 303 299 296 295 295 296 297 298 300 303 308 309 311 311 312 313 314
311 309 314 313 312 310 308 308 309 310 311 312 312 312 312 313 314 314 313 311 308 305 302 299 297 297 296 294 292 290 286 287 291 288 294 298 302 298 299 298 298 302 305
301 301 300 300 300 302 301 300 298 299 300 300 300 300 301 301 302 304 309 307 303 301 299 297 296 297 296 294 291 288 285 286 289 285 292 299 299 296 296 296 297 298 298

GFSGL_sfc_thetae_060.txt.gz
Theta_e
346 344 341 342 345 344 340 341 343 343 345 348 354 352 352 352 350 351 347 347 348 347 348 347 347 347 345 345 348 347 343 337 331 334 337 343 344 343 344 345 347 343 344
346 346 344 341 343 346 345 341 340 342 348 352 354 352 352 353 351 349 349 350 349 347 348 349 348 353 348 346 346 345 344 344 339 336 337 340 342 348 348 348 352 354 352
344 346 345 342 341 342 346 343 338 339 342 352 353 353 353 353 352 352 351 349 348 348 349 349 348 347 348 349 347 346 346 347 345 342 343 344 347 347 346 346 347 351 354
343 344 344 346 343 341 344 345 344 338 339 345 353 353 353 352 352 353 351 349 349 349 350 350 351 350 347 347 349 349 349 347 345 342 341 342 344 347 346 345 344 344 345
345 345 344 347 348 344 341 344 342 344 342 345 349 352 353 352 352 350 351 350 349 349 350 351 352 352 348 347 351 349 348 347 346 345 343 343 343 344 343 344 342 342 345
346 346 347 345 347 347 344 341 341 340 346 344 350 352 351 354 342 341 349 351 350 349 349 349 350 349 347 341 341 343 349 349 347 346 346 345 345 342 342 342 340 340 340
347 348 348 349 347 346 346 343 341 340 338 346 344 350 352 352 337 336 341 351 352 352 351 351 351 355 348 352 341 337 337 338 342 350 347 344 342 344 343 341 342 342 343
337 347 350 350 348 348 346 346 345 345 339 338 348 347 349 353 336 333 337 350 349 350 353 354 352 352 350 349 350 349 349 347 343 341 343 347 348 349 347 349 346 346 352
335 335 345 351 350 348 346 346 347 348 346 341 345 352 350 350 332 330 333 347 349 348 349 352 353 353 341 334 349 348 348 350 345 331 333 332 331 329 336 346 346 346 346
335 335 337 345 350 349 349 348 348 348 348 349 346 346 345 353 332 328 331 350 346 346 348 349 335 347 333 329 346 348 345 346 345 344 347 339 331 338 330 340 347 344 344
337 336 337 339 347 351 350 351 349 348 348 349 348 348 350 350 350 325 324 351 351 347 345 345 348 328 324 323 325 349 347 348 344 346 347 349 350 351 352 345 341 345 341
334 334 336 340 346 350 350 351 350 349 347 346 348 349 351 352 336 328 323 326 343 351 348 346 346 326 320 319 321 326 323 324 339 344 345 347 346 346 348 352 354 352 355
344 345 344 349 350 350 349 349 349 349 349 347 346 346 349 352 354 328 322 321 325 347 354 343 330 321 319 322 322 323 320 330 337 340 344 346 345 349 353 352 352 354 356
336 340 349 350 350 349 350 351 350 349 348 348 348 347 348 351 353 355 344 333 325 330 339 345 336 332 328 334 331 326 327 333 337 340 342 345 346 347 349 349 349 346 346
328 334 344 350 346 349 350 350 350 352 348 349 349 350 349 349 351 342 344 351 348 339 337 346 337 336 339 340 341 340 331 333 336 339 342 345 347 349 349 348 345 344 344
324 330 341 351 350 352 349 338 309 312 316 317 320 340 351 333 325 316 311 317 318 315 333 344 345 344 343 345 342 344 340 336 342 345 348 350 347 343 343 342 344 340 332
319 325 333 338 353 351 352 347 343 321 303 302 307 311 317 330 311 310 311 308 308 314 348 345 346 346 347 347 345 346 347 347 346 349 349 343 344 340 339 340 333 329 328
317 316 325 335 349 352 353 353 349 346 343 338 307 313 307 307 308 306 302 311 321 322 346 346 346 346 346 346 344 343 345 344 343 341 340 340 339 336 330 328 328 326 324
315 320 331 337 346 349 354 354 350 344 346 346 323 312 304 299 299 300 303 341 338 338 343 344 344 342 341 339 337 337 336 335 336 335 334 334 334 332 329 328 325 317 319
315 317 320 333 342 345 346 347 341 341 342 337 336 337 324 319 335 332 330 337 339 342 344 343 341 339 336 335 334 333 332 332 333 333 333 332 333 331 328 327 327 325 323
314 316 328 333 335 341 343 345 341 341 340 337 335 328 312 341 337 335 332 334 339 339 339 338 335 334 333 332 330 332 330 331 331 330 328 328 328 327 327 324 323 321 319
316 319 327 327 329 334 337 336 336 333 330 328 327 326 310 331 329 327 326 326 329 331 333 329 320 317 318 318 323 324 318 316 319 321 322 322 323 323 323 322 318 316 316
319 323 321 320 322 322 328 331 332 331 329 327 328 327 327 324 323 322 319 316 313 313 314 312 309 306 303 301 301 305 306 304 305 311 312 313 314 316 318 318 316 314 314
318 317 314 311 313 315 317 318 317 315 322 322 322 320 320 319 317 311 308 305 302 302 302 301 299 297 296 295 295 294 293 295 298 300 306 306 305 307 309 308 306 311 312
304 303 304 305 304 302 304 307 308 309 309 310 311 311 314 314 311 307 304 301 298 296 295 294 293 294 294 294 293 291 286 289 295 293 299 300 299 298 296 296 296 297 301
298 298 300 299 299 300 300 298 299 300 299 300 301 302 302 302 305 302 301 299 296 295 295 295 295 295 294 292 290 288 286 287 291 289 300 297 296 295 296 295 297 296 295

GFSGL_sfc_thetae_063.txt.gz
Theta_e
341 341 341 340 344 341 338 340 342 344 346 346 350 349 347 348 349 348 345 345 346 344 344 345 344 344 344 343 344 344 340 334 330 334 335 342 342 341 346 347 349 347 346
341 341 340 339 340 343 341 338 339 340 342 344 347 349 348 349 348 348 347 348 344 344 345 344 345 348 345 344 343 343 341 340 337 334 336 340 342 346 346 347 349 352 351
342 341 340 339 338 339 342 342 338 338 340 346 348 349 348 349 349 348 347 347 347 347 347 345 345 346 345 345 344 344 344 345 341 339 342 342 344 344 346 346 346 347 350
342 343 341 340 339 339 340 342 342 337 338 340 349 350 350 349 350 350 349 347 346 347 347 347 348 347 345 344 345 346 345 344 343 341 339 339 341 345 344 343 345 344 345
340 341 342 343 342 340 339 340 341 341 339 338 343 350 350 351 351 349 350 349 348 346 347 348 349 349 346 344 347 345 345 343 342 341 340 340 341 342 343 342 341 341 342
340 339 342 343 344 342 339 338 339 340 341 338 339 342 349 352 341 339 347 349 348 347 346 346 348 347 345 339 338 340 346 345 342 342 342 342 342 342 341 340 338 337 337
342 342 342 343 343 344 343 339 338 339 339 340 341 343 343 348 336 335 339 349 347 348 348 347 347 352 345 349 341 336 335 335 339 348 345 345 343 342 340 339 339 339 339
342 343 344 344 342 344 345 342 340 339 339 337 338 341 345 347 334 331 335 347 349 348 349 349 348 348 348 348 349 348 347 346 342 341 345 350 349 349 344 345 344 342 345
336 340 346 346 346 344 344 344 344 341 340 339 338 338 341 344 330 329 332 345 347 347 348 349 351 350 340 332 347 345 346 347 341 330 332 332 329 328 333 343 341 340 341
336 335 336 343 348 347 346 345 346 345 343 343 340 338 335 343 327 326 330 348 347 347 349 347 333 344 331 327 343 346 345 347 346 344 342 335 328 335 327 340 345 344 342
337 335 335 336 337 348 349 348 347 346 346 345 345 343 341 343 345 322 322 348 348 347 347 347 348 327 323 322 323 349 346 347 343 342 342 343 345 347 348 341 344 347 343
342 334 334 334 339 342 343 348 347 346 344 344 344 345 346 344 330 325 321 325 339 348 347 347 346 323 319 319 321 326 324 325 339 340 340 342 342 345 348 349 352 347 350
332 334 339 342 337 338 341 344 347 348 346 345 344 344 345 348 348 324 319 320 324 344 351 343 329 320 316 319 319 323 321 330 336 333 337 340 343 347 346 347 353 354 354
326 330 332 334 340 348 348 346 346 347 347 346 345 344 345 347 349 350 338 329 323 329 338 343 337 330 327 332 330 326 330 332 334 336 339 342 341 342 344 347 349 349 346
321 325 327 332 339 346 348 346 347 349 346 347 347 347 345 344 346 339 341 347 345 338 339 345 347 338 342 339 338 339 333 330 332 335 336 337 339 341 344 347 348 346 344
317 322 324 327 331 339 346 344 310 316 314 315 316 336 347 330 323 315 312 313 315 313 335 346 344 346 346 345 344 342 340 334 335 337 337 339 340 344 345 342 344 344 341
312 316 320 322 327 333 342 347 343 323 304 306 305 309 311 328 308 309 308 309 309 312 346 347 346 346 345 345 345 344 344 343 342 342 342 344 343 344 338 339 338 333 329
311 311 316 319 323 330 338 347 350 345 343 341 314 312 308 307 305 307 307 311 321 316 347 349 346 345 345 345 345 345 346 347 346 345 345 345 343 341 334 335 334 330 327
309 313 317 320 323 328 335 342 351 348 347 345 332 312 308 303 302 301 305 345 343 339 338 346 348 346 347 347 347 347 347 346 347 345 343 342 339 335 332 330 328 319 320
310 313 315 316 318 326 331 339 348 349 347 346 342 341 320 320 331 330 323 333 344 345 344 342 345 345 345 346 342 342 340 337 339 337 331 330 330 329 328 326 326 324 324
310 312 314 316 318 327 332 339 347 346 344 345 343 334 314 335 342 345 338 336 338 337 339 341 337 335 335 335 334 334 334 333 331 329 328 328 327 326 326 326 325 327 324
312 312 314 316 322 330 333 340 343 343 343 340 331 322 307 335 335 331 330 329 329 328 330 327 321 322 324 327 330 329 328 326 326 325 324 323 325 325 324 323 322 322 321
310 314 316 320 322 321 331 336 338 340 336 333 332 328 329 327 324 321 317 315 315 314 314 314 312 306 309 307 309 315 317 316 317 319 317 315 317 319 321 319 318 316 316
305 309 313 310 309 311 315 317 320 316 329 330 330 327 322 317 311 307 306 305 303 303 304 300 300 300 300 299 299 300 303 303 303 307 309 309 310 309 314 313 312 312 312
300 301 301 303 302 301 302 303 304 304 307 313 314 312 308 303 301 300 298 298 296 299 297 296 295 294 293 294 293 293 288 289 299 297 304 304 302 300 298 298 299 303 303
297 296 296 298 298 299 297 297 299 299 301 302 303 305 301 299 297 296 296 295 295 293 293 293 292 293 293 291 289 287 285 287 293 291 299 300 301 298 296 296 296 295 295

GFSGL_sfc_thetae_066.txt.gz
Theta_e
342 342 342 341 340 340 341 344 346 349 349 351 353 352 352 352 353 352 351 350 349 349 350 351 351 352 350 350 351 351 348 342 341 346 343 351 354 356 358 359 360 360 359
341 342 341 342 344 341 340 341 344 346 349 351 351 352 352 352 351 352 351 352 349 349 350 349 350 351 351 352 350 351 350 349 346 345 347 351 353 357 356 358 357 358 358
342 341 341 340 341 343 343 341 342 343 344 346 349 350 352 352 352 352 352 352 352 351 351 350 351 351 352 352 352 351 351 351 349 347 350 352 352 353 356 358 358 359 356
341 341 340 340 340 341 343 344 341 342 343 343 347 349 352 352 353 353 352 352 352 352 353 352 353 352 352 353 351 352 353 352 352 350 348 348 350 355 353 352 353 355 353
341 341 341 341 341 341 341 343 344 342 342 343 344 349 352 352 351 353 353 352 351 351 353 353 353 352 346 348 354 354 353 351 351 349 349 349 350 351 352 354 350 350 353
339 340 343 344 343 341 341 341 342 344 343 341 342 345 348 351 341 339 349 352 353 352 351 352 354 348 346 339 337 339 350 354 353 351 351 349 353 352 353 351 349 349 348
339 341 342 344 344 344 343 341 340 341 343 342 341 342 345 348 334 335 338 353 352 352 352 353 351 352 348 354 342 335 336 334 339 355 352 353 354 357 354 352 350 348 349
339 342 342 342 343 344 345 342 340 340 340 341 342 342 342 344 331 331 335 350 352 351 352 352 352 353 353 353 353 354 355 355 350 346 350 355 358 359 356 356 353 352 353
338 340 345 344 343 343 344 344 343 341 340 341 341 342 342 344 327 327 332 347 348 350 352 353 353 353 340 332 353 353 353 354 342 331 333 333 331 329 338 351 348 348 349
338 339 340 342 346 344 343 345 346 346 343 342 342 341 336 343 326 324 329 346 344 346 350 352 334 347 331 326 349 352 350 352 354 355 352 341 332 340 326 344 350 349 351
341 340 338 338 339 348 348 347 347 347 347 344 343 344 341 339 341 321 321 346 345 344 346 348 352 326 323 320 324 352 349 351 348 352 353 352 352 353 355 346 349 353 353
335 336 337 338 337 341 344 349 348 346 345 345 345 345 345 343 327 321 319 323 338 346 345 348 348 323 318 317 320 326 323 325 349 350 350 349 350 352 353 355 357 354 358
331 331 331 335 340 340 339 340 347 348 346 345 345 344 346 349 345 322 318 318 323 343 349 341 329 320 317 320 318 321 320 336 343 344 344 346 349 352 354 354 356 359 358
326 327 330 330 331 336 343 340 340 346 346 346 345 345 346 347 349 349 337 329 322 329 336 343 338 332 329 335 334 329 334 340 342 343 344 347 350 349 349 352 351 355 354
321 323 327 329 330 332 339 344 345 343 343 347 348 348 346 346 347 338 339 344 342 336 339 347 348 348 347 347 344 345 343 340 339 341 343 345 346 348 349 350 353 355 352
317 319 322 326 327 330 331 336 320 317 310 310 317 337 349 331 318 313 311 310 312 310 335 344 344 345 345 346 346 349 347 339 343 345 343 345 345 346 348 351 352 351 349
312 314 317 318 322 325 328 330 333 335 310 306 304 305 311 328 309 310 307 305 309 312 345 345 345 346 345 346 348 348 349 348 348 346 346 346 346 348 344 350 348 348 348
311 309 313 315 318 323 327 329 334 337 343 344 314 312 306 304 303 305 303 306 327 315 346 347 348 348 348 347 347 347 350 351 348 347 347 349 347 346 347 347 348 347 346
308 310 312 313 317 320 325 327 329 331 337 346 344 314 308 300 303 301 301 344 343 344 338 346 350 352 349 347 348 350 350 350 349 348 348 349 349 349 348 347 343 322 329
307 309 310 312 314 317 321 325 327 331 335 344 349 347 322 317 323 325 322 333 346 348 349 345 347 350 350 349 349 349 349 347 347 348 348 345 340 337 335 333 335 336 334
307 308 310 311 312 315 319 324 326 329 333 342 346 346 317 338 342 342 340 336 340 347 350 351 347 348 350 349 349 347 346 345 344 340 336 335 335 333 333 334 335 335 334
306 308 309 309 312 315 318 324 327 329 333 339 345 343 305 338 344 345 346 345 343 342 345 346 343 344 344 344 343 341 338 335 333 333 332 332 334 334 335 334 333 331 329
308 308 308 309 311 313 316 321 328 329 332 338 344 336 323 333 330 322 315 312 309 308 309 312 314 311 310 313 322 332 332 330 332 331 331 331 331 331 332 330 326 324 323
305 306 306 310 313 313 316 321 324 319 328 336 336 331 329 319 311 306 302 301 301 300 300 298 298 297 298 299 299 300 301 309 316 321 325 324 323 319 324 323 322 321 319
299 299 301 301 302 301 302 304 306 308 312 316 314 309 305 303 300 298 298 298 297 296 296 296 296 297 299 299 297 295 290 290 299 297 309 314 314 314 315 314 314 315 315
297 296 296 296 296 298 298 297 299 301 303 304 301 299 298 297 296 295 295 294 294 294 294 295 295 296 296 295 293 291 289 291 294 292 301 301 301 301 302 302 302 302 303

GFSGL_sfc_thetae_069.txt.gz
Theta_e
349 352 351 350 351 353 353 355 358 360 361 360 361 361 362 362 363 362 361 360 359 359 359 359 360 362 355 356 359 358 356 354 347 351 357 360 365 365 364 367 366 366 359
350 352 350 352 351 350 351 353 357 358 360 361 362 362 362 362 362 362 360 358 358 358 358 359 357 357 361 362 358 361 358 360 353 353 358 357 361 366 367 367 363 360 364
347 347 349 349 350 350 351 352 353 356 358 358 361 361 362 361 362 362 362 361 360 359 358 359 359 360 360 358 361 359 358 359 359 356 353 358 359 361 363 364 365 367 361
346 344 347 346 349 351 355 354 352 355 355 356 358 360 362 362 362 362 362 362 361 361 360 360 360 360 361 362 360 361 361 358 359 357 354 354 356 362 361 357 355 358 360
347 347 347 350 350 347 349 356 354 353 354 356 355 356 358 357 356 361 362 361 361 360 361 361 361 358 349 352 357 361 362 359 355 353 352 352 352 352 354 357 355 357 361
342 346 351 353 354 353 353 352 356 354 354 355 353 354 354 352 339 340 353 360 361 360 359 361 362 352 350 339 338 340 350 360 359 354 351 351 356 357 357 356 356 354 348
342 342 348 351 352 353 352 353 353 353 355 353 353 354 355 357 334 335 340 357 359 361 361 361 359 357 354 361 343 336 337 335 340 360 356 355 357 359 362 360 360 358 354
344 342 346 349 350 353 352 352 352 352 353 353 352 355 355 354 332 330 335 356 359 360 361 362 361 361 360 359 360 359 359 360 358 354 358 360 363 365 365 363 363 362 360
337 344 347 349 349 350 350 353 352 350 350 352 352 353 353 354 328 326 334 352 353 360 361 361 362 361 347 334 357 358 359 359 343 336 336 336 335 331 340 359 355 351 347
329 339 343 347 346 351 351 352 353 353 351 350 349 352 344 354 331 323 330 347 349 349 358 362 336 352 334 327 354 357 355 356 357 357 360 347 336 349 327 354 357 351 349
326 338 339 341 346 346 348 355 353 353 353 353 351 352 353 350 351 322 320 349 348 349 347 348 350 328 325 321 326 360 357 356 350 357 356 357 359 360 361 357 360 357 351
323 333 334 337 340 344 348 347 354 355 354 353 353 351 352 354 333 326 319 322 339 350 351 351 351 324 319 319 322 331 325 329 353 350 349 352 353 354 357 360 366 364 362
322 330 330 333 337 340 345 347 346 347 351 352 350 349 351 354 354 322 317 318 321 344 352 345 329 318 316 321 319 323 321 347 350 348 347 349 352 355 361 361 363 365 365
316 325 328 328 331 336 338 342 344 344 346 348 350 349 351 354 355 356 346 336 322 329 336 346 341 335 331 339 340 331 343 351 350 349 348 350 354 355 354 356 354 356 357
312 320 324 325 328 332 335 337 343 348 344 345 349 351 350 351 352 341 343 352 349 340 341 349 350 350 350 351 352 353 354 352 350 351 351 351 352 354 354 357 356 356 353
313 316 320 321 324 328 332 332 318 315 313 312 313 326 350 332 321 312 311 311 311 312 341 349 349 349 348 348 349 352 353 349 353 352 351 352 351 352 353 356 357 355 353
314 317 318 317 320 322 327 331 329 327 311 308 305 307 307 322 310 309 308 308 308 313 347 349 349 350 349 349 351 352 351 353 359 352 351 351 352 352 351 354 355 355 353
311 310 315 316 317 319 322 328 331 330 332 335 315 311 306 305 305 304 304 306 330 316 349 350 351 350 350 352 352 351 352 354 355 354 352 352 352 352 352 353 354 354 353
308 309 312 313 314 316 318 321 328 329 330 331 336 326 317 302 305 307 305 343 347 349 341 348 352 354 354 356 355 355 355 350 349 353 353 353 354 355 354 354 354 332 340
306 308 309 311 313 315 316 317 321 325 328 330 332 337 347 322 329 325 323 331 348 353 355 351 352 355 354 355 355 355 356 349 349 350 351 352 352 353 352 353 352 340 337
304 306 308 311 312 313 313 314 319 324 327 329 332 335 317 336 341 339 338 337 346 353 356 357 356 355 357 358 356 354 352 352 350 349 350 351 351 348 349 345 341 342 343
305 305 306 306 309 310 313 315 317 320 327 330 331 331 309 332 346 351 346 343 346 352 356 359 358 356 354 354 355 354 351 350 350 348 347 343 341 341 339 338 342 343 341
305 305 306 307 308 309 311 313 315 317 322 330 333 333 338 332 342 346 335 324 318 317 317 321 330 325 316 315 315 326 347 347 344 342 340 338 338 339 341 343 341 339 339
303 304 305 306 308 309 311 313 315 312 319 327 333 335 337 333 322 313 310 308 306 305 304 307 305 307 303 304 305 304 305 314 326 336 337 339 342 336 341 339 338 337 336
299 300 301 303 304 306 308 307 309 311 313 316 323 325 312 307 303 301 301 300 300 299 299 300 301 299 300 301 299 299 295 293 308 308 331 333 330 328 332 330 324 324 324
297 297 297 297 298 300 301 301 302 302 305 304 303 302 300 298 297 296 296 296 296 296 296 297 296 296 295 294 293 290 289 294 298 295 310 311 308 305 304 302 302 302 305

GFSGL_sfc_thetae_072.txt.gz
Theta_e
357 358 357 357 358 360 359 360 360 360 361 363 364 364 363 361 364 366 363 360 362 360 359 358 361 363 354 353 355 354 353 352 345 348 356 362 367 367 366 368 363 362 356
355 357 356 357 358 356 358 359 360 360 361 363 367 364 364 363 365 364 360 358 359 358 359 360 358 355 362 362 355 360 357 358 351 353 359 356 362 367 366 368 362 359 362
353 354 354 354 355 356 356 358 359 359 360 360 362 364 364 364 365 365 363 360 361 360 361 360 360 360 359 355 359 355 355 356 357 354 352 355 357 361 362 367 364 365 358
351 352 353 353 354 355 357 358 358 359 359 359 361 362 363 360 363 364 364 362 361 361 363 362 361 360 361 363 361 363 361 358 359 354 352 351 353 360 360 354 351 354 356
349 351 352 355 356 356 357 359 359 359 359 359 359 360 361 361 356 361 364 364 363 362 364 364 363 357 350 353 359 365 367 359 353 350 350 351 351 351 356 352 351 352 359
347 348 351 356 357 357 358 356 359 359 359 359 358 356 356 354 341 340 354 362 363 363 361 364 365 354 352 342 341 341 350 361 359 354 351 351 362 358 355 351 351 348 346
333 347 350 351 354 357 358 358 357 356 359 361 358 358 358 359 335 333 341 356 358 360 362 361 361 358 356 362 343 338 338 336 339 359 358 358 360 361 363 360 363 356 353
328 336 345 349 351 354 358 356 358 358 357 359 360 362 362 360 334 330 335 356 358 361 361 362 364 364 362 361 361 359 360 361 359 356 358 359 363 364 367 366 366 365 360
321 327 336 338 349 351 352 356 356 356 357 356 357 360 362 363 329 328 335 353 353 359 362 365 366 365 348 334 360 359 360 360 343 336 337 336 332 332 341 357 350 347 343
315 320 327 339 339 344 352 357 362 359 357 356 356 358 348 360 333 324 333 350 352 349 358 364 339 354 336 328 361 361 358 358 355 355 359 351 342 353 332 357 356 347 343
317 318 323 332 337 336 344 356 356 360 361 359 356 359 359 356 356 322 321 351 349 349 348 347 348 329 327 322 328 364 358 355 348 354 352 352 354 357 361 362 363 357 347
320 316 317 322 332 331 340 339 351 359 359 358 361 357 357 360 336 328 319 322 340 352 353 351 354 323 319 321 325 332 325 330 349 342 342 342 343 346 350 356 371 369 364
318 320 317 321 327 333 336 339 337 349 351 357 359 353 353 356 360 326 319 318 321 342 353 346 327 318 313 320 321 326 324 349 347 341 341 341 343 345 359 364 370 378 373
316 318 320 316 320 328 329 332 335 335 343 346 350 355 358 355 357 359 353 341 323 331 336 344 342 335 327 337 342 333 346 350 348 346 343 344 346 345 345 350 352 353 354
314 315 318 320 321 324 328 329 333 336 334 343 349 353 353 352 353 341 343 359 358 344 344 352 352 351 352 352 352 352 353 352 349 350 350 348 347 345 344 349 350 351 349
311 313 315 318 320 322 323 325 317 315 314 311 309 318 346 329 315 315 311 313 314 315 345 349 351 353 352 353 352 351 352 348 353 353 352 351 348 346 345 347 349 349 348
306 310 313 313 320 321 322 322 322 324 309 307 306 306 307 317 313 305 303 306 306 312 347 351 352 353 354 355 355 354 352 353 360 353 352 351 349 349 345 347 347 349 352
306 305 309 312 314 317 320 321 322 324 326 330 315 311 308 303 305 303 305 312 337 319 347 348 351 355 356 358 356 357 356 357 356 356 355 353 352 350 348 348 349 351 351
306 306 307 311 314 314 317 318 319 321 324 328 332 323 315 303 300 298 303 332 347 348 348 349 350 354 356 357 358 359 361 359 358 358 357 356 355 353 351 351 350 332 340
303 305 307 309 310 312 315 317 319 319 321 324 327 330 333 330 340 344 326 327 343 351 353 353 354 355 357 360 361 361 360 359 357 357 358 358 356 357 356 356 355 353 354
302 304 305 306 310 310 312 314 317 318 318 322 325 328 312 333 338 341 348 340 343 350 354 357 358 358 359 360 361 360 360 360 357 357 357 357 356 352 352 352 352 353 354
302 303 305 305 306 308 309 311 312 316 319 320 324 326 308 332 333 335 341 350 350 348 348 356 359 358 361 362 360 361 363 359 358 356 355 355 354 352 352 350 350 348 348
301 302 304 305 305 306 308 309 310 312 316 320 324 326 328 332 334 337 340 346 339 335 329 324 332 344 335 332 328 335 346 356 359 357 352 352 349 348 345 343 343 342 343
301 302 302 304 305 306 307 307 309 307 313 319 322 325 327 330 332 339 333 319 314 310 309 310 310 312 311 310 308 310 311 312 318 338 348 345 343 335 342 341 341 342 344
296 298 299 300 301 302 304 306 308 310 313 316 318 322 327 327 322 312 310 308 305 304 302 302 303 303 301 300 300 303 298 298 312 308 332 334 335 334 336 338 339 334 337
292 294 296 297 297 298 300 302 304 307 309 312 316 319 319 315 307 305 303 302 301 299 299 299 299 299 299 299 299 293 289 296 302 295 313 313 311 312 313 315 317 312 309

GFSGL_sfc_thetae_075.txt.gz
Theta_e
358 360 360 360 361 362 359 360 362 360 362 361 368 363 362 361 362 366 367 362 360 362 364 359 363 370 355 351 350 350 350 350 344 347 352 364 368 371 368 371 365 368 360
357 361 359 360 361 359 360 361 364 365 361 362 364 363 363 362 364 364 360 357 359 358 359 364 357 355 368 368 355 371 359 364 351 362 359 352 366 372 374 376 363 358 361
355 355 357 357 359 359 360 361 365 365 364 358 362 364 361 361 365 366 365 361 360 359 359 360 360 363 365 359 363 356 354 356 357 352 353 354 355 358 363 370 373 371 362
350 353 355 357 358 358 362 365 361 366 364 363 364 366 364 360 361 362 364 364 363 361 362 362 362 362 365 367 361 368 362 360 358 351 349 350 352 364 358 354 352 353 353
344 349 354 357 360 358 361 365 364 365 365 365 364 364 364 360 355 364 364 363 364 363 364 363 365 360 351 356 357 365 368 361 352 349 347 348 349 351 358 356 352 353 361
334 343 353 355 358 361 362 362 365 365 367 367 363 363 363 354 342 339 354 363 366 367 366 368 369 355 352 342 342 342 350 362 367 354 351 351 366 360 354 352 351 347 344
328 331 338 347 354 355 360 361 362 362 365 367 365 363 364 365 338 334 340 357 362 367 367 369 362 355 357 364 344 340 342 337 339 360 361 361 361 366 367 366 361 359 353
323 322 327 332 342 349 356 357 360 360 360 363 363 367 367 364 336 331 335 361 361 363 365 368 368 367 367 365 365 362 361 362 361 355 358 361 365 368 369 365 368 369 363
320 321 323 326 333 339 340 352 362 360 358 358 361 365 367 367 332 329 334 354 354 360 364 364 366 368 351 337 362 365 365 366 344 339 342 341 340 335 342 357 351 347 343
320 322 323 323 328 338 339 337 349 360 358 357 358 362 353 365 339 326 332 354 354 354 359 362 340 352 337 331 362 363 361 363 365 359 359 349 340 351 333 355 356 350 346
324 324 325 326 325 329 338 339 341 348 357 358 356 361 365 361 363 325 322 356 355 353 352 353 354 331 327 324 325 364 360 363 358 360 357 354 353 359 361 363 365 359 351
322 322 324 325 326 322 331 338 338 342 344 354 359 359 363 364 340 330 321 323 345 355 355 353 355 324 320 322 327 334 328 333 358 354 349 345 345 347 348 352 368 369 364
320 320 321 323 324 327 325 332 331 341 338 340 350 352 355 363 359 329 321 320 323 345 357 348 323 319 314 318 318 324 324 348 352 352 350 348 346 346 352 355 360 377 374
315 316 318 319 320 323 324 322 324 326 331 333 341 350 354 359 363 359 357 340 325 333 339 348 343 335 325 334 341 333 342 351 351 351 351 352 350 346 345 349 346 347 349
312 312 314 316 318 322 326 324 323 327 326 331 335 340 341 341 351 329 324 342 357 346 346 354 352 351 352 354 356 358 359 355 352 353 353 351 349 349 347 349 347 347 347
309 309 311 312 315 317 320 323 313 311 309 306 306 316 332 319 313 314 311 312 309 310 343 351 351 353 354 354 356 357 359 352 357 356 354 353 351 351 351 352 350 347 347
304 307 308 308 311 314 316 319 321 321 306 305 303 305 306 311 307 303 302 308 312 318 343 352 352 353 354 357 356 356 356 357 360 356 356 357 356 354 351 351 351 349 348
303 304 306 306 308 310 313 316 318 320 321 323 314 307 306 302 302 300 299 306 333 329 343 348 352 355 357 358 357 357 358 358 358 359 359 357 356 355 353 352 351 350 349
302 304 304 306 308 308 311 314 317 317 320 321 323 318 317 302 300 299 299 332 340 342 348 351 352 355 356 359 361 362 363 360 361 359 358 357 356 355 355 354 352 332 338
301 303 304 304 304 305 309 311 313 316 317 319 320 321 325 326 332 336 332 336 341 344 344 353 354 354 355 360 361 361 361 362 364 362 360 362 365 362 357 357 354 350 354
301 301 303 303 304 305 307 308 311 313 315 319 320 321 307 322 327 333 336 335 340 345 347 352 361 361 359 363 361 361 360 360 361 361 361 360 362 359 360 360 360 358 357
300 301 301 301 302 303 305 307 307 311 313 316 318 321 305 321 324 330 334 337 338 345 349 352 355 362 360 362 361 361 360 359 361 363 362 361 357 359 359 358 356 353 354
301 300 300 300 302 302 304 305 305 306 309 312 315 317 321 322 323 329 333 337 339 339 339 343 348 348 338 338 335 342 355 357 358 361 361 360 357 355 354 351 350 349 348
299 297 297 297 299 301 303 304 305 303 306 309 313 315 318 323 323 326 329 335 339 326 317 316 316 316 318 323 323 320 317 316 316 323 330 342 353 345 349 348 347 345 344
295 293 293 294 296 297 298 300 301 302 306 309 310 312 316 320 324 326 330 330 324 321 313 309 307 306 306 306 307 310 302 294 306 306 321 329 337 339 340 340 341 341 341
293 294 293 292 292 293 294 296 297 299 300 305 308 310 312 315 320 322 325 320 316 311 307 304 303 302 302 302 299 294 290 293 306 295 322 320 316 313 314 314 311 311 314

GFSGL_sfc_thetae_078.txt.gz
Theta_e
361 361 361 362 363 365 364 368 367 369 351 346 338 340 355 363 366 365 361 357 359 360 365 361 360 363 355 360 357 357 355 356 350 352 357 370 367 367 364 368 369 365 361
360 362 361 363 363 363 363 364 369 367 368 354 344 344 356 362 362 363 359 360 357 359 361 359 360 358 362 363 360 358 360 360 356 351 356 355 355 360 370 367 367 360 360
350 359 360 360 362 362 364 364 366 367 367 364 365 366 366 362 365 361 363 362 359 359 363 362 360 362 361 359 363 361 357 359 359 354 351 358 360 360 361 366 367 366 366
341 346 352 359 359 360 364 364 364 367 365 364 365 365 364 364 364 363 362 363 362 361 362 364 363 361 361 362 360 361 358 359 356 356 352 350 352 355 362 357 357 356 354
335 341 342 343 360 368 367 365 366 364 364 365 364 363 364 361 358 361 363 362 359 358 360 362 363 363 354 357 358 360 359 358 355 351 349 350 350 357 357 359 354 356 356
329 333 336 345 351 355 362 363 367 364 365 364 363 362 360 359 344 340 356 361 362 361 358 362 365 357 351 342 341 342 352 359 357 355 354 351 352 357 358 356 353 348 342
323 325 329 335 340 345 355 361 364 363 365 363 362 362 361 361 340 333 338 357 361 362 362 360 360 356 354 358 342 339 340 337 342 352 350 352 353 355 358 357 355 355 353
326 324 325 326 331 340 346 343 349 362 362 362 361 363 363 362 339 334 334 353 358 358 360 362 361 360 361 362 362 359 354 355 352 347 348 349 352 354 358 357 355 356 359
325 327 326 324 323 329 339 341 343 348 356 358 359 361 361 362 335 330 335 351 352 355 358 359 358 363 348 338 356 358 361 361 347 338 341 339 338 336 342 356 351 347 343
324 326 328 329 327 326 327 337 341 345 347 354 356 359 349 360 339 329 331 353 352 351 352 355 339 347 335 329 352 356 353 354 360 360 351 342 336 343 332 347 353 348 346
323 324 326 327 327 330 332 330 337 338 342 347 347 356 357 355 358 327 324 356 355 353 352 352 353 331 325 324 324 356 354 354 352 356 356 355 354 356 357 354 354 352 348
322 322 324 325 324 323 327 330 330 333 335 340 343 348 354 358 339 335 322 323 344 355 354 354 354 326 321 323 325 330 328 333 355 353 353 351 350 349 348 348 358 358 357
318 318 319 321 322 324 325 328 327 328 332 333 336 336 343 353 356 330 324 321 322 341 357 349 333 323 318 317 318 321 320 341 346 346 346 348 350 351 349 346 346 361 363
315 315 316 316 316 318 320 322 322 324 322 325 329 334 343 352 355 358 358 349 328 331 334 346 342 335 329 334 335 329 332 343 344 345 345 348 351 351 349 347 341 339 339
311 311 312 313 314 316 319 320 321 325 324 325 325 327 327 329 344 330 328 337 336 335 329 350 350 351 349 349 350 351 351 346 344 347 347 348 350 350 349 348 343 340 340
305 306 307 308 310 311 312 314 312 309 306 304 303 310 323 314 310 308 307 305 311 310 335 345 347 351 352 352 350 349 351 349 354 351 350 349 348 348 348 349 347 343 341
303 304 304 305 306 308 309 309 310 314 309 304 301 302 302 306 304 301 300 301 303 309 332 339 345 350 352 353 354 354 353 354 356 354 354 353 351 350 346 346 345 346 347
302 302 302 304 305 306 308 309 311 312 314 317 313 306 304 300 299 299 297 302 323 315 333 336 340 345 348 351 353 353 355 357 357 354 354 352 352 352 352 350 349 348 346
301 301 301 302 304 304 305 306 307 308 310 312 318 315 314 304 302 297 297 322 330 332 336 340 343 345 347 350 353 356 355 354 356 357 358 355 356 352 348 347 347 330 335
302 303 303 302 302 303 303 304 306 306 308 312 313 316 320 319 321 324 325 328 332 335 335 336 339 341 350 351 352 356 357 355 354 357 359 357 361 357 352 352 352 349 347
301 301 301 300 300 301 302 303 304 305 307 308 311 314 304 313 320 322 325 326 332 340 342 344 346 349 355 355 355 356 355 355 356 354 356 357 358 355 355 356 353 353 350
301 301 300 300 300 300 300 301 303 303 305 306 308 310 303 313 317 320 323 324 326 331 336 345 345 347 349 355 355 354 350 351 352 353 356 356 356 355 356 355 356 354 352
297 297 297 297 297 297 297 299 301 302 303 304 306 308 309 311 315 317 319 324 324 325 328 332 342 348 341 338 338 336 334 339 338 337 340 346 350 354 355 353 353 352 351
297 295 294 294 294 294 294 295 298 298 300 302 305 306 307 309 312 314 316 319 324 324 328 333 328 328 324 323 323 319 322 321 318 324 329 334 338 340 351 350 352 350 349
297 295 294 293 293 292 291 292 293 295 297 299 301 303 304 308 309 311 313 318 323 327 330 324 317 315 314 313 313 311 305 296 302 304 320 326 329 335 340 345 345 345 343
298 296 294 292 291 292 291 290 291 292 293 294 297 299 300 301 305 309 311 313 318 320 319 316 314 309 308 306 305 296 288 288 297 292 309 323 327 326 324 323 320 317 316

GFSGL_sfc_thetae_081.txt.gz
Theta_e
352 352 352 353 354 352 352 352 349 347 343 343 342 339 344 350 352 350 349 349 347 346 349 349 348 351 347 349 350 347 347 346 341 344 348 355 349 351 356 357 359 358 356
341 347 352 354 354 353 352 352 353 349 347 343 342 338 341 348 351 351 349 349 349 347 347 349 345 353 349 351 347 346 346 345 342 336 342 342 344 346 350 358 357 362 356
338 341 345 349 353 351 353 354 355 350 345 340 338 340 347 348 351 352 352 352 350 349 348 348 349 348 348 347 345 348 347 352 349 345 344 346 349 346 345 350 356 356 358
337 335 339 339 341 346 353 356 356 356 353 352 352 352 352 353 351 353 352 350 351 351 351 352 351 348 348 347 346 346 348 345 347 344 342 342 341 345 348 348 346 347 347
332 332 335 341 337 339 343 350 354 356 356 355 353 354 354 354 356 353 352 350 350 349 351 352 353 354 352 351 350 347 349 346 345 344 342 342 344 346 347 350 345 347 344
323 325 330 334 340 343 344 346 349 351 354 356 352 354 352 356 344 341 350 353 352 349 347 349 352 351 350 344 343 345 350 349 345 345 344 345 344 347 348 346 347 342 339
322 322 324 328 329 335 341 340 338 347 350 352 354 354 351 353 339 335 338 352 354 352 350 350 351 354 349 353 341 338 338 338 342 344 342 342 341 342 343 340 341 343 343
322 323 324 325 324 327 335 336 335 340 344 350 350 352 353 355 338 336 336 339 343 351 355 355 353 350 349 351 352 348 344 345 342 341 344 345 343 343 344 344 345 345 348
320 322 325 326 325 324 325 327 335 337 339 343 350 350 350 350 336 329 332 341 343 344 350 351 353 352 343 336 348 350 352 352 343 334 336 335 334 332 337 348 345 341 341
317 319 321 322 321 321 325 326 327 334 335 337 342 344 344 350 337 327 330 344 340 346 345 347 336 345 334 331 346 348 345 348 351 354 343 340 334 338 331 340 345 339 341
315 316 317 319 319 318 319 321 324 324 328 333 335 339 344 348 350 330 323 343 349 345 348 348 347 329 323 323 323 347 346 349 347 349 350 351 350 347 347 343 345 346 344
312 313 314 314 315 316 316 318 320 323 323 324 329 333 338 344 333 333 324 321 337 347 349 351 350 327 320 319 322 327 324 328 345 348 348 348 348 348 349 350 352 350 351
308 309 309 311 312 312 310 311 313 314 318 318 319 321 329 334 342 327 321 321 318 326 337 340 324 319 319 318 317 320 320 332 336 339 341 343 346 349 349 344 343 342 351
303 304 305 305 306 307 309 311 312 313 315 317 318 320 323 323 336 339 340 339 324 329 329 333 333 330 328 334 334 330 327 331 335 337 339 342 344 343 345 347 345 345 341
301 301 301 302 302 304 305 307 308 309 309 308 309 312 313 316 319 324 324 330 330 329 325 331 340 344 343 346 347 348 348 338 335 338 339 340 340 342 343 345 345 344 337
299 299 300 300 300 301 302 303 305 304 303 301 300 302 310 308 306 304 302 301 302 306 321 328 333 341 345 346 346 346 347 343 343 343 341 342 341 342 343 345 346 343 340
296 297 298 299 299 300 301 301 301 304 304 302 300 301 302 300 300 298 298 299 300 307 319 321 326 332 341 347 348 348 347 347 347 347 346 345 345 345 342 344 344 343 341
299 302 299 298 298 298 299 300 300 300 300 302 303 302 303 300 300 299 298 297 307 306 314 321 325 330 334 339 344 347 349 349 349 349 348 349 348 347 345 345 344 343 341
298 298 298 299 301 300 300 300 300 300 300 301 303 303 305 301 301 299 295 306 313 317 322 322 327 332 333 335 341 345 348 349 348 348 349 349 350 348 347 347 346 331 334
296 301 300 297 298 298 298 299 299 299 299 300 301 302 306 306 308 308 310 313 316 319 323 326 328 330 332 336 343 344 344 346 348 349 349 348 348 348 346 345 343 342 339
295 295 300 296 297 297 299 299 299 299 299 300 301 302 300 303 303 304 307 310 313 318 321 325 333 336 339 340 342 344 344 346 347 348 349 349 347 347 347 348 345 344 343
293 293 293 293 294 293 294 294 294 296 297 298 300 302 299 302 303 304 306 310 314 315 317 320 321 324 334 339 342 343 341 341 343 342 342 344 345 344 344 343 343 342 341
293 293 293 292 292 293 292 294 293 294 294 295 298 299 301 303 304 304 305 307 309 310 313 315 319 321 327 329 331 334 333 332 332 329 330 335 339 340 341 340 340 340 340
294 293 292 293 294 293 291 292 292 292 292 293 294 295 297 300 301 302 306 307 308 311 313 315 316 318 317 320 318 317 315 317 315 317 322 325 330 332 336 336 337 338 338
297 295 293 292 292 292 291 290 290 291 291 291 291 292 293 295 297 299 302 306 308 309 310 314 315 313 311 310 309 309 303 293 299 300 311 319 323 328 334 339 341 341 341
296 295 293 292 291 292 291 290 289 290 290 290 290 290 291 292 294 296 299 301 302 304 308 311 313 312 310 308 306 300 289 288 294 289 300 311 316 320 325 328 332 333 334

GFSGL_sfc_thetae_084.txt.gz
Theta_e
341 341 347 349 348 347 347 347 348 346 347 346 344 343 344 346 350 349 346 346 345 343 342 346 344 347 345 346 345 343 343 342 335 339 346 347 345 343 346 349 354 355 354
340 341 343 345 347 348 348 348 347 345 344 343 340 338 338 343 347 348 346 348 346 344 345 343 345 347 345 347 345 344 344 344 340 337 339 341 343 345 347 345 351 358 356
337 338 341 340 345 345 346 348 349 346 345 343 340 338 337 340 344 349 348 347 346 347 345 344 345 343 342 344 343 342 343 347 345 343 341 344 345 341 344 346 347 351 351
336 337 337 337 336 338 343 345 347 346 345 342 339 338 339 341 346 349 349 347 349 349 347 347 347 346 344 343 344 342 342 342 341 341 340 339 340 343 346 347 343 345 346
333 334 335 338 338 341 340 338 339 345 350 344 344 345 345 348 350 348 350 347 346 346 349 350 350 350 346 344 347 344 343 342 341 341 340 340 342 343 343 346 342 343 342
324 325 329 332 334 336 340 339 339 340 346 349 348 349 350 355 342 341 348 348 345 346 345 346 348 347 346 342 340 341 344 343 342 341 339 339 340 343 345 344 340 336 332
322 323 324 324 325 326 333 337 335 337 341 345 347 348 348 349 339 336 338 346 348 348 348 347 346 350 346 349 343 337 336 336 340 344 341 340 339 341 340 336 336 336 336
322 324 324 323 324 326 327 327 330 336 337 339 343 345 346 350 334 331 333 339 343 349 351 350 348 348 348 347 346 346 346 343 341 341 344 346 344 345 339 338 335 338 341
317 319 320 322 321 322 324 325 327 330 329 332 335 340 341 345 331 326 330 340 340 340 344 349 352 352 341 331 344 347 348 350 342 330 332 332 331 330 335 339 338 338 337
312 314 316 317 317 317 318 320 324 326 328 330 331 334 332 339 331 326 328 340 341 342 344 344 334 343 332 329 341 345 343 346 347 350 348 334 331 335 327 339 342 337 336
310 311 312 313 313 313 314 315 317 320 323 326 328 332 334 334 336 325 323 338 345 346 340 346 347 328 321 321 324 348 347 347 344 345 348 349 348 346 346 341 342 344 341
306 306 307 308 310 311 310 310 312 312 313 316 319 322 329 334 326 326 321 318 329 342 346 349 348 323 315 314 318 323 322 324 339 342 342 344 346 348 349 350 347 345 348
301 301 302 304 304 305 305 307 308 309 309 310 311 311 314 320 324 324 317 319 321 330 337 333 322 316 314 321 321 319 319 329 332 333 336 339 343 346 348 346 349 350 349
298 298 299 299 300 300 303 305 305 306 306 305 305 305 307 310 313 320 318 322 325 325 327 331 328 325 321 327 329 335 331 333 336 339 341 342 343 342 342 344 343 344 342
297 297 296 297 296 297 299 300 302 303 303 303 304 305 305 306 309 305 303 307 311 316 309 320 324 327 329 334 341 343 344 342 335 338 340 341 341 341 340 341 342 342 340
295 295 295 295 295 296 296 298 301 301 300 299 298 299 304 303 301 299 297 298 298 300 309 315 318 323 326 328 333 340 345 343 346 344 342 342 341 341 339 340 340 340 339
294 295 295 296 295 295 295 295 296 299 300 298 297 298 298 298 298 296 296 297 298 302 309 313 317 319 321 323 329 336 342 346 348 344 343 343 342 341 339 340 341 341 340
295 300 295 295 295 295 295 297 297 297 296 297 299 299 298 297 297 296 297 297 307 304 305 310 313 316 319 323 327 329 333 340 344 347 346 346 346 344 342 342 341 340 340
294 294 294 294 294 296 296 296 297 296 296 297 298 298 299 298 297 297 295 302 305 308 311 314 316 318 321 324 327 331 334 336 338 342 345 346 346 345 344 344 343 327 332
293 299 298 293 294 295 295 296 296 296 296 296 297 297 299 300 299 300 301 302 303 305 307 310 315 322 325 327 329 333 334 337 340 342 344 345 344 344 343 344 342 337 338
293 292 297 291 291 291 292 292 292 292 292 292 293 295 296 296 297 299 301 301 302 305 306 310 313 314 317 322 330 333 336 338 341 343 341 344 345 343 344 344 343 343 343
292 291 291 290 290 290 291 293 291 291 292 292 292 294 294 295 297 298 300 303 303 304 305 307 308 309 310 313 318 322 323 326 334 340 338 336 338 341 341 338 337 338 339
292 292 291 290 290 292 290 292 292 291 291 292 292 291 293 293 294 295 297 299 302 304 306 306 307 308 310 314 320 323 322 322 322 323 325 328 330 332 336 336 335 333 332
293 292 292 291 290 289 289 290 292 291 291 291 291 291 291 292 292 292 293 295 297 299 301 306 306 306 308 311 315 316 313 312 310 311 313 315 319 322 327 332 332 332 331
293 292 292 291 290 289 289 290 291 289 290 290 290 290 290 290 291 291 291 293 294 295 298 301 302 306 308 310 313 311 305 296 300 298 304 309 312 316 320 326 331 335 334
293 293 292 291 290 289 288 289 290 288 288 289 289 289 289 289 289 290 290 290 292 293 295 297 299 301 303 306 311 304 293 289 295 289 298 304 307 311 315 318 321 325 329

GFSGL_sfc_thetae_087.txt.gz
Theta_e
343 343 344 344 344 343 343 342 340 341 344 348 346 346 347 346 347 346 345 344 342 341 340 342 343 343 344 347 346 341 341 339 333 337 344 344 344 343 345 346 348 349 352
339 340 342 344 345 344 344 345 345 346 344 343 344 342 342 342 345 346 346 347 344 342 342 341 341 346 342 344 345 344 342 342 340 336 339 341 342 344 344 344 349 353 349
338 338 338 336 339 342 344 346 347 345 343 342 342 339 338 337 342 345 346 345 344 344 343 342 342 342 340 339 342 340 340 343 342 340 339 341 343 340 343 347 346 346 348
338 338 336 336 336 337 337 338 341 345 345 342 341 340 337 337 339 344 346 345 345 346 347 344 341 343 342 342 341 341 340 340 339 339 337 338 339 343 345 344 343 342 344
336 336 335 337 337 339 339 338 338 339 343 347 343 340 339 339 342 341 345 347 344 344 346 347 347 346 345 343 344 342 341 339 339 337 337 337 338 338 338 342 341 341 340
327 329 332 333 332 333 338 337 336 337 339 339 344 345 344 348 338 337 344 346 347 344 343 344 345 345 344 339 337 338 343 342 339 338 338 336 336 338 340 340 337 333 328
322 324 325 326 325 325 327 328 333 334 334 335 338 343 345 346 335 332 338 346 347 346 345 345 346 349 343 346 341 336 335 334 336 344 341 340 339 340 339 335 333 332 331
320 321 323 324 324 325 326 325 326 328 328 329 330 333 338 343 330 327 331 338 341 342 346 347 346 346 345 345 345 344 344 345 341 339 343 347 345 346 341 339 335 332 335
313 314 316 317 317 317 317 319 322 323 325 327 330 331 332 333 327 324 328 338 340 341 341 343 348 348 339 331 340 343 345 346 341 329 332 331 329 328 333 337 335 333 338
309 310 312 312 314 314 313 315 317 319 323 326 327 329 328 331 326 322 324 337 339 340 343 343 331 337 330 326 339 344 343 344 346 346 345 335 329 334 327 336 342 337 339
306 306 306 307 308 309 311 311 312 313 315 317 321 325 326 327 329 317 316 331 337 340 342 343 345 329 318 316 316 339 342 341 343 343 345 346 346 345 345 337 340 341 342
302 302 302 302 304 304 304 307 309 309 309 310 309 313 317 314 314 314 311 311 317 331 337 342 340 322 314 313 316 319 317 321 331 336 339 340 341 343 346 347 346 344 347
299 298 298 299 300 300 300 302 304 305 305 304 305 305 307 314 312 312 309 308 311 316 328 324 317 313 311 316 320 320 318 330 330 334 337 338 340 343 344 344 345 348 346
297 296 297 296 296 296 299 300 300 301 302 302 303 302 303 305 306 308 307 305 308 309 311 311 313 316 316 319 321 328 333 334 335 337 339 342 344 343 341 342 341 342 340
295 295 295 295 294 295 296 297 298 299 299 299 300 300 300 301 303 302 299 301 302 303 301 308 314 315 316 319 323 330 337 339 337 337 338 340 342 343 342 343 340 340 338
293 294 294 293 293 294 294 294 299 299 299 297 296 297 301 300 299 297 295 296 297 298 301 307 310 312 316 318 320 322 325 330 337 342 341 340 341 342 342 342 340 338 336
292 292 293 294 293 293 293 293 293 296 299 298 296 296 297 297 296 295 295 295 298 300 305 306 308 310 313 314 316 319 321 326 334 340 342 344 344 343 339 340 340 339 337
292 298 292 292 292 293 293 293 294 293 294 295 297 296 296 295 295 295 295 296 300 301 304 305 308 311 313 314 316 318 321 324 327 331 336 341 343 344 343 342 341 340 339
292 292 292 291 292 293 292 293 293 293 292 292 293 295 296 295 294 294 296 297 299 300 301 302 305 307 309 314 319 321 323 326 328 330 332 335 339 342 342 343 343 326 331
292 298 294 290 290 290 290 290 290 289 289 290 291 291 293 293 291 292 295 297 298 300 301 302 304 305 308 311 313 316 318 321 326 331 335 337 339 341 341 342 343 342 342
292 291 296 290 289 289 289 289 289 290 289 290 290 292 294 292 291 292 293 295 296 298 300 302 302 303 304 306 309 308 309 312 316 323 323 324 335 337 338 338 340 339 340
292 290 290 290 290 289 289 289 289 289 289 289 290 291 292 291 292 292 292 293 293 295 297 298 300 303 305 305 306 306 307 309 318 322 322 323 329 334 336 337 337 338 338
292 291 290 290 290 292 289 289 288 288 289 289 290 290 290 290 290 290 291 292 292 292 293 294 295 298 300 303 306 308 309 309 312 316 315 316 318 321 326 329 331 333 334
292 291 291 290 290 289 288 288 288 290 289 289 289 289 289 290 290 290 291 291 291 291 292 292 292 293 295 298 301 303 308 311 314 313 312 311 312 313 317 320 323 326 329
292 291 291 290 290 290 289 288 287 289 289 289 288 288 288 288 288 289 290 290 290 290 290 290 291 292 293 294 296 299 300 294 301 303 308 307 308 310 312 314 316 318 321
293 292 291 290 289 289 288 287 287 287 288 289 289 289 288 288 288 288 288 289 289 289 290 290 290 291 292 293 294 294 292 291 296 292 300 304 305 306 308 310 312 313 315

GFSGL_sfc_thetae_090.txt.gz
Theta_e
343 344 345 345 346 347 345 345 345 345 345 346 348 350 351 349 351 349 350 349 348 347 347 348 349 351 350 352 352 348 349 347 344 347 350 354 356 356 357 359 359 360 358
341 342 344 347 347 348 345 347 349 347 347 346 348 349 349 350 350 351 350 351 348 347 347 347 347 347 350 352 352 351 350 350 348 346 349 350 353 355 355 356 356 355 356
339 338 337 337 340 341 344 347 348 349 348 346 346 345 344 344 346 349 350 348 349 347 349 348 348 348 348 348 347 348 347 348 350 347 346 349 351 350 353 357 358 359 356
338 338 337 338 339 339 339 340 341 346 348 347 346 345 345 343 342 344 348 349 349 348 348 350 349 348 349 350 348 348 347 347 347 346 345 346 347 352 352 350 350 354 353
338 339 337 337 338 340 340 340 340 341 342 346 348 346 345 343 342 343 346 349 350 350 350 351 351 349 344 345 351 352 349 347 347 346 345 346 347 347 347 350 349 349 350
330 332 335 333 331 333 336 337 337 338 339 342 342 346 347 349 337 334 343 349 351 350 350 351 351 345 345 338 337 338 347 351 350 347 347 346 349 349 349 349 348 344 341
325 326 327 327 326 327 328 329 332 331 333 333 334 336 339 343 329 328 333 343 349 351 352 351 351 352 348 351 339 334 335 334 340 353 349 350 350 353 352 350 347 344 343
317 318 320 321 321 324 324 323 325 327 329 330 331 333 335 336 327 324 328 339 343 347 350 351 351 352 352 351 351 351 352 352 349 344 348 351 354 355 353 354 352 347 345
311 312 314 317 315 316 316 318 320 321 325 325 329 330 332 332 314 315 323 337 343 344 347 347 348 350 339 330 347 348 350 351 342 329 332 332 330 328 337 348 345 344 344
307 308 310 311 312 312 313 315 317 318 321 325 326 325 321 324 312 311 318 326 331 339 346 348 333 337 327 322 340 346 345 349 350 352 353 343 333 340 326 341 348 344 344
305 305 305 306 307 307 311 311 312 314 314 315 316 318 319 315 314 310 309 312 313 324 334 338 340 320 316 315 315 337 341 343 341 343 346 348 350 352 352 348 347 347 346
303 303 302 302 303 303 305 306 308 308 309 307 310 310 312 313 313 309 308 308 311 314 317 320 322 315 311 313 317 320 319 320 334 338 341 344 346 348 350 352 354 350 352
300 300 300 301 301 302 302 302 303 304 304 304 305 303 304 307 308 308 306 307 308 310 313 311 309 307 308 315 318 317 318 330 332 333 334 337 343 348 351 352 353 356 355
299 298 299 299 299 299 300 301 300 300 300 300 301 300 302 304 306 305 304 305 306 307 309 308 309 310 312 316 320 327 331 334 334 335 337 341 345 346 347 348 346 348 347
298 297 297 298 297 298 299 298 299 300 299 299 300 300 300 300 301 300 298 300 302 303 302 309 314 316 316 319 321 324 328 331 332 336 339 340 342 344 344 348 348 346 342
297 297 297 297 297 297 297 297 299 298 298 296 296 297 301 299 297 295 294 295 296 298 305 308 308 310 312 314 316 318 321 323 326 329 335 339 340 340 338 341 343 342 340
296 296 296 296 297 296 296 295 295 297 298 296 295 296 296 295 294 293 293 294 296 299 304 303 304 306 308 312 314 316 318 322 327 329 331 334 337 340 336 336 340 340 340
297 297 296 295 296 295 295 295 295 294 293 294 295 295 294 294 293 293 293 296 299 300 301 301 302 304 306 308 310 312 319 320 323 327 330 332 334 336 337 340 343 343 341
295 295 294 294 295 294 294 294 293 293 292 292 293 294 294 293 292 292 293 296 296 297 299 300 302 303 304 306 307 309 311 315 316 316 319 322 329 332 333 336 337 323 329
296 297 294 293 293 293 293 293 292 292 292 292 292 292 294 293 293 293 294 295 295 295 296 297 299 301 303 304 305 306 307 309 309 310 312 316 321 328 327 329 331 336 339
295 298 296 294 294 293 293 293 292 292 292 292 292 293 293 292 292 292 293 293 293 294 294 294 295 296 298 300 301 304 306 307 308 309 310 313 318 320 322 324 330 334 338
295 294 294 294 294 294 294 294 293 293 292 291 292 292 292 292 292 292 292 292 293 293 294 293 293 292 293 295 297 298 300 302 306 307 308 306 309 314 316 319 321 322 330
295 294 294 294 294 294 295 294 294 293 293 292 292 291 291 291 291 291 291 292 292 292 293 293 292 292 292 292 293 295 296 297 300 302 305 308 309 313 316 315 316 318 322
296 295 295 294 294 294 294 294 294 292 292 292 291 291 291 291 291 291 291 291 291 292 292 292 293 292 293 293 293 293 293 295 295 296 294 298 301 304 310 312 313 315 318
296 295 295 295 295 295 295 294 294 293 293 292 291 291 291 291 290 290 291 291 290 290 290 290 290 290 290 291 291 292 292 289 292 291 294 296 297 299 301 305 309 312 314
297 296 296 295 294 295 294 294 294 294 293 292 291 291 291 290 290 289 290 289 289 289 289 289 289 289 289 290 290 289 287 287 290 288 291 293 294 297 301 302 305 308 310

GFSGL_sfc_thetae_093.txt.gz
Theta_e
345 348 352 356 356 356 355 356 356 356 356 357 358 357 359 360 359 360 360 359 357 358 357 357 357 360 354 357 360 358 355 355 346 352 356 360 364 363 360 362 360 365 359
350 346 346 353 355 356 356 356 357 356 357 357 357 357 357 357 361 360 357 355 357 356 357 356 355 353 358 359 356 360 357 358 350 351 354 352 358 362 362 363 359 357 361
342 340 341 343 354 356 356 357 357 358 359 358 357 356 357 356 357 358 359 358 357 357 357 357 356 357 357 354 356 353 352 354 354 351 350 354 356 358 360 361 362 363 356
341 340 340 343 346 349 350 352 353 357 359 359 359 358 356 355 354 353 354 356 357 358 359 359 359 357 358 359 357 359 356 354 355 353 352 352 354 360 359 355 353 357 357
339 338 339 341 345 346 348 348 349 350 352 357 358 358 357 354 352 352 352 352 354 356 357 358 359 355 347 349 354 361 361 358 352 350 349 350 350 350 352 353 354 356 359
340 339 339 341 335 335 344 345 345 345 346 349 351 352 352 348 331 333 343 353 355 356 357 359 360 349 350 338 337 338 349 358 356 349 348 349 356 356 355 353 352 351 347
329 330 331 332 333 331 332 335 337 338 339 339 340 344 345 342 324 325 331 354 356 360 360 361 360 356 353 360 342 335 336 334 338 359 354 357 358 363 361 359 358 355 352
320 320 322 324 325 329 330 328 329 332 334 335 336 338 333 321 316 321 327 348 352 355 357 358 360 360 359 357 359 358 360 362 360 353 356 359 362 363 364 361 360 358 357
314 315 317 318 318 319 320 323 325 328 330 332 333 338 325 317 312 314 333 344 346 348 351 353 354 355 325 324 351 356 358 358 346 333 334 333 332 329 336 354 352 350 347
309 310 312 312 313 314 316 320 323 326 328 328 326 324 318 314 310 310 318 325 326 335 344 339 325 320 316 317 336 348 350 355 355 358 359 350 340 351 329 349 354 350 349
309 311 312 312 309 312 315 317 317 318 320 321 320 321 318 317 310 308 308 314 315 320 323 324 324 317 313 312 316 334 335 332 335 341 346 353 356 357 357 359 360 355 351
309 309 310 310 310 309 312 313 313 313 313 315 316 314 313 313 308 307 307 307 308 313 313 315 316 308 306 308 315 319 315 318 332 334 336 337 339 342 344 347 358 360 359
309 308 309 309 308 309 309 309 310 310 308 306 308 309 309 311 310 307 306 307 308 308 310 310 309 307 307 314 316 316 315 331 332 332 332 334 335 338 345 349 352 360 361
308 307 307 307 307 307 307 307 307 306 306 307 306 304 304 306 306 306 306 306 308 309 307 311 312 310 310 315 320 324 328 330 329 330 333 335 337 338 339 342 342 343 344
306 306 306 306 306 305 305 305 306 305 304 305 304 305 304 302 300 298 297 301 302 303 304 313 313 314 315 317 319 321 322 325 325 326 327 329 331 333 335 339 341 342 341
305 305 305 305 305 305 304 303 298 299 297 295 296 299 304 297 295 294 293 293 295 297 307 308 309 310 311 311 313 315 318 320 322 325 326 327 328 330 332 334 337 337 338
304 304 303 304 303 302 302 302 301 299 297 295 294 295 295 294 294 292 292 293 296 300 305 304 305 307 308 310 311 312 313 317 322 320 321 324 328 329 329 330 332 333 335
304 301 303 302 301 301 301 301 301 301 300 300 296 295 294 293 292 292 292 296 302 302 303 303 304 306 306 306 308 309 309 310 312 314 316 317 319 320 322 326 331 332 335
303 302 301 301 300 299 300 300 300 300 300 299 301 298 297 293 293 293 294 300 300 300 300 301 301 302 303 304 304 305 305 307 309 310 312 313 314 314 316 319 323 316 320
303 300 300 301 299 300 300 300 299 299 299 299 299 298 298 299 299 299 300 299 299 299 299 299 299 300 300 300 301 302 303 304 305 307 308 310 311 312 315 318 320 320 325
302 301 300 301 301 301 300 300 299 299 298 298 298 297 291 297 297 298 298 298 298 298 298 298 298 299 299 298 298 298 299 300 301 301 303 305 308 308 308 309 310 316 321
303 302 302 301 301 301 301 302 301 301 300 299 298 298 293 298 298 298 297 298 298 298 298 298 298 298 298 298 297 297 296 296 297 298 299 301 302 303 305 308 310 313 317
302 302 302 302 301 300 301 302 302 303 302 301 299 298 297 298 298 297 297 298 297 297 298 297 297 296 297 297 297 296 294 295 296 296 295 296 295 294 295 297 299 303 312
302 302 302 302 302 302 302 302 303 297 300 301 301 299 298 297 297 297 297 297 297 297 297 297 296 295 294 294 294 294 294 294 295 293 293 293 294 295 295 296 296 298 301
302 301 302 302 302 302 302 302 302 302 302 302 301 300 299 298 297 297 297 296 296 295 295 294 293 294 293 293 293 293 291 288 290 289 291 291 291 292 293 293 294 296 298
300 302 303 303 303 303 303 303 302 303 302 302 302 301 300 299 297 297 296 294 293 293 292 293 293 293 293 293 292 290 287 286 289 286 288 288 288 289 290 291 292 292 294

GFSGL_sfc_thetae_096.txt.gz
Theta_e
354 356 356 356 354 355 355 356 358 360 363 363 362 358 359 357 359 361 361 359 359 359 360 358 358 360 352 350 352 353 350 349 345 348 355 358 365 363 362 364 360 359 354
355 355 353 355 356 354 355 356 360 358 364 363 362 362 361 359 360 359 357 357 358 356 355 357 357 352 358 358 352 359 357 357 349 353 357 352 360 363 363 365 358 355 355
348 349 350 350 353 355 356 356 359 360 360 357 358 358 360 360 359 361 362 359 357 356 356 356 356 356 357 352 353 351 349 350 352 348 348 350 353 358 359 365 361 362 357
345 344 343 344 347 351 354 357 358 360 361 357 358 358 359 361 361 360 360 360 359 357 358 357 355 356 358 358 358 358 358 355 356 349 347 346 348 358 356 350 347 351 353
345 342 344 346 348 350 353 355 358 359 358 361 361 361 362 360 357 360 359 358 357 357 357 358 358 355 349 350 354 362 363 354 348 344 344 344 345 347 352 350 348 350 355
345 344 344 347 346 345 347 350 351 352 355 357 357 359 360 356 327 332 345 358 359 358 358 361 360 353 351 341 339 339 348 360 356 351 347 348 358 356 354 351 350 347 345
336 337 337 339 341 339 335 337 344 347 349 348 351 353 342 338 319 323 331 356 360 360 360 361 357 352 354 358 343 337 338 335 338 361 354 355 360 365 361 358 360 355 352
326 325 328 331 333 335 333 334 337 340 347 348 346 346 335 321 314 318 326 351 357 359 360 360 360 359 332 342 358 357 358 360 363 357 358 361 364 365 369 363 362 363 360
320 322 321 321 323 329 331 335 339 341 342 342 344 337 329 321 311 312 328 351 352 355 350 339 344 341 318 319 352 357 358 358 347 333 334 332 331 330 338 355 352 349 347
314 316 318 320 320 321 324 324 329 331 336 337 337 331 319 322 308 309 317 335 339 343 348 339 320 321 312 313 338 346 349 352 352 350 354 351 342 352 332 355 357 351 350
311 312 314 315 316 318 320 321 324 330 331 331 330 329 325 319 313 307 308 311 313 326 334 335 333 312 308 307 310 334 336 331 333 339 344 348 352 354 355 358 369 363 354
313 312 313 315 314 317 319 319 323 323 323 326 325 322 322 321 307 307 307 307 309 311 313 316 318 308 306 307 312 316 314 317 333 339 340 340 341 343 344 346 355 353 353
312 312 312 314 319 319 318 315 314 319 317 315 316 317 319 317 316 307 307 308 310 313 314 310 308 306 307 313 312 316 315 333 336 335 336 338 340 342 345 348 355 363 364
313 313 313 314 316 318 317 317 317 314 314 315 315 312 313 315 310 307 305 309 310 312 312 315 315 312 311 316 319 323 327 326 327 326 327 331 332 333 334 336 336 338 339
312 313 313 312 314 313 313 311 313 309 306 312 313 314 312 312 303 297 297 301 304 304 304 316 316 316 316 318 319 320 322 323 322 324 325 326 327 328 328 331 332 333 333
311 310 311 311 311 312 310 307 298 299 297 295 295 299 306 296 295 294 293 293 294 297 310 310 311 311 313 314 315 316 317 319 320 322 322 322 322 324 327 330 331 330 329
310 311 309 306 309 309 309 308 304 298 297 295 295 295 295 293 294 293 292 293 294 299 311 310 308 309 310 309 310 312 313 315 317 316 316 318 319 319 318 320 322 323 326
310 302 308 308 307 307 308 309 309 307 306 305 296 298 295 294 293 293 293 296 308 307 308 308 308 308 308 307 308 307 309 309 310 312 313 315 316 316 316 316 317 318 320
308 306 307 307 307 306 307 307 307 307 307 307 306 297 298 295 294 294 294 307 306 306 306 306 306 306 306 306 306 306 307 307 306 307 309 310 312 313 313 315 315 310 313
309 305 306 306 304 305 305 305 305 306 305 306 306 304 304 305 307 306 306 306 305 305 305 304 305 305 305 305 304 304 304 304 305 305 305 306 306 308 309 310 311 311 312
307 305 306 306 305 305 305 305 305 305 305 306 305 299 290 302 306 305 305 304 304 304 304 304 304 304 304 304 304 303 303 303 303 303 303 304 304 303 304 305 306 307 308
307 306 305 306 306 305 305 306 305 305 305 305 306 301 295 302 306 305 305 305 305 304 304 303 303 303 302 302 302 301 301 301 301 301 301 301 301 302 302 302 301 301 301
307 307 306 306 306 304 304 306 305 305 305 306 306 306 305 305 305 305 304 304 304 304 304 303 302 301 302 301 301 300 298 298 299 299 298 297 297 297 298 298 298 298 299
308 308 307 306 306 305 305 306 306 300 304 305 305 305 305 305 304 303 303 304 303 303 303 302 301 300 300 299 298 298 297 296 295 294 294 293 292 293 294 294 295 296 297
308 307 307 307 306 305 306 305 305 306 305 305 305 305 305 305 304 303 303 303 302 301 301 301 300 301 300 299 299 298 294 288 291 290 292 292 291 291 290 290 291 292 294
304 306 305 307 307 306 306 306 305 305 305 305 306 306 306 305 304 303 302 302 301 301 300 300 300 300 300 299 298 291 287 286 290 287 290 290 290 290 290 289 289 289 290

GFSGL_sfc_thetae_099.txt.gz
Theta_e
357 359 360 357 358 359 356 356 358 360 362 359 361 359 359 359 360 364 364 361 360 361 362 360 358 365 353 350 353 351 349 348 343 347 352 363 367 364 363 367 363 365 355
352 357 357 355 357 357 355 356 358 359 360 360 361 361 361 359 362 362 358 357 358 357 356 357 356 352 365 365 351 361 353 357 349 352 355 350 359 369 371 373 360 356 356
347 354 352 355 355 357 359 357 358 358 360 358 360 360 359 361 362 362 362 360 358 357 356 356 356 356 360 355 360 354 350 349 353 348 347 350 352 353 357 366 367 364 357
349 345 346 347 348 350 352 353 354 361 359 359 359 361 359 359 359 360 360 360 359 357 358 357 357 356 359 361 355 365 359 354 353 348 346 348 348 357 353 351 348 351 350
349 350 349 346 348 349 349 353 355 359 358 359 359 360 360 358 351 349 360 359 360 359 359 358 359 356 350 350 354 365 363 357 350 348 344 343 343 351 351 349 350 349 355
351 350 350 351 353 351 353 351 353 355 356 358 358 359 358 341 326 328 341 361 359 359 357 360 363 353 351 343 341 341 348 357 356 351 348 348 358 355 353 352 352 347 344
347 346 348 348 348 348 349 349 345 348 355 353 354 350 342 332 317 320 330 348 357 362 363 362 357 353 353 358 344 338 339 336 339 359 354 357 359 363 365 361 359 356 352
337 336 337 338 339 341 343 343 338 343 348 351 350 345 336 321 313 316 322 344 354 359 358 359 360 353 331 334 350 357 357 359 357 356 360 360 364 368 366 364 364 362 360
327 327 329 332 335 336 336 342 342 345 346 347 347 342 334 322 310 312 325 350 355 354 349 344 352 346 316 316 345 353 357 360 343 334 336 334 331 331 339 354 351 347 346
314 317 327 325 326 329 333 335 339 341 342 342 336 336 321 326 308 309 316 329 342 339 352 333 315 318 311 310 327 341 346 350 349 348 346 349 343 351 334 351 360 353 354
313 316 317 320 321 323 325 325 327 334 338 338 336 333 324 317 311 308 308 321 316 319 320 321 326 312 308 308 308 327 334 324 329 335 339 344 348 351 349 357 363 362 350
314 314 316 317 317 319 323 323 327 328 329 331 332 329 327 325 308 307 307 307 310 315 319 318 314 308 306 307 312 314 312 317 328 336 339 340 341 343 345 349 355 354 350
314 313 314 317 318 319 323 321 319 323 322 323 322 321 322 323 321 308 308 308 311 312 319 313 308 306 306 310 314 314 315 326 330 330 329 329 332 334 342 343 348 356 360
317 315 315 315 317 320 318 318 318 317 317 318 316 317 317 318 313 308 308 311 313 313 314 315 316 313 310 313 316 322 325 325 323 323 323 327 330 330 329 333 331 333 333
316 315 315 314 314 316 316 310 311 309 305 307 316 315 315 315 303 297 297 301 303 306 304 317 318 318 318 319 319 320 321 321 321 322 323 322 322 324 325 329 329 331 330
315 314 314 314 314 314 313 309 298 298 297 296 295 299 305 297 295 295 293 293 294 296 309 312 313 313 313 313 314 315 317 318 317 317 317 317 317 318 319 320 322 322 323
314 316 313 308 312 312 312 311 307 299 297 296 295 295 295 294 295 293 293 293 295 298 311 313 313 312 312 312 311 310 309 312 316 312 313 313 315 316 316 317 317 319 319
315 305 312 310 311 311 311 311 311 309 308 306 296 299 295 295 295 294 293 295 308 306 311 310 310 310 309 309 309 309 310 310 310 309 310 310 311 311 311 312 313 316 315
313 310 309 310 310 308 310 310 309 310 310 309 307 297 298 296 297 295 294 310 309 309 309 309 309 308 308 309 308 308 309 307 306 307 307 307 307 307 307 308 309 306 307
313 306 309 309 308 308 308 307 307 308 308 308 308 308 307 304 307 309 310 310 309 308 308 308 308 308 308 308 307 307 306 306 306 305 305 306 306 306 304 304 304 304 305
311 309 309 308 307 307 307 307 307 307 306 307 307 300 292 304 309 309 309 308 308 307 307 307 307 307 307 306 306 305 304 304 304 304 303 303 303 302 303 303 303 303 304
311 309 306 307 308 308 307 308 307 306 306 306 306 302 296 303 308 308 309 309 309 309 308 307 306 306 305 305 304 303 302 301 301 301 300 300 300 300 299 299 299 300 299
311 310 308 307 308 307 307 308 307 307 307 307 307 306 305 306 307 307 308 308 308 308 308 306 306 305 305 304 304 302 300 300 300 300 297 297 296 297 297 296 297 297 297
312 310 310 309 309 308 307 307 308 302 307 307 307 306 306 307 306 306 306 307 307 306 306 305 305 303 304 303 303 303 302 299 298 296 296 295 293 293 292 292 293 295 296
309 310 310 310 309 308 308 308 308 309 308 306 307 307 307 307 306 306 306 306 305 305 304 304 304 303 303 303 302 302 293 287 293 291 293 292 292 292 292 291 291 292 292
308 306 308 310 310 309 308 309 309 309 308 308 308 308 308 307 307 307 306 305 304 304 303 303 303 303 303 302 300 291 287 287 291 287 290 290 291 291 291 291 291 291 291

GFSGL_sfc_thetae_102.txt.gz
Theta_e
356 354 362 361 361 362 364 365 367 349 344 343 353 361 358 364 365 364 364 363 357 356 359 358 357 361 358 356 354 350 350 350 344 347 347 346 345 346 360 364 365 363 359
352 355 357 351 354 359 354 348 360 364 362 364 366 361 362 360 361 361 361 359 358 357 358 361 359 352 359 362 358 356 356 356 352 347 352 354 356 361 362 366 363 357 357
352 352 352 357 356 359 357 349 349 358 365 364 365 360 357 360 358 359 361 360 359 360 360 358 359 356 357 357 358 356 354 353 351 349 347 350 350 351 350 356 360 357 361
347 348 349 349 351 350 352 355 356 357 356 355 361 358 357 361 359 359 359 359 360 360 361 362 361 360 357 357 355 356 354 354 352 351 350 349 349 351 355 348 343 355 354
346 347 348 350 346 347 349 348 351 350 352 353 355 359 345 342 336 339 346 353 355 358 360 359 359 351 348 347 356 357 356 353 350 347 346 347 349 350 349 352 352 351 351
349 347 349 351 350 350 349 348 347 347 349 350 350 352 342 334 323 326 333 352 358 356 358 361 363 351 352 341 340 340 346 352 350 352 350 347 349 352 353 353 352 349 346
351 351 350 350 351 350 350 350 349 346 345 345 346 340 326 320 316 319 325 341 354 356 356 358 355 347 335 339 346 339 339 336 337 350 350 350 352 354 357 354 353 353 350
339 345 346 347 345 345 345 344 344 346 342 343 343 337 329 315 313 316 323 339 350 356 356 355 353 333 321 321 336 351 356 359 356 351 350 354 358 359 356 355 354 353 354
327 329 334 338 338 338 340 343 344 343 339 344 345 339 329 315 311 311 325 339 356 352 343 325 337 324 315 315 335 340 345 352 341 334 333 330 329 328 335 347 346 347 344
315 318 326 329 332 333 334 335 340 344 346 340 336 333 325 318 309 309 312 328 332 331 336 326 315 313 311 311 322 327 334 337 330 329 332 336 338 344 335 344 349 345 345
316 317 318 320 325 328 330 332 334 334 342 339 335 329 321 318 311 309 308 317 315 324 325 322 322 311 308 308 309 320 328 319 324 326 331 336 343 347 347 351 356 352 346
315 316 319 320 321 319 326 328 330 330 332 333 335 334 328 319 311 308 308 308 311 315 321 325 319 308 305 306 311 315 312 316 326 329 329 327 327 329 330 337 342 347 350
315 315 314 317 319 321 322 322 323 325 322 326 326 327 326 320 311 308 308 309 312 314 317 312 309 307 306 309 312 314 315 326 327 322 321 322 327 328 329 330 333 336 335
316 316 315 315 315 319 319 320 319 321 320 322 323 322 325 323 317 311 307 306 309 311 308 310 313 313 312 313 316 327 327 328 325 321 319 320 322 323 323 326 322 321 320
319 317 318 317 316 316 303 301 307 297 298 303 305 313 311 309 301 296 297 301 302 302 299 310 320 319 317 316 317 316 319 317 314 314 315 316 317 317 318 319 318 319 318
317 315 315 315 315 317 312 305 298 298 297 295 295 300 301 297 296 295 294 294 295 296 307 318 317 318 315 315 313 313 312 312 312 311 311 311 311 312 311 314 316 315 315
321 326 318 315 317 317 317 314 305 297 298 296 295 296 295 294 295 294 293 294 295 299 305 320 317 316 314 314 313 312 310 312 316 311 311 310 309 309 307 307 308 308 308
320 307 316 316 313 318 317 315 314 306 303 300 296 300 296 297 296 295 294 295 306 304 311 313 314 313 312 311 310 309 309 310 308 309 308 308 307 307 306 305 305 304 303
317 314 313 313 316 313 315 314 311 313 315 308 303 297 297 295 296 295 294 302 314 312 311 311 311 310 310 310 310 310 311 308 308 307 307 306 306 305 303 304 303 302 302
317 313 312 312 312 311 310 310 310 311 312 312 310 308 305 304 305 308 314 314 313 310 310 310 310 311 310 310 309 308 306 305 305 304 303 303 302 302 301 300 300 299 299
315 314 311 310 310 308 309 309 309 309 308 309 308 302 295 304 306 311 312 310 311 309 310 309 312 312 310 308 307 305 303 303 302 301 301 300 300 298 299 299 298 299 298
316 314 310 308 310 310 309 310 309 309 308 308 304 299 297 300 305 309 310 310 309 311 309 311 308 308 307 306 305 302 301 301 301 300 298 297 297 297 297 297 296 296 296
316 313 311 308 309 309 309 309 308 308 308 308 307 303 302 303 307 308 308 308 309 309 310 308 307 306 306 305 305 304 301 299 298 298 296 295 295 295 295 294 294 294 293
314 312 311 309 309 309 308 308 309 304 307 308 308 308 307 308 307 308 307 308 308 308 308 307 307 303 305 304 304 303 298 296 297 297 295 294 293 293 293 293 292 293 292
315 313 309 311 308 308 310 308 308 309 308 308 308 308 308 308 307 307 307 307 307 307 306 306 306 304 303 303 303 301 290 288 295 291 294 294 292 292 292 292 292 292 292
313 313 307 306 308 309 309 308 309 310 310 309 308 309 310 309 308 308 308 307 306 306 305 305 304 303 303 302 298 291 288 287 292 287 290 291 292 292 293 292 293 292 292

GFSGL_sfc_thetae_105.txt.gz
Theta_e
351 351 351 350 350 348 348 348 345 341 338 337 342 346 351 352 351 349 349 348 347 347 347 347 346 347 350 349 347 346 344 344 337 342 340 340 340 340 341 346 352 353 354
351 348 349 348 343 346 344 345 347 345 344 343 349 352 351 351 350 350 351 350 347 346 347 345 346 350 345 345 346 345 342 343 340 334 341 344 339 345 347 348 355 360 357
346 346 345 341 343 347 346 343 345 350 349 351 351 350 350 350 349 350 351 350 349 349 348 348 347 348 346 344 342 341 344 347 343 340 340 341 342 346 349 347 345 352 354
342 343 340 342 343 346 346 347 346 347 346 348 350 352 349 343 342 343 346 348 348 351 351 349 349 348 345 345 345 344 344 341 342 341 340 340 343 347 348 345 347 349 346
340 341 341 342 341 342 341 341 342 343 345 349 350 342 340 334 330 333 336 343 350 347 350 351 349 348 345 343 346 344 343 341 340 338 338 339 339 341 342 346 345 345 346
342 341 344 344 342 342 343 341 342 342 342 346 342 337 330 324 319 322 326 333 345 350 348 347 346 336 337 337 338 337 338 339 338 340 340 339 340 342 346 345 345 343 340
343 343 343 343 342 344 345 343 340 338 341 343 331 321 313 312 315 318 324 327 338 344 345 346 344 329 324 327 335 340 339 336 338 340 339 340 342 344 346 344 343 343 343
341 341 342 342 340 339 338 338 337 338 339 334 330 324 314 309 313 315 324 332 338 341 334 339 328 318 315 317 330 338 342 336 336 338 339 340 340 341 341 344 345 345 346
326 330 335 336 333 334 332 336 337 337 337 336 331 322 313 307 311 312 322 328 338 327 317 320 315 310 314 316 321 323 329 332 331 326 325 326 326 325 328 334 335 337 337
317 323 327 328 328 325 326 328 329 332 336 329 327 322 316 307 310 310 315 315 319 328 322 316 315 309 310 311 311 314 320 323 318 318 322 327 330 334 331 336 338 336 336
318 319 320 321 324 323 323 325 325 328 332 329 322 317 315 308 306 308 309 306 308 314 317 315 313 311 307 307 309 310 316 314 317 319 324 322 321 323 324 328 331 338 335
316 317 318 319 319 320 320 322 323 323 325 328 327 318 313 310 310 308 308 309 311 307 309 313 307 308 306 306 308 313 311 314 318 318 318 318 318 320 321 323 324 321 323
311 312 313 314 316 318 317 316 316 320 318 320 324 323 313 307 304 308 306 308 309 307 306 307 308 308 309 312 314 315 314 318 314 311 311 312 314 315 316 316 316 316 316
310 309 309 309 310 312 307 310 306 307 310 311 309 313 316 311 306 301 301 301 305 302 300 301 307 312 312 313 311 312 311 310 309 307 307 309 310 311 309 312 311 313 311
312 311 310 311 311 302 297 301 299 297 297 303 300 301 305 303 295 295 295 296 296 296 296 304 309 308 307 307 308 307 308 307 306 305 305 306 307 307 305 307 308 306 306
309 310 310 310 307 303 298 294 298 297 296 295 296 301 296 296 296 295 293 293 294 296 297 303 304 305 305 305 304 304 305 307 304 304 304 304 303 303 303 304 305 303 301
311 311 309 308 307 308 305 301 295 293 297 295 294 295 296 296 295 293 293 293 295 297 298 303 303 303 302 302 302 302 301 302 301 302 302 302 302 302 302 301 301 300 300
310 307 305 306 305 305 309 307 303 297 294 292 295 295 295 296 295 294 294 296 300 298 298 302 302 302 302 301 301 300 301 300 301 300 300 300 299 299 298 298 298 297 296
311 308 305 304 304 304 304 304 304 301 299 297 294 294 295 294 294 294 294 295 300 302 302 301 302 303 302 302 301 300 300 299 298 297 297 297 297 296 295 295 295 297 296
311 314 308 303 303 301 301 301 301 300 303 299 296 295 296 296 296 298 301 301 301 301 302 302 302 302 302 301 300 299 298 297 296 295 295 295 295 295 294 294 294 293 293
310 308 310 302 302 301 301 301 300 300 300 302 302 301 299 298 299 300 303 301 301 301 300 300 300 300 300 299 298 297 296 296 295 294 293 292 292 292 292 293 293 293 293
312 309 303 301 302 302 300 301 301 300 300 299 294 293 295 294 297 300 300 301 300 301 301 300 299 299 299 298 297 296 295 294 293 293 292 292 292 292 292 292 293 293 293
314 313 311 304 301 303 302 301 301 300 300 300 297 294 294 294 295 300 301 301 300 300 299 299 298 298 298 298 297 296 293 292 292 292 291 291 290 290 291 292 293 292 293
314 312 312 306 303 300 300 301 300 301 300 301 299 298 297 297 298 300 300 300 300 299 299 298 297 297 297 296 294 293 291 292 292 291 290 290 292 293 293 292 292 292 292
311 311 307 306 304 301 301 301 300 301 301 301 301 301 301 300 299 300 299 299 299 298 298 297 297 297 297 297 292 290 288 290 291 290 290 292 292 291 292 292 292 292 293
308 309 306 305 305 304 302 302 303 301 301 302 301 301 301 300 300 300 299 299 298 297 297 296 296 297 296 295 293 290 285 288 290 287 287 290 290 291 292 292 293 293 293

GFSGL_sfc_thetae_108.txt.gz
Theta_e
347 347 346 348 347 346 344 343 342 341 340 341 339 339 343 347 348 346 345 347 344 343 344 343 344 343 344 346 344 344 340 339 333 337 339 339 338 339 343 342 345 346 353
345 346 348 348 347 346 345 345 342 340 338 335 338 344 348 349 348 347 346 349 346 344 344 344 344 347 342 343 342 340 340 341 337 332 337 340 339 342 344 344 350 354 352
345 347 347 345 342 346 343 342 343 345 346 343 346 347 348 347 347 347 347 347 346 347 346 344 345 344 344 343 340 338 342 343 341 338 337 340 341 344 345 348 349 349 353
344 345 343 341 341 345 345 342 342 344 342 344 345 346 341 337 337 339 343 344 347 349 348 348 346 346 343 343 343 341 342 339 338 336 335 336 340 343 344 342 344 345 346
341 340 340 341 342 342 342 343 343 343 342 343 341 338 334 332 329 330 335 337 345 346 349 349 344 342 339 338 342 341 341 337 337 334 334 335 335 337 337 342 342 344 344
339 338 340 339 338 337 340 342 342 341 340 342 337 331 325 321 319 321 325 331 338 344 346 346 338 334 336 333 333 335 338 338 335 335 336 335 336 338 342 342 341 339 337
339 340 342 340 340 340 342 341 338 337 340 331 321 315 310 312 317 319 325 328 336 342 340 341 334 324 321 325 332 337 337 335 335 336 335 335 337 340 342 339 338 338 339
339 340 340 339 339 338 336 335 333 335 334 325 320 315 309 309 315 319 329 335 334 329 332 326 318 314 315 320 326 329 336 331 329 329 328 331 333 334 332 333 334 338 341
336 339 339 338 337 334 333 333 333 333 331 327 321 315 308 306 312 317 325 335 326 317 316 313 310 309 313 316 315 319 323 324 322 321 321 321 321 322 326 331 334 333 331
324 326 331 332 331 328 328 327 327 334 333 328 320 314 311 305 310 312 313 319 323 321 317 315 314 308 310 310 309 309 312 315 314 318 321 321 320 321 324 327 330 329 329
320 321 323 326 325 324 323 323 325 330 326 322 320 314 308 305 305 309 309 306 309 314 314 313 309 311 307 307 308 309 312 312 316 317 315 317 317 318 319 318 319 321 319
318 320 320 320 322 322 322 322 321 327 325 322 314 311 310 306 307 307 308 309 311 307 308 308 306 307 307 308 310 311 312 316 312 310 310 309 310 311 312 313 313 313 314
314 313 315 315 316 316 316 315 314 319 323 324 323 315 308 306 305 306 307 308 308 306 304 305 307 306 308 310 312 312 311 308 306 306 304 304 305 306 306 307 309 308 311
307 307 308 309 306 304 309 308 305 306 308 309 308 313 309 308 304 299 297 297 301 299 301 303 310 311 310 309 308 308 308 306 303 302 302 303 305 303 303 304 303 304 303
307 306 306 305 301 297 297 298 298 297 299 302 302 303 306 303 300 296 295 296 296 297 300 308 307 304 304 304 304 305 304 302 302 301 301 301 302 302 301 302 301 300 298
306 306 307 307 304 298 296 294 297 296 296 295 296 297 295 297 296 294 293 293 294 296 300 303 303 302 302 301 300 300 300 301 299 301 299 299 299 299 299 299 299 297 296
305 305 305 306 304 302 299 296 294 292 296 294 294 294 296 296 294 293 293 293 295 298 300 303 300 300 299 299 299 299 297 298 299 298 298 296 297 297 296 295 295 295 294
308 307 302 305 304 304 305 302 299 295 293 292 294 294 294 293 293 293 293 296 298 298 299 300 301 300 299 298 299 298 297 297 296 296 295 295 295 294 294 293 294 292 293
308 307 305 302 301 302 303 305 303 299 296 293 292 293 294 294 293 293 293 295 298 299 298 299 299 299 298 298 297 296 295 295 294 293 292 292 292 292 291 292 292 294 293
308 311 308 303 299 299 298 299 299 299 298 296 293 292 293 294 294 296 299 299 299 298 298 299 298 298 298 297 296 295 295 294 292 292 291 292 292 291 291 291 292 292 292
309 308 312 304 300 300 298 298 298 297 300 298 296 295 296 295 296 298 298 298 298 298 298 298 298 297 297 296 295 295 294 293 292 291 290 290 290 290 290 291 294 294 293
309 309 310 308 301 299 299 298 298 297 297 299 298 298 296 296 296 297 299 298 299 298 298 298 297 296 296 296 295 294 292 291 291 290 290 290 290 290 290 290 292 291 291
309 308 309 307 305 303 301 299 298 298 297 297 296 295 294 292 292 297 299 299 298 298 297 297 297 295 295 295 295 294 292 291 291 291 290 289 289 289 290 290 291 290 290
310 310 309 307 307 304 300 299 301 298 298 297 296 294 292 293 293 296 298 298 298 297 297 296 296 296 294 293 292 291 291 291 291 290 290 289 288 290 289 289 290 290 292
308 308 307 307 309 308 303 300 300 299 299 298 298 296 295 295 295 298 298 298 297 297 296 296 295 296 294 292 291 290 289 290 290 289 289 289 288 290 289 288 288 290 293
304 305 304 302 302 305 305 302 300 299 299 300 299 298 297 297 297 298 297 297 296 295 295 295 295 295 295 293 291 290 286 287 289 287 288 287 287 287 288 288 288 289 292

GFSGL_sfc_thetae_111.txt.gz
Theta_e
344 344 343 343 344 344 344 344 343 342 341 341 342 339 337 342 345 346 345 345 343 341 342 343 341 342 341 343 342 341 338 335 332 334 337 338 338 340 343 345 348 348 349
345 345 344 344 344 344 343 343 342 339 338 336 337 336 341 346 346 346 344 348 345 343 342 341 342 347 341 340 341 340 339 339 336 330 335 339 339 341 342 343 349 352 349
344 343 344 344 344 343 341 342 343 341 340 339 340 342 345 345 345 345 346 347 347 346 345 344 344 343 342 342 339 338 339 341 338 336 335 338 339 341 342 344 347 346 351
344 345 344 344 344 344 345 342 341 342 340 343 344 344 343 338 339 339 342 344 344 346 347 347 346 345 342 342 342 341 340 339 336 334 333 333 336 340 341 339 341 343 345
344 341 343 345 346 344 344 342 343 342 342 342 341 338 334 333 330 329 333 336 339 342 347 348 344 342 339 337 342 342 340 337 336 334 333 333 334 335 335 340 339 341 342
341 342 342 343 343 341 340 340 341 341 341 343 337 332 327 328 322 321 326 330 337 343 344 341 339 336 333 331 332 333 336 336 334 334 333 333 334 336 339 339 338 335 333
338 339 340 338 337 338 339 340 340 339 339 331 324 318 313 313 317 320 324 327 336 341 343 342 331 321 323 327 332 331 330 331 333 338 335 335 334 339 332 331 331 333 333
337 337 338 338 339 339 339 337 335 336 329 320 314 312 310 312 317 323 331 334 333 334 332 330 323 315 315 320 324 333 328 323 322 323 321 323 325 326 326 329 330 332 335
337 339 338 339 336 335 333 332 333 331 323 318 314 310 307 307 313 318 329 326 323 320 319 319 314 309 313 315 314 317 318 315 319 321 321 319 319 319 323 327 328 326 325
335 337 336 336 334 332 331 331 331 330 326 320 315 309 309 304 310 311 322 321 314 314 317 315 314 309 309 310 308 309 310 312 315 315 315 316 316 316 319 315 317 316 323
328 328 329 329 329 329 328 329 331 329 322 318 314 309 304 304 306 309 309 310 314 315 313 311 307 310 307 306 309 310 311 312 315 311 310 310 310 310 312 311 313 313 312
326 325 323 323 325 322 323 324 327 325 322 319 314 308 306 304 307 307 308 309 310 307 307 306 304 306 307 308 310 311 311 311 307 306 305 304 303 303 304 306 306 307 306
316 316 317 316 316 317 317 316 318 325 325 319 314 310 305 305 301 304 305 305 307 304 302 305 306 306 307 309 311 310 308 304 304 303 301 300 300 301 302 302 302 305 301
309 309 311 311 307 307 309 310 310 311 312 312 312 317 308 309 304 300 299 297 301 300 303 309 310 309 308 307 305 305 305 303 302 301 300 300 300 300 300 299 297 298 297
304 304 304 304 300 298 296 299 300 295 299 303 302 308 306 306 303 299 296 294 297 298 302 305 304 303 303 302 302 301 301 301 300 299 298 297 298 298 297 297 296 294 294
304 305 305 304 299 297 296 294 297 296 295 294 295 298 296 298 296 294 293 294 294 296 303 302 301 301 300 299 297 298 298 299 297 297 296 296 295 295 294 294 294 292 291
305 304 305 306 304 299 297 297 296 295 296 294 293 294 295 296 294 293 292 293 294 297 302 300 301 299 299 298 297 297 296 296 296 295 294 294 295 294 293 292 292 292 291
306 308 302 303 303 303 302 300 298 296 295 293 293 293 293 293 293 292 293 294 296 298 299 299 299 298 297 297 296 295 295 294 294 294 293 292 292 292 291 291 291 290 290
306 306 304 301 301 301 300 302 302 299 296 294 291 293 293 293 293 293 293 295 298 298 298 298 298 297 296 295 294 294 293 292 291 290 290 290 291 291 290 290 290 293 292
307 310 307 303 301 299 297 298 300 300 299 297 293 292 291 293 292 295 298 297 297 297 297 297 297 296 296 295 294 293 292 291 290 289 289 289 289 290 289 290 290 290 289
308 307 311 305 302 299 298 297 296 296 297 297 296 294 294 294 294 296 297 297 297 297 297 297 296 295 294 294 293 292 291 290 289 289 289 289 289 289 289 289 290 290 290
307 307 307 306 306 302 299 298 297 296 296 298 298 296 295 294 295 297 297 298 297 297 298 298 296 295 295 294 294 292 291 290 290 289 289 289 289 289 289 289 289 289 290
307 306 306 305 304 304 301 301 300 298 297 296 297 298 296 295 294 295 298 298 298 296 296 297 296 294 294 294 294 293 291 290 290 290 289 289 288 288 288 288 288 288 292
306 307 307 306 305 304 303 301 299 299 300 298 297 296 297 297 295 294 297 297 297 296 296 296 296 295 294 293 292 291 291 290 290 290 290 288 288 288 288 287 288 288 288
302 304 305 304 304 305 303 300 299 300 301 300 297 296 295 294 292 292 296 298 298 296 296 296 295 295 294 293 291 290 289 289 289 289 288 288 288 287 287 287 287 287 288
300 301 302 302 301 302 301 301 300 300 303 302 300 298 297 296 294 294 296 297 297 296 296 295 295 295 294 293 291 290 286 286 289 287 288 287 286 286 286 286 286 287 287

GFSGL_sfc_thetae_114.txt.gz
Theta_e
344 343 343 344 345 346 346 346 346 347 347 346 345 346 344 344 348 350 349 350 348 348 348 347 349 348 347 348 348 346 344 342 339 343 345 348 349 351 353 354 356 357 355
345 345 344 345 346 346 345 346 345 344 344 344 346 344 342 345 350 350 348 351 349 348 348 347 347 348 349 348 347 348 346 345 343 341 343 347 348 351 351 353 353 354 356
345 345 344 345 345 345 345 345 345 343 343 342 340 340 343 350 350 350 349 348 351 350 351 349 349 349 348 349 347 346 344 346 345 343 343 346 346 348 350 351 353 355 353
344 344 343 343 344 344 344 343 344 343 343 345 345 347 349 347 347 346 345 347 347 349 350 350 350 351 350 349 347 347 346 346 343 342 341 340 342 346 347 346 348 350 348
342 344 343 344 345 345 343 343 344 345 344 343 344 344 341 340 336 335 338 340 342 346 348 351 349 344 340 340 348 347 346 346 344 342 339 341 342 342 343 346 345 345 346
343 340 341 344 342 343 343 342 343 342 342 343 340 337 336 333 322 323 326 333 338 343 346 348 341 337 335 331 333 334 338 344 343 342 340 341 342 344 344 338 341 339 337
339 340 340 341 341 341 341 340 340 339 340 340 334 328 322 319 319 321 325 329 337 342 345 341 334 328 328 333 331 329 329 328 333 344 342 340 336 339 333 335 337 339 340
337 338 340 339 339 338 339 340 339 339 336 329 321 316 316 318 317 322 329 337 337 330 331 331 325 322 323 323 337 335 326 327 327 327 329 328 326 326 331 335 336 339 343
336 336 338 339 339 339 339 338 336 334 326 321 318 315 315 314 313 320 330 329 324 321 320 321 319 314 313 315 325 328 322 323 320 319 319 318 316 316 319 330 326 333 334
335 335 338 340 339 335 334 335 336 330 324 318 314 312 310 311 310 312 323 322 318 318 320 318 314 313 311 311 317 320 320 319 322 320 318 316 317 316 316 320 323 328 329
328 329 330 332 333 333 332 334 334 327 322 318 314 310 310 309 309 309 310 320 322 322 318 317 312 309 308 307 310 320 319 320 316 314 312 311 311 312 311 312 312 315 313
326 323 322 323 326 328 328 330 332 327 321 320 312 308 307 307 307 307 307 309 312 315 314 311 308 307 307 307 313 310 310 312 312 309 308 306 306 306 308 308 309 308 308
319 318 320 319 320 321 320 323 327 325 321 316 313 310 308 308 305 304 304 304 306 308 307 307 307 306 307 309 310 309 309 309 309 307 305 304 305 305 306 306 308 307 306
311 313 314 315 312 311 312 312 318 318 321 321 320 316 310 309 309 305 303 303 304 306 309 313 311 309 308 308 308 309 308 308 307 305 304 304 304 302 301 302 301 303 300
307 307 307 304 304 302 298 300 302 299 303 309 309 314 313 311 309 301 299 300 300 300 307 310 308 307 306 305 306 306 305 305 303 303 302 301 300 299 299 300 299 298 297
306 307 307 304 302 302 301 299 297 297 295 294 295 303 303 300 296 294 293 294 294 296 308 307 305 306 305 304 304 302 302 301 301 301 300 299 298 298 297 298 298 297 296
309 309 309 307 306 303 302 303 304 301 296 294 293 294 295 296 294 293 292 293 295 299 308 307 305 304 303 303 302 302 300 300 301 300 299 298 297 297 297 296 296 296 295
309 307 308 308 308 308 306 305 303 303 303 303 295 295 293 293 293 292 292 295 301 301 306 305 304 303 303 302 301 300 299 298 298 297 297 297 297 297 296 296 296 295 295
310 310 308 306 306 307 306 306 307 305 303 302 299 296 295 293 292 292 293 300 302 303 304 304 304 303 302 302 300 299 299 297 296 296 296 296 296 297 296 296 296 294 294
311 310 310 308 307 305 303 302 304 305 304 304 302 300 297 297 298 299 302 303 303 304 304 304 303 303 302 301 299 299 297 296 296 296 295 296 296 296 296 295 296 295 295
313 311 311 310 307 306 304 303 302 302 304 304 304 302 295 299 299 300 304 303 304 304 304 304 303 302 302 300 299 298 297 296 296 295 295 296 296 295 296 296 296 296 296
311 311 311 310 310 309 307 306 304 302 302 301 303 303 294 298 300 301 304 304 304 305 305 304 303 302 301 300 300 298 297 296 296 296 296 296 296 296 296 296 296 295 295
309 310 311 310 310 308 309 307 305 304 303 303 302 302 300 299 300 302 304 304 304 304 304 304 303 301 301 301 300 300 298 297 296 297 296 296 296 296 296 296 296 296 295
306 307 308 309 310 310 309 309 308 302 304 304 303 302 302 302 301 301 303 304 304 304 304 303 303 302 301 300 300 299 299 298 297 297 297 296 296 294 296 296 296 295 295
304 305 306 307 308 309 309 309 308 307 306 306 305 305 306 303 303 302 301 303 303 303 302 303 302 302 301 300 300 299 294 289 296 293 296 296 296 295 295 295 295 295 295
304 304 305 305 306 306 306 306 305 305 305 306 306 306 305 303 302 300 301 302 302 302 302 302 302 302 302 301 300 295 286 287 292 288 296 296 295 295 295 295 294 295 294

GFSGL_sfc_thetae_117.txt.gz
Theta_e
351 353 353 353 354 356 356 358 358 357 356 355 356 356 357 357 357 358 360 360 359 358 357 356 357 360 354 354 355 354 352 351 344 346 353 355 358 359 360 360 358 359 357
352 354 353 354 355 355 356 357 357 356 356 356 356 354 354 355 355 357 357 356 357 357 357 357 356 353 358 362 354 356 354 356 349 348 352 351 356 358 358 359 355 354 358
352 353 353 353 354 355 356 356 356 356 355 353 352 351 354 354 354 357 360 359 357 357 357 357 356 356 358 354 361 361 355 353 356 350 349 353 352 352 353 357 358 359 352
351 352 352 353 354 355 357 354 353 354 354 354 355 355 354 355 358 359 357 357 357 356 357 358 359 358 358 358 358 359 355 358 358 354 352 349 349 354 353 351 349 353 350
349 351 353 357 354 356 353 353 352 352 353 354 353 353 355 354 353 352 354 353 353 354 356 357 359 344 338 338 349 358 357 357 356 354 354 350 355 348 353 351 346 347 355
351 351 354 351 348 351 349 351 351 349 347 351 350 342 340 344 324 324 331 347 348 350 352 355 350 341 337 335 335 336 341 353 353 353 353 349 351 349 350 342 343 343 343
347 348 347 345 347 345 345 347 347 344 343 346 343 337 336 327 320 322 324 338 343 348 351 354 345 335 336 339 332 329 328 327 332 351 350 349 344 347 340 343 348 347 346
339 340 342 341 341 343 343 342 343 342 341 339 333 327 323 321 316 321 328 340 345 342 338 342 339 327 324 328 338 332 330 331 335 336 339 331 330 333 341 345 349 349 337
338 341 340 341 340 339 338 341 341 342 338 330 324 321 321 319 313 321 333 339 334 326 324 325 329 322 314 316 332 332 328 326 318 318 318 317 316 317 323 337 336 336 338
336 337 340 340 341 340 340 339 337 336 331 325 322 320 315 319 311 313 329 340 334 329 325 321 313 318 311 311 328 331 329 330 327 326 325 323 324 321 318 326 330 331 333
333 334 333 330 335 337 336 336 332 327 325 324 321 319 316 316 313 310 312 335 333 333 330 327 325 311 310 308 312 327 327 328 322 324 321 320 320 320 318 318 319 319 323
328 329 330 328 326 327 331 334 329 325 322 320 318 315 314 310 308 306 308 310 314 328 329 325 320 308 308 309 317 311 312 318 322 320 318 316 315 315 315 315 315 314 313
322 321 320 324 322 320 324 328 329 328 324 322 317 312 310 310 309 305 305 306 307 317 317 311 309 306 307 311 310 311 313 317 317 313 315 312 311 312 316 313 312 312 311
314 315 317 313 314 316 314 319 323 325 324 320 319 318 313 312 312 310 309 310 309 315 315 314 313 313 310 312 314 316 315 314 313 313 311 310 310 309 307 309 308 310 308
314 311 308 308 307 307 306 308 311 305 305 317 314 320 319 314 312 303 302 306 307 304 315 317 316 314 311 310 309 313 311 312 312 311 310 308 306 306 305 307 306 307 305
312 312 311 309 307 307 306 303 298 298 298 295 296 306 307 301 296 295 294 294 295 298 313 316 314 314 313 312 312 309 308 308 305 306 304 307 306 303 305 305 305 304 303
317 317 314 313 312 312 312 312 312 304 296 295 294 296 296 297 294 293 293 294 295 299 312 314 313 313 311 311 310 310 307 308 309 306 306 305 305 304 306 304 304 305 303
318 309 316 316 316 315 315 315 314 314 313 313 297 297 294 294 293 293 293 296 305 303 308 311 314 314 313 312 310 309 307 306 306 305 304 304 305 305 304 304 305 304 305
320 318 317 317 316 315 317 317 314 313 313 313 313 301 297 294 293 293 294 306 307 307 309 311 314 313 311 310 309 308 307 306 304 304 304 304 305 305 304 305 301 297 299
321 312 313 319 318 317 315 314 313 312 311 312 313 314 310 301 305 307 307 308 310 310 311 312 312 312 311 310 309 307 306 303 303 303 303 304 304 305 303 303 304 304 305
319 320 315 320 319 318 317 316 315 313 313 313 312 312 301 308 309 308 307 310 311 312 313 313 312 312 311 310 309 307 305 304 303 303 303 303 303 303 305 305 305 305 305
314 315 317 316 318 318 318 319 317 317 316 314 314 312 296 306 308 309 309 311 313 314 314 314 312 312 311 309 308 307 305 303 303 302 302 303 303 303 303 303 304 303 303
312 312 312 313 316 314 316 317 316 315 314 315 315 314 311 309 310 309 309 311 313 314 314 313 313 311 310 310 309 308 305 304 304 303 302 302 302 302 302 302 302 303 303
313 312 312 312 313 314 315 316 315 308 313 313 313 313 313 313 310 311 309 309 312 313 313 313 312 310 309 309 308 307 306 306 304 303 303 302 302 298 302 301 302 301 302
312 312 312 312 313 313 313 313 313 313 313 312 312 312 313 313 314 311 309 307 310 311 311 312 311 310 309 309 307 306 297 293 302 297 303 302 301 301 301 301 301 301 300
311 312 311 311 311 311 311 311 311 312 311 311 312 312 312 312 312 311 310 308 307 308 309 309 310 310 309 309 307 298 286 288 297 290 302 302 301 301 301 301 300 300 300